<?xml version="1.0" encoding="UTF-8" standalone="no" ?>
<gpx xmlns="http://www.topografix.com/GPX/1/1" xmlns:xsi="http://www.w3.org/2001/XMLSchema-instance" xsi:schemaLocation="http://www.topografix.com/GPX/1/1 http://www.topografix.com/GPX/1/1/gpx.xsd" version="1.1" creator="VisuGPX - https://www.visugpx.com">
  <metadata>
    <name>2019-06-05 13:33:41</name>
    <desc><![CDATA[

]]></desc>
  </metadata>
  <trk>
    <name><![CDATA[2019-06-05 13:33:41]]></name>
    <trkseg>
      <trkpt lat="42.28199" lon="-8.60867">
        <ele>-7.55</ele>
        <time>2019-06-05T05:46:49Z</time>
      </trkpt>
      <trkpt lat="42.282" lon="-8.60858">
        <ele>-7.07</ele>
        <time>2019-06-05T05:47:04Z</time>
      </trkpt>
      <trkpt lat="42.28205" lon="-8.60855">
        <ele>-6.11</ele>
        <time>2019-06-05T05:47:17Z</time>
      </trkpt>
      <trkpt lat="42.28208" lon="-8.60857">
        <ele>-4.67</ele>
        <time>2019-06-05T05:47:28Z</time>
      </trkpt>
      <trkpt lat="42.2821" lon="-8.60858">
        <ele>-4.19</ele>
        <time>2019-06-05T05:47:31Z</time>
      </trkpt>
      <trkpt lat="42.28214" lon="-8.60855">
        <ele>-3.71</ele>
        <time>2019-06-05T05:47:35Z</time>
      </trkpt>
      <trkpt lat="42.28229" lon="-8.60846">
        <ele>-2.27</ele>
        <time>2019-06-05T05:47:48Z</time>
      </trkpt>
      <trkpt lat="42.28228" lon="-8.60841">
        <ele>-1.79</ele>
        <time>2019-06-05T05:47:58Z</time>
      </trkpt>
      <trkpt lat="42.2823" lon="-8.60841">
        <ele>-1.79</ele>
        <time>2019-06-05T05:48:01Z</time>
      </trkpt>
      <trkpt lat="42.28235" lon="-8.60838">
        <ele>-1.3</ele>
        <time>2019-06-05T05:48:06Z</time>
      </trkpt>
      <trkpt lat="42.28239" lon="-8.60836">
        <ele>-1.79</ele>
        <time>2019-06-05T05:48:09Z</time>
      </trkpt>
      <trkpt lat="42.28253" lon="-8.60829">
        <ele>-1.3</ele>
        <time>2019-06-05T05:48:23Z</time>
      </trkpt>
      <trkpt lat="42.28257" lon="-8.60827">
        <ele>-0.82</ele>
        <time>2019-06-05T05:48:28Z</time>
      </trkpt>
      <trkpt lat="42.28261" lon="-8.60825">
        <ele>-1.79</ele>
        <time>2019-06-05T05:48:30Z</time>
      </trkpt>
      <trkpt lat="42.28286" lon="-8.60811">
        <ele>-0.34</ele>
        <time>2019-06-05T05:48:46Z</time>
      </trkpt>
      <trkpt lat="42.28293" lon="-8.60806">
        <ele>-1.3</ele>
        <time>2019-06-05T05:48:55Z</time>
      </trkpt>
      <trkpt lat="42.28296" lon="-8.60805">
        <ele>-1.3</ele>
        <time>2019-06-05T05:48:57Z</time>
      </trkpt>
      <trkpt lat="42.28311" lon="-8.60799">
        <ele>-3.71</ele>
        <time>2019-06-05T05:49:12Z</time>
      </trkpt>
      <trkpt lat="42.28317" lon="-8.60797">
        <ele>-5.15</ele>
        <time>2019-06-05T05:49:19Z</time>
      </trkpt>
      <trkpt lat="42.2832" lon="-8.60796">
        <ele>-6.11</ele>
        <time>2019-06-05T05:49:25Z</time>
      </trkpt>
      <trkpt lat="42.2833" lon="-8.60792">
        <ele>-6.11</ele>
        <time>2019-06-05T05:49:37Z</time>
      </trkpt>
      <trkpt lat="42.28333" lon="-8.60793">
        <ele>-6.11</ele>
        <time>2019-06-05T05:49:43Z</time>
      </trkpt>
      <trkpt lat="42.28343" lon="-8.60797">
        <ele>-4.19</ele>
        <time>2019-06-05T05:49:57Z</time>
      </trkpt>
      <trkpt lat="42.2835" lon="-8.60799">
        <ele>-3.23</ele>
        <time>2019-06-05T05:50:10Z</time>
      </trkpt>
      <trkpt lat="42.28357" lon="-8.60801">
        <ele>-1.3</ele>
        <time>2019-06-05T05:50:20Z</time>
      </trkpt>
      <trkpt lat="42.2837" lon="-8.60803">
        <ele>0.14</ele>
        <time>2019-06-05T05:50:36Z</time>
      </trkpt>
      <trkpt lat="42.28379" lon="-8.60802">
        <ele>1.1</ele>
        <time>2019-06-05T05:50:43Z</time>
      </trkpt>
      <trkpt lat="42.28396" lon="-8.608">
        <ele>2.54</ele>
        <time>2019-06-05T05:50:59Z</time>
      </trkpt>
      <trkpt lat="42.28409" lon="-8.608">
        <ele>4.94</ele>
        <time>2019-06-05T05:51:12Z</time>
      </trkpt>
      <trkpt lat="42.28418" lon="-8.60798">
        <ele>3.5</ele>
        <time>2019-06-05T05:51:19Z</time>
      </trkpt>
      <trkpt lat="42.28429" lon="-8.60794">
        <ele>4.94</ele>
        <time>2019-06-05T05:51:29Z</time>
      </trkpt>
      <trkpt lat="42.28435" lon="-8.60791">
        <ele>3.98</ele>
        <time>2019-06-05T05:51:38Z</time>
      </trkpt>
      <trkpt lat="42.28451" lon="-8.60784">
        <ele>4.46</ele>
        <time>2019-06-05T05:51:52Z</time>
      </trkpt>
      <trkpt lat="42.28468" lon="-8.6078">
        <ele>5.42</ele>
        <time>2019-06-05T05:52:07Z</time>
      </trkpt>
      <trkpt lat="42.28475" lon="-8.60778">
        <ele>5.42</ele>
        <time>2019-06-05T05:52:14Z</time>
      </trkpt>
      <trkpt lat="42.28494" lon="-8.60774">
        <ele>6.87</ele>
        <time>2019-06-05T05:52:29Z</time>
      </trkpt>
      <trkpt lat="42.28499" lon="-8.60774">
        <ele>7.35</ele>
        <time>2019-06-05T05:52:34Z</time>
      </trkpt>
      <trkpt lat="42.2852" lon="-8.60775">
        <ele>7.35</ele>
        <time>2019-06-05T05:52:50Z</time>
      </trkpt>
      <trkpt lat="42.28524" lon="-8.60774">
        <ele>6.87</ele>
        <time>2019-06-05T05:52:53Z</time>
      </trkpt>
      <trkpt lat="42.28533" lon="-8.60779">
        <ele>7.35</ele>
        <time>2019-06-05T05:53:06Z</time>
      </trkpt>
      <trkpt lat="42.28545" lon="-8.60782">
        <ele>8.31</ele>
        <time>2019-06-05T05:53:19Z</time>
      </trkpt>
      <trkpt lat="42.28553" lon="-8.60787">
        <ele>8.31</ele>
        <time>2019-06-05T05:53:28Z</time>
      </trkpt>
      <trkpt lat="42.28556" lon="-8.60788">
        <ele>8.31</ele>
        <time>2019-06-05T05:53:30Z</time>
      </trkpt>
      <trkpt lat="42.28572" lon="-8.60793">
        <ele>7.35</ele>
        <time>2019-06-05T05:53:43Z</time>
      </trkpt>
      <trkpt lat="42.28588" lon="-8.608">
        <ele>6.87</ele>
        <time>2019-06-05T05:53:57Z</time>
      </trkpt>
      <trkpt lat="42.28593" lon="-8.608">
        <ele>6.87</ele>
        <time>2019-06-05T05:54:02Z</time>
      </trkpt>
      <trkpt lat="42.28602" lon="-8.60803">
        <ele>5.91</ele>
        <time>2019-06-05T05:54:12Z</time>
      </trkpt>
      <trkpt lat="42.2862" lon="-8.60806">
        <ele>5.42</ele>
        <time>2019-06-05T05:54:24Z</time>
      </trkpt>
      <trkpt lat="42.28638" lon="-8.60811">
        <ele>3.02</ele>
        <time>2019-06-05T05:54:40Z</time>
      </trkpt>
      <trkpt lat="42.28645" lon="-8.60813">
        <ele>1.58</ele>
        <time>2019-06-05T05:54:45Z</time>
      </trkpt>
      <trkpt lat="42.2866" lon="-8.60818">
        <ele>-0.34</ele>
        <time>2019-06-05T05:54:59Z</time>
      </trkpt>
      <trkpt lat="42.28666" lon="-8.60824">
        <ele>-1.79</ele>
        <time>2019-06-05T05:55:05Z</time>
      </trkpt>
      <trkpt lat="42.28675" lon="-8.60836">
        <ele>-4.19</ele>
        <time>2019-06-05T05:55:15Z</time>
      </trkpt>
      <trkpt lat="42.2868" lon="-8.60841">
        <ele>-5.63</ele>
        <time>2019-06-05T05:55:21Z</time>
      </trkpt>
      <trkpt lat="42.28686" lon="-8.60841">
        <ele>-7.55</ele>
        <time>2019-06-05T05:55:30Z</time>
      </trkpt>
      <trkpt lat="42.28702" lon="-8.60836">
        <ele>-9.96</ele>
        <time>2019-06-05T05:55:44Z</time>
      </trkpt>
      <trkpt lat="42.28719" lon="-8.60833">
        <ele>-10.44</ele>
        <time>2019-06-05T05:55:59Z</time>
      </trkpt>
      <trkpt lat="42.28719" lon="-8.60834">
        <ele>-10.44</ele>
        <time>2019-06-05T05:56:00Z</time>
      </trkpt>
      <trkpt lat="42.28723" lon="-8.6084">
        <ele>-11.4</ele>
        <time>2019-06-05T05:56:05Z</time>
      </trkpt>
      <trkpt lat="42.28727" lon="-8.60847">
        <ele>-11.4</ele>
        <time>2019-06-05T05:56:11Z</time>
      </trkpt>
      <trkpt lat="42.28729" lon="-8.6085">
        <ele>-10.92</ele>
        <time>2019-06-05T05:56:13Z</time>
      </trkpt>
      <trkpt lat="42.28736" lon="-8.60859">
        <ele>-11.4</ele>
        <time>2019-06-05T05:56:26Z</time>
      </trkpt>
      <trkpt lat="42.28737" lon="-8.6086">
        <ele>-10.92</ele>
        <time>2019-06-05T05:56:30Z</time>
      </trkpt>
      <trkpt lat="42.2874" lon="-8.6086">
        <ele>-11.4</ele>
        <time>2019-06-05T05:56:32Z</time>
      </trkpt>
      <trkpt lat="42.28748" lon="-8.60863">
        <ele>-11.88</ele>
        <time>2019-06-05T05:56:44Z</time>
      </trkpt>
      <trkpt lat="42.28751" lon="-8.60864">
        <ele>-11.4</ele>
        <time>2019-06-05T05:56:47Z</time>
      </trkpt>
      <trkpt lat="42.2877" lon="-8.60866">
        <ele>-10.92</ele>
        <time>2019-06-05T05:57:03Z</time>
      </trkpt>
      <trkpt lat="42.28775" lon="-8.60866">
        <ele>-10.92</ele>
        <time>2019-06-05T05:57:11Z</time>
      </trkpt>
      <trkpt lat="42.28791" lon="-8.60865">
        <ele>-11.4</ele>
        <time>2019-06-05T05:57:27Z</time>
      </trkpt>
      <trkpt lat="42.28797" lon="-8.60865">
        <ele>-11.4</ele>
        <time>2019-06-05T05:57:32Z</time>
      </trkpt>
      <trkpt lat="42.28815" lon="-8.60863">
        <ele>-11.4</ele>
        <time>2019-06-05T05:57:46Z</time>
      </trkpt>
      <trkpt lat="42.28833" lon="-8.6086">
        <ele>-11.4</ele>
        <time>2019-06-05T05:57:59Z</time>
      </trkpt>
      <trkpt lat="42.28846" lon="-8.60859">
        <ele>-11.88</ele>
        <time>2019-06-05T05:58:13Z</time>
      </trkpt>
      <trkpt lat="42.28859" lon="-8.60857">
        <ele>-11.88</ele>
        <time>2019-06-05T05:58:26Z</time>
      </trkpt>
      <trkpt lat="42.28878" lon="-8.60855">
        <ele>-11.88</ele>
        <time>2019-06-05T05:58:39Z</time>
      </trkpt>
      <trkpt lat="42.28887" lon="-8.60853">
        <ele>-12.36</ele>
        <time>2019-06-05T05:58:48Z</time>
      </trkpt>
      <trkpt lat="42.289" lon="-8.60851">
        <ele>-12.36</ele>
        <time>2019-06-05T05:58:55Z</time>
      </trkpt>
      <trkpt lat="42.28907" lon="-8.60848">
        <ele>-11.4</ele>
        <time>2019-06-05T05:58:59Z</time>
      </trkpt>
      <trkpt lat="42.28929" lon="-8.60846">
        <ele>-11.88</ele>
        <time>2019-06-05T05:59:14Z</time>
      </trkpt>
      <trkpt lat="42.28935" lon="-8.60842">
        <ele>-11.88</ele>
        <time>2019-06-05T05:59:25Z</time>
      </trkpt>
      <trkpt lat="42.28944" lon="-8.60845">
        <ele>-11.88</ele>
        <time>2019-06-05T05:59:36Z</time>
      </trkpt>
      <trkpt lat="42.28961" lon="-8.60844">
        <ele>-12.36</ele>
        <time>2019-06-05T05:59:49Z</time>
      </trkpt>
      <trkpt lat="42.28966" lon="-8.60843">
        <ele>-12.36</ele>
        <time>2019-06-05T05:59:52Z</time>
      </trkpt>
      <trkpt lat="42.28982" lon="-8.60836">
        <ele>-13.32</ele>
        <time>2019-06-05T06:00:05Z</time>
      </trkpt>
      <trkpt lat="42.29" lon="-8.6083">
        <ele>-13.32</ele>
        <time>2019-06-05T06:00:18Z</time>
      </trkpt>
      <trkpt lat="42.29003" lon="-8.60828">
        <ele>-13.32</ele>
        <time>2019-06-05T06:00:21Z</time>
      </trkpt>
      <trkpt lat="42.29024" lon="-8.60818">
        <ele>-13.8</ele>
        <time>2019-06-05T06:00:36Z</time>
      </trkpt>
      <trkpt lat="42.29028" lon="-8.60816">
        <ele>-14.28</ele>
        <time>2019-06-05T06:00:39Z</time>
      </trkpt>
      <trkpt lat="42.29048" lon="-8.60809">
        <ele>-14.28</ele>
        <time>2019-06-05T06:00:54Z</time>
      </trkpt>
      <trkpt lat="42.29052" lon="-8.60808">
        <ele>-13.8</ele>
        <time>2019-06-05T06:00:57Z</time>
      </trkpt>
      <trkpt lat="42.29066" lon="-8.60805">
        <ele>-14.76</ele>
        <time>2019-06-05T06:01:10Z</time>
      </trkpt>
      <trkpt lat="42.29073" lon="-8.60804">
        <ele>-15.24</ele>
        <time>2019-06-05T06:01:16Z</time>
      </trkpt>
      <trkpt lat="42.29097" lon="-8.60799">
        <ele>-15.24</ele>
        <time>2019-06-05T06:01:32Z</time>
      </trkpt>
      <trkpt lat="42.29118" lon="-8.60792">
        <ele>-16.21</ele>
        <time>2019-06-05T06:01:47Z</time>
      </trkpt>
      <trkpt lat="42.29128" lon="-8.6079">
        <ele>-16.21</ele>
        <time>2019-06-05T06:01:55Z</time>
      </trkpt>
      <trkpt lat="42.29147" lon="-8.60784">
        <ele>-16.69</ele>
        <time>2019-06-05T06:02:10Z</time>
      </trkpt>
      <trkpt lat="42.29162" lon="-8.60782">
        <ele>-17.17</ele>
        <time>2019-06-05T06:02:22Z</time>
      </trkpt>
      <trkpt lat="42.29173" lon="-8.6078">
        <ele>-17.65</ele>
        <time>2019-06-05T06:02:30Z</time>
      </trkpt>
      <trkpt lat="42.29177" lon="-8.60779">
        <ele>-17.65</ele>
        <time>2019-06-05T06:02:33Z</time>
      </trkpt>
      <trkpt lat="42.29197" lon="-8.60775">
        <ele>-18.13</ele>
        <time>2019-06-05T06:02:49Z</time>
      </trkpt>
      <trkpt lat="42.29201" lon="-8.60775">
        <ele>-18.61</ele>
        <time>2019-06-05T06:02:53Z</time>
      </trkpt>
      <trkpt lat="42.29202" lon="-8.60774">
        <ele>-18.13</ele>
        <time>2019-06-05T06:02:54Z</time>
      </trkpt>
      <trkpt lat="42.2921" lon="-8.60771">
        <ele>-18.61</ele>
        <time>2019-06-05T06:03:06Z</time>
      </trkpt>
      <trkpt lat="42.29221" lon="-8.60767">
        <ele>-19.57</ele>
        <time>2019-06-05T06:03:20Z</time>
      </trkpt>
      <trkpt lat="42.29232" lon="-8.60764">
        <ele>-19.09</ele>
        <time>2019-06-05T06:03:31Z</time>
      </trkpt>
      <trkpt lat="42.29253" lon="-8.60756">
        <ele>-18.61</ele>
        <time>2019-06-05T06:03:46Z</time>
      </trkpt>
      <trkpt lat="42.29256" lon="-8.60755">
        <ele>-18.61</ele>
        <time>2019-06-05T06:03:48Z</time>
      </trkpt>
      <trkpt lat="42.29269" lon="-8.6075">
        <ele>-19.09</ele>
        <time>2019-06-05T06:03:59Z</time>
      </trkpt>
      <trkpt lat="42.29285" lon="-8.60743">
        <ele>-19.57</ele>
        <time>2019-06-05T06:04:11Z</time>
      </trkpt>
      <trkpt lat="42.29311" lon="-8.60746">
        <ele>-19.09</ele>
        <time>2019-06-05T06:04:28Z</time>
      </trkpt>
      <trkpt lat="42.29317" lon="-8.6075">
        <ele>-19.09</ele>
        <time>2019-06-05T06:04:34Z</time>
      </trkpt>
      <trkpt lat="42.29327" lon="-8.60751">
        <ele>-18.61</ele>
        <time>2019-06-05T06:04:41Z</time>
      </trkpt>
      <trkpt lat="42.29332" lon="-8.60752">
        <ele>-18.61</ele>
        <time>2019-06-05T06:04:44Z</time>
      </trkpt>
      <trkpt lat="42.29338" lon="-8.60757">
        <ele>-18.61</ele>
        <time>2019-06-05T06:04:48Z</time>
      </trkpt>
      <trkpt lat="42.29397" lon="-8.60773">
        <ele>-16.21</ele>
        <time>2019-06-05T06:05:05Z</time>
      </trkpt>
      <trkpt lat="42.29414" lon="-8.60791">
        <ele>-15.24</ele>
        <time>2019-06-05T06:05:20Z</time>
      </trkpt>
      <trkpt lat="42.29425" lon="-8.60805">
        <ele>-13.32</ele>
        <time>2019-06-05T06:05:33Z</time>
      </trkpt>
      <trkpt lat="42.2943" lon="-8.60815">
        <ele>-12.36</ele>
        <time>2019-06-05T06:05:42Z</time>
      </trkpt>
      <trkpt lat="42.29441" lon="-8.60829">
        <ele>-10.92</ele>
        <time>2019-06-05T06:05:56Z</time>
      </trkpt>
      <trkpt lat="42.29446" lon="-8.6084">
        <ele>-9.96</ele>
        <time>2019-06-05T06:06:07Z</time>
      </trkpt>
      <trkpt lat="42.29456" lon="-8.60858">
        <ele>-6.59</ele>
        <time>2019-06-05T06:06:23Z</time>
      </trkpt>
      <trkpt lat="42.29461" lon="-8.60866">
        <ele>-6.11</ele>
        <time>2019-06-05T06:06:31Z</time>
      </trkpt>
      <trkpt lat="42.29462" lon="-8.60869">
        <ele>-5.63</ele>
        <time>2019-06-05T06:06:34Z</time>
      </trkpt>
      <trkpt lat="42.29474" lon="-8.60884">
        <ele>-4.19</ele>
        <time>2019-06-05T06:06:50Z</time>
      </trkpt>
      <trkpt lat="42.29479" lon="-8.60892">
        <ele>-4.19</ele>
        <time>2019-06-05T06:06:57Z</time>
      </trkpt>
      <trkpt lat="42.29496" lon="-8.60903">
        <ele>-3.71</ele>
        <time>2019-06-05T06:07:12Z</time>
      </trkpt>
      <trkpt lat="42.29497" lon="-8.60904">
        <ele>-3.71</ele>
        <time>2019-06-05T06:07:13Z</time>
      </trkpt>
      <trkpt lat="42.29499" lon="-8.60906">
        <ele>-3.71</ele>
        <time>2019-06-05T06:07:15Z</time>
      </trkpt>
      <trkpt lat="42.29502" lon="-8.60907">
        <ele>-3.71</ele>
        <time>2019-06-05T06:07:18Z</time>
      </trkpt>
      <trkpt lat="42.29506" lon="-8.60912">
        <ele>-3.23</ele>
        <time>2019-06-05T06:07:23Z</time>
      </trkpt>
      <trkpt lat="42.29517" lon="-8.60921">
        <ele>-2.75</ele>
        <time>2019-06-05T06:07:36Z</time>
      </trkpt>
      <trkpt lat="42.29533" lon="-8.60927">
        <ele>-2.75</ele>
        <time>2019-06-05T06:07:49Z</time>
      </trkpt>
      <trkpt lat="42.29538" lon="-8.60929">
        <ele>-2.27</ele>
        <time>2019-06-05T06:07:53Z</time>
      </trkpt>
      <trkpt lat="42.29547" lon="-8.60935">
        <ele>-1.79</ele>
        <time>2019-06-05T06:08:01Z</time>
      </trkpt>
      <trkpt lat="42.29551" lon="-8.60939">
        <ele>-1.3</ele>
        <time>2019-06-05T06:08:05Z</time>
      </trkpt>
      <trkpt lat="42.29554" lon="-8.60942">
        <ele>-0.82</ele>
        <time>2019-06-05T06:08:08Z</time>
      </trkpt>
      <trkpt lat="42.29565" lon="-8.60954">
        <ele>0.14</ele>
        <time>2019-06-05T06:08:21Z</time>
      </trkpt>
      <trkpt lat="42.29571" lon="-8.60965">
        <ele>0.62</ele>
        <time>2019-06-05T06:08:31Z</time>
      </trkpt>
      <trkpt lat="42.29582" lon="-8.60975">
        <ele>1.1</ele>
        <time>2019-06-05T06:08:40Z</time>
      </trkpt>
      <trkpt lat="42.29594" lon="-8.60984">
        <ele>1.58</ele>
        <time>2019-06-05T06:08:49Z</time>
      </trkpt>
      <trkpt lat="42.296" lon="-8.60989">
        <ele>1.1</ele>
        <time>2019-06-05T06:08:55Z</time>
      </trkpt>
      <trkpt lat="42.29612" lon="-8.60996">
        <ele>1.58</ele>
        <time>2019-06-05T06:09:05Z</time>
      </trkpt>
      <trkpt lat="42.29614" lon="-8.60996">
        <ele>1.1</ele>
        <time>2019-06-05T06:09:07Z</time>
      </trkpt>
      <trkpt lat="42.29619" lon="-8.60998">
        <ele>1.1</ele>
        <time>2019-06-05T06:09:11Z</time>
      </trkpt>
      <trkpt lat="42.29638" lon="-8.60998">
        <ele>1.1</ele>
        <time>2019-06-05T06:09:27Z</time>
      </trkpt>
      <trkpt lat="42.29649" lon="-8.60997">
        <ele>0.62</ele>
        <time>2019-06-05T06:09:37Z</time>
      </trkpt>
      <trkpt lat="42.29662" lon="-8.60994">
        <ele>1.1</ele>
        <time>2019-06-05T06:09:51Z</time>
      </trkpt>
      <trkpt lat="42.29667" lon="-8.60996">
        <ele>1.58</ele>
        <time>2019-06-05T06:10:00Z</time>
      </trkpt>
      <trkpt lat="42.29681" lon="-8.60998">
        <ele>1.58</ele>
        <time>2019-06-05T06:10:13Z</time>
      </trkpt>
      <trkpt lat="42.29685" lon="-8.61">
        <ele>2.06</ele>
        <time>2019-06-05T06:10:17Z</time>
      </trkpt>
      <trkpt lat="42.29705" lon="-8.60998">
        <ele>2.06</ele>
        <time>2019-06-05T06:10:30Z</time>
      </trkpt>
      <trkpt lat="42.29725" lon="-8.60992">
        <ele>1.58</ele>
        <time>2019-06-05T06:10:44Z</time>
      </trkpt>
      <trkpt lat="42.29737" lon="-8.6099">
        <ele>0.62</ele>
        <time>2019-06-05T06:10:55Z</time>
      </trkpt>
      <trkpt lat="42.29754" lon="-8.60984">
        <ele>0.62</ele>
        <time>2019-06-05T06:11:09Z</time>
      </trkpt>
      <trkpt lat="42.29773" lon="-8.60976">
        <ele>0.14</ele>
        <time>2019-06-05T06:11:24Z</time>
      </trkpt>
      <trkpt lat="42.29788" lon="-8.60971">
        <ele>0.14</ele>
        <time>2019-06-05T06:11:37Z</time>
      </trkpt>
      <trkpt lat="42.29802" lon="-8.60961">
        <ele>-0.34</ele>
        <time>2019-06-05T06:11:51Z</time>
      </trkpt>
      <trkpt lat="42.29802" lon="-8.60959">
        <ele>-0.82</ele>
        <time>2019-06-05T06:11:53Z</time>
      </trkpt>
      <trkpt lat="42.29823" lon="-8.60954">
        <ele>-0.82</ele>
        <time>2019-06-05T06:12:09Z</time>
      </trkpt>
      <trkpt lat="42.29828" lon="-8.60953">
        <ele>-0.82</ele>
        <time>2019-06-05T06:12:13Z</time>
      </trkpt>
      <trkpt lat="42.2985" lon="-8.60949">
        <ele>-1.3</ele>
        <time>2019-06-05T06:12:30Z</time>
      </trkpt>
      <trkpt lat="42.29867" lon="-8.60953">
        <ele>-1.79</ele>
        <time>2019-06-05T06:12:44Z</time>
      </trkpt>
      <trkpt lat="42.29886" lon="-8.60951">
        <ele>-1.3</ele>
        <time>2019-06-05T06:12:59Z</time>
      </trkpt>
      <trkpt lat="42.29895" lon="-8.60951">
        <ele>-0.82</ele>
        <time>2019-06-05T06:13:06Z</time>
      </trkpt>
      <trkpt lat="42.29908" lon="-8.60951">
        <ele>-1.3</ele>
        <time>2019-06-05T06:13:15Z</time>
      </trkpt>
      <trkpt lat="42.29921" lon="-8.6095">
        <ele>-0.34</ele>
        <time>2019-06-05T06:13:30Z</time>
      </trkpt>
      <trkpt lat="42.2993" lon="-8.6095">
        <ele>0.14</ele>
        <time>2019-06-05T06:13:38Z</time>
      </trkpt>
      <trkpt lat="42.29937" lon="-8.60951">
        <ele>1.1</ele>
        <time>2019-06-05T06:13:46Z</time>
      </trkpt>
      <trkpt lat="42.2994" lon="-8.60949">
        <ele>1.1</ele>
        <time>2019-06-05T06:13:48Z</time>
      </trkpt>
      <trkpt lat="42.29943" lon="-8.60941">
        <ele>2.06</ele>
        <time>2019-06-05T06:13:54Z</time>
      </trkpt>
      <trkpt lat="42.29946" lon="-8.60938">
        <ele>2.06</ele>
        <time>2019-06-05T06:13:58Z</time>
      </trkpt>
      <trkpt lat="42.29953" lon="-8.60917">
        <ele>4.46</ele>
        <time>2019-06-05T06:14:14Z</time>
      </trkpt>
      <trkpt lat="42.29954" lon="-8.60916">
        <ele>4.46</ele>
        <time>2019-06-05T06:14:15Z</time>
      </trkpt>
      <trkpt lat="42.29964" lon="-8.609">
        <ele>5.91</ele>
        <time>2019-06-05T06:14:31Z</time>
      </trkpt>
      <trkpt lat="42.29979" lon="-8.60889">
        <ele>7.83</ele>
        <time>2019-06-05T06:14:45Z</time>
      </trkpt>
      <trkpt lat="42.29981" lon="-8.60887">
        <ele>8.31</ele>
        <time>2019-06-05T06:14:47Z</time>
      </trkpt>
      <trkpt lat="42.29996" lon="-8.60878">
        <ele>9.75</ele>
        <time>2019-06-05T06:15:01Z</time>
      </trkpt>
      <trkpt lat="42.29998" lon="-8.60876">
        <ele>10.71</ele>
        <time>2019-06-05T06:15:03Z</time>
      </trkpt>
      <trkpt lat="42.3001" lon="-8.60864">
        <ele>12.63</ele>
        <time>2019-06-05T06:15:17Z</time>
      </trkpt>
      <trkpt lat="42.3002" lon="-8.60851">
        <ele>15.04</ele>
        <time>2019-06-05T06:15:33Z</time>
      </trkpt>
      <trkpt lat="42.30029" lon="-8.60836">
        <ele>17.44</ele>
        <time>2019-06-05T06:15:48Z</time>
      </trkpt>
      <trkpt lat="42.30037" lon="-8.60822">
        <ele>18.88</ele>
        <time>2019-06-05T06:16:02Z</time>
      </trkpt>
      <trkpt lat="42.30038" lon="-8.6082">
        <ele>18.88</ele>
        <time>2019-06-05T06:16:04Z</time>
      </trkpt>
      <trkpt lat="42.30052" lon="-8.60816">
        <ele>21.77</ele>
        <time>2019-06-05T06:16:18Z</time>
      </trkpt>
      <trkpt lat="42.30064" lon="-8.60824">
        <ele>19.36</ele>
        <time>2019-06-05T06:16:31Z</time>
      </trkpt>
      <trkpt lat="42.30067" lon="-8.60826">
        <ele>18.88</ele>
        <time>2019-06-05T06:16:34Z</time>
      </trkpt>
      <trkpt lat="42.30072" lon="-8.60832">
        <ele>17.44</ele>
        <time>2019-06-05T06:16:40Z</time>
      </trkpt>
      <trkpt lat="42.30092" lon="-8.6083">
        <ele>16</ele>
        <time>2019-06-05T06:16:57Z</time>
      </trkpt>
      <trkpt lat="42.30109" lon="-8.60821">
        <ele>16.96</ele>
        <time>2019-06-05T06:17:13Z</time>
      </trkpt>
      <trkpt lat="42.3013" lon="-8.60822">
        <ele>16.48</ele>
        <time>2019-06-05T06:17:30Z</time>
      </trkpt>
      <trkpt lat="42.30144" lon="-8.60817">
        <ele>17.44</ele>
        <time>2019-06-05T06:17:43Z</time>
      </trkpt>
      <trkpt lat="42.30156" lon="-8.6081">
        <ele>17.44</ele>
        <time>2019-06-05T06:17:55Z</time>
      </trkpt>
      <trkpt lat="42.30166" lon="-8.60802">
        <ele>18.88</ele>
        <time>2019-06-05T06:18:09Z</time>
      </trkpt>
      <trkpt lat="42.30179" lon="-8.60796">
        <ele>19.84</ele>
        <time>2019-06-05T06:18:24Z</time>
      </trkpt>
      <trkpt lat="42.30192" lon="-8.60786">
        <ele>19.84</ele>
        <time>2019-06-05T06:18:39Z</time>
      </trkpt>
      <trkpt lat="42.30198" lon="-8.60783">
        <ele>20.81</ele>
        <time>2019-06-05T06:18:43Z</time>
      </trkpt>
      <trkpt lat="42.30208" lon="-8.60771">
        <ele>21.77</ele>
        <time>2019-06-05T06:18:54Z</time>
      </trkpt>
      <trkpt lat="42.30223" lon="-8.60746">
        <ele>22.73</ele>
        <time>2019-06-05T06:19:08Z</time>
      </trkpt>
      <trkpt lat="42.30232" lon="-8.60738">
        <ele>23.69</ele>
        <time>2019-06-05T06:19:21Z</time>
      </trkpt>
      <trkpt lat="42.30243" lon="-8.60729">
        <ele>24.17</ele>
        <time>2019-06-05T06:19:31Z</time>
      </trkpt>
      <trkpt lat="42.30254" lon="-8.60717">
        <ele>25.13</ele>
        <time>2019-06-05T06:19:44Z</time>
      </trkpt>
      <trkpt lat="42.30264" lon="-8.60701">
        <ele>25.61</ele>
        <time>2019-06-05T06:19:55Z</time>
      </trkpt>
      <trkpt lat="42.30275" lon="-8.60696">
        <ele>26.09</ele>
        <time>2019-06-05T06:20:09Z</time>
      </trkpt>
      <trkpt lat="42.30276" lon="-8.60696">
        <ele>26.09</ele>
        <time>2019-06-05T06:20:13Z</time>
      </trkpt>
      <trkpt lat="42.30286" lon="-8.60693">
        <ele>27.53</ele>
        <time>2019-06-05T06:20:23Z</time>
      </trkpt>
      <trkpt lat="42.30299" lon="-8.6068">
        <ele>27.05</ele>
        <time>2019-06-05T06:20:36Z</time>
      </trkpt>
      <trkpt lat="42.30303" lon="-8.60677">
        <ele>28.02</ele>
        <time>2019-06-05T06:20:40Z</time>
      </trkpt>
      <trkpt lat="42.30309" lon="-8.60674">
        <ele>27.53</ele>
        <time>2019-06-05T06:20:55Z</time>
      </trkpt>
      <trkpt lat="42.30307" lon="-8.60673">
        <ele>27.53</ele>
        <time>2019-06-05T06:21:15Z</time>
      </trkpt>
      <trkpt lat="42.30309" lon="-8.60671">
        <ele>28.02</ele>
        <time>2019-06-05T06:21:34Z</time>
      </trkpt>
      <trkpt lat="42.30312" lon="-8.60664">
        <ele>28.5</ele>
        <time>2019-06-05T06:22:02Z</time>
      </trkpt>
      <trkpt lat="42.30313" lon="-8.60664">
        <ele>29.46</ele>
        <time>2019-06-05T06:22:36Z</time>
      </trkpt>
      <trkpt lat="42.3031" lon="-8.60664">
        <ele>29.46</ele>
        <time>2019-06-05T06:23:07Z</time>
      </trkpt>
      <trkpt lat="42.30312" lon="-8.6067">
        <ele>30.42</ele>
        <time>2019-06-05T06:23:21Z</time>
      </trkpt>
      <trkpt lat="42.30311" lon="-8.60673">
        <ele>30.42</ele>
        <time>2019-06-05T06:23:38Z</time>
      </trkpt>
      <trkpt lat="42.30308" lon="-8.60679">
        <ele>30.9</ele>
        <time>2019-06-05T06:23:56Z</time>
      </trkpt>
      <trkpt lat="42.30308" lon="-8.60681">
        <ele>31.38</ele>
        <time>2019-06-05T06:24:22Z</time>
      </trkpt>
      <trkpt lat="42.30308" lon="-8.60679">
        <ele>34.26</ele>
        <time>2019-06-05T06:24:25Z</time>
      </trkpt>
      <trkpt lat="42.30308" lon="-8.60679">
        <ele>30.9</ele>
        <time>2019-06-05T06:24:26Z</time>
      </trkpt>
      <trkpt lat="42.30309" lon="-8.6068">
        <ele>34.26</ele>
        <time>2019-06-05T06:24:42Z</time>
      </trkpt>
      <trkpt lat="42.30309" lon="-8.6068">
        <ele>30.9</ele>
        <time>2019-06-05T06:24:43Z</time>
      </trkpt>
      <trkpt lat="42.30312" lon="-8.60676">
        <ele>31.38</ele>
        <time>2019-06-05T06:24:56Z</time>
      </trkpt>
      <trkpt lat="42.30314" lon="-8.60674">
        <ele>31.38</ele>
        <time>2019-06-05T06:24:59Z</time>
      </trkpt>
      <trkpt lat="42.30316" lon="-8.60672">
        <ele>31.38</ele>
        <time>2019-06-05T06:25:01Z</time>
      </trkpt>
      <trkpt lat="42.30326" lon="-8.60654">
        <ele>31.86</ele>
        <time>2019-06-05T06:25:15Z</time>
      </trkpt>
      <trkpt lat="42.30332" lon="-8.60645">
        <ele>32.82</ele>
        <time>2019-06-05T06:25:25Z</time>
      </trkpt>
      <trkpt lat="42.30346" lon="-8.60632">
        <ele>32.82</ele>
        <time>2019-06-05T06:25:37Z</time>
      </trkpt>
      <trkpt lat="42.30358" lon="-8.60624">
        <ele>33.78</ele>
        <time>2019-06-05T06:25:48Z</time>
      </trkpt>
      <trkpt lat="42.30368" lon="-8.60621">
        <ele>34.26</ele>
        <time>2019-06-05T06:25:57Z</time>
      </trkpt>
      <trkpt lat="42.30372" lon="-8.60618">
        <ele>33.78</ele>
        <time>2019-06-05T06:26:01Z</time>
      </trkpt>
      <trkpt lat="42.30387" lon="-8.60612">
        <ele>34.74</ele>
        <time>2019-06-05T06:26:14Z</time>
      </trkpt>
      <trkpt lat="42.30393" lon="-8.60605">
        <ele>35.23</ele>
        <time>2019-06-05T06:26:20Z</time>
      </trkpt>
      <trkpt lat="42.30403" lon="-8.60592">
        <ele>36.19</ele>
        <time>2019-06-05T06:26:32Z</time>
      </trkpt>
      <trkpt lat="42.30426" lon="-8.60594">
        <ele>37.15</ele>
        <time>2019-06-05T06:26:50Z</time>
      </trkpt>
      <trkpt lat="42.30436" lon="-8.60594">
        <ele>37.15</ele>
        <time>2019-06-05T06:26:58Z</time>
      </trkpt>
      <trkpt lat="42.30453" lon="-8.60595">
        <ele>37.63</ele>
        <time>2019-06-05T06:27:13Z</time>
      </trkpt>
      <trkpt lat="42.30469" lon="-8.60594">
        <ele>39.07</ele>
        <time>2019-06-05T06:27:27Z</time>
      </trkpt>
      <trkpt lat="42.30481" lon="-8.60594">
        <ele>40.03</ele>
        <time>2019-06-05T06:27:40Z</time>
      </trkpt>
      <trkpt lat="42.30492" lon="-8.60594">
        <ele>41.95</ele>
        <time>2019-06-05T06:27:54Z</time>
      </trkpt>
      <trkpt lat="42.30507" lon="-8.60594">
        <ele>42.92</ele>
        <time>2019-06-05T06:28:07Z</time>
      </trkpt>
      <trkpt lat="42.30527" lon="-8.60588">
        <ele>43.88</ele>
        <time>2019-06-05T06:28:22Z</time>
      </trkpt>
      <trkpt lat="42.30541" lon="-8.60583">
        <ele>45.8</ele>
        <time>2019-06-05T06:28:36Z</time>
      </trkpt>
      <trkpt lat="42.30557" lon="-8.6058">
        <ele>47.24</ele>
        <time>2019-06-05T06:28:49Z</time>
      </trkpt>
      <trkpt lat="42.30573" lon="-8.60578">
        <ele>48.2</ele>
        <time>2019-06-05T06:29:03Z</time>
      </trkpt>
      <trkpt lat="42.3059" lon="-8.60576">
        <ele>49.16</ele>
        <time>2019-06-05T06:29:16Z</time>
      </trkpt>
      <trkpt lat="42.30596" lon="-8.60575">
        <ele>49.16</ele>
        <time>2019-06-05T06:29:21Z</time>
      </trkpt>
      <trkpt lat="42.30615" lon="-8.60564">
        <ele>50.13</ele>
        <time>2019-06-05T06:29:36Z</time>
      </trkpt>
      <trkpt lat="42.30632" lon="-8.60558">
        <ele>50.13</ele>
        <time>2019-06-05T06:29:50Z</time>
      </trkpt>
      <trkpt lat="42.30642" lon="-8.60544">
        <ele>50.61</ele>
        <time>2019-06-05T06:30:02Z</time>
      </trkpt>
      <trkpt lat="42.30651" lon="-8.60527">
        <ele>51.57</ele>
        <time>2019-06-05T06:30:15Z</time>
      </trkpt>
      <trkpt lat="42.3066" lon="-8.60514">
        <ele>52.53</ele>
        <time>2019-06-05T06:30:30Z</time>
      </trkpt>
      <trkpt lat="42.30665" lon="-8.60508">
        <ele>53.97</ele>
        <time>2019-06-05T06:30:39Z</time>
      </trkpt>
      <trkpt lat="42.30672" lon="-8.60498">
        <ele>55.41</ele>
        <time>2019-06-05T06:30:50Z</time>
      </trkpt>
      <trkpt lat="42.30683" lon="-8.60489">
        <ele>57.34</ele>
        <time>2019-06-05T06:31:06Z</time>
      </trkpt>
      <trkpt lat="42.30689" lon="-8.60491">
        <ele>57.34</ele>
        <time>2019-06-05T06:31:19Z</time>
      </trkpt>
      <trkpt lat="42.307" lon="-8.60486">
        <ele>57.82</ele>
        <time>2019-06-05T06:31:32Z</time>
      </trkpt>
      <trkpt lat="42.30714" lon="-8.60485">
        <ele>57.82</ele>
        <time>2019-06-05T06:31:45Z</time>
      </trkpt>
      <trkpt lat="42.30722" lon="-8.60482">
        <ele>58.78</ele>
        <time>2019-06-05T06:31:57Z</time>
      </trkpt>
      <trkpt lat="42.30733" lon="-8.60475">
        <ele>59.26</ele>
        <time>2019-06-05T06:32:09Z</time>
      </trkpt>
      <trkpt lat="42.30739" lon="-8.60472">
        <ele>59.74</ele>
        <time>2019-06-05T06:32:14Z</time>
      </trkpt>
      <trkpt lat="42.30746" lon="-8.60473">
        <ele>60.22</ele>
        <time>2019-06-05T06:32:21Z</time>
      </trkpt>
      <trkpt lat="42.30751" lon="-8.60472">
        <ele>60.7</ele>
        <time>2019-06-05T06:32:26Z</time>
      </trkpt>
      <trkpt lat="42.30757" lon="-8.60471">
        <ele>61.18</ele>
        <time>2019-06-05T06:32:32Z</time>
      </trkpt>
      <trkpt lat="42.30765" lon="-8.60462">
        <ele>61.66</ele>
        <time>2019-06-05T06:32:45Z</time>
      </trkpt>
      <trkpt lat="42.30768" lon="-8.60453">
        <ele>62.62</ele>
        <time>2019-06-05T06:32:53Z</time>
      </trkpt>
      <trkpt lat="42.3077" lon="-8.60451">
        <ele>62.62</ele>
        <time>2019-06-05T06:32:55Z</time>
      </trkpt>
      <trkpt lat="42.30778" lon="-8.60431">
        <ele>63.1</ele>
        <time>2019-06-05T06:33:11Z</time>
      </trkpt>
      <trkpt lat="42.30781" lon="-8.60419">
        <ele>64.07</ele>
        <time>2019-06-05T06:33:19Z</time>
      </trkpt>
      <trkpt lat="42.30783" lon="-8.60415">
        <ele>64.55</ele>
        <time>2019-06-05T06:33:22Z</time>
      </trkpt>
      <trkpt lat="42.30792" lon="-8.60395">
        <ele>65.03</ele>
        <time>2019-06-05T06:33:38Z</time>
      </trkpt>
      <trkpt lat="42.30802" lon="-8.60381">
        <ele>65.03</ele>
        <time>2019-06-05T06:33:50Z</time>
      </trkpt>
      <trkpt lat="42.30803" lon="-8.60381">
        <ele>65.03</ele>
        <time>2019-06-05T06:33:51Z</time>
      </trkpt>
      <trkpt lat="42.30816" lon="-8.60366">
        <ele>65.51</ele>
        <time>2019-06-05T06:34:06Z</time>
      </trkpt>
      <trkpt lat="42.30827" lon="-8.60358">
        <ele>65.99</ele>
        <time>2019-06-05T06:34:17Z</time>
      </trkpt>
      <trkpt lat="42.3083" lon="-8.60354">
        <ele>65.99</ele>
        <time>2019-06-05T06:34:22Z</time>
      </trkpt>
      <trkpt lat="42.30839" lon="-8.60347">
        <ele>66.47</ele>
        <time>2019-06-05T06:34:31Z</time>
      </trkpt>
      <trkpt lat="42.30842" lon="-8.60345">
        <ele>65.99</ele>
        <time>2019-06-05T06:34:34Z</time>
      </trkpt>
      <trkpt lat="42.30844" lon="-8.60342">
        <ele>65.99</ele>
        <time>2019-06-05T06:34:36Z</time>
      </trkpt>
      <trkpt lat="42.30859" lon="-8.60329">
        <ele>67.91</ele>
        <time>2019-06-05T06:34:51Z</time>
      </trkpt>
      <trkpt lat="42.30874" lon="-8.60322">
        <ele>68.39</ele>
        <time>2019-06-05T06:35:06Z</time>
      </trkpt>
      <trkpt lat="42.30892" lon="-8.60322">
        <ele>69.83</ele>
        <time>2019-06-05T06:35:22Z</time>
      </trkpt>
      <trkpt lat="42.30908" lon="-8.60323">
        <ele>69.83</ele>
        <time>2019-06-05T06:35:35Z</time>
      </trkpt>
      <trkpt lat="42.30925" lon="-8.60323">
        <ele>71.27</ele>
        <time>2019-06-05T06:35:49Z</time>
      </trkpt>
      <trkpt lat="42.30937" lon="-8.60323">
        <ele>72.24</ele>
        <time>2019-06-05T06:36:01Z</time>
      </trkpt>
      <trkpt lat="42.3095" lon="-8.60321">
        <ele>73.2</ele>
        <time>2019-06-05T06:36:13Z</time>
      </trkpt>
      <trkpt lat="42.30967" lon="-8.60319">
        <ele>74.64</ele>
        <time>2019-06-05T06:36:30Z</time>
      </trkpt>
      <trkpt lat="42.3097" lon="-8.60319">
        <ele>75.12</ele>
        <time>2019-06-05T06:36:34Z</time>
      </trkpt>
      <trkpt lat="42.30973" lon="-8.60319">
        <ele>75.12</ele>
        <time>2019-06-05T06:36:36Z</time>
      </trkpt>
      <trkpt lat="42.30981" lon="-8.60317">
        <ele>76.08</ele>
        <time>2019-06-05T06:36:46Z</time>
      </trkpt>
      <trkpt lat="42.30999" lon="-8.60313">
        <ele>77.52</ele>
        <time>2019-06-05T06:37:01Z</time>
      </trkpt>
      <trkpt lat="42.31014" lon="-8.60313">
        <ele>78.97</ele>
        <time>2019-06-05T06:37:17Z</time>
      </trkpt>
      <trkpt lat="42.31017" lon="-8.60323">
        <ele>80.41</ele>
        <time>2019-06-05T06:37:27Z</time>
      </trkpt>
      <trkpt lat="42.31026" lon="-8.60343">
        <ele>82.33</ele>
        <time>2019-06-05T06:37:44Z</time>
      </trkpt>
      <trkpt lat="42.31033" lon="-8.60361">
        <ele>84.73</ele>
        <time>2019-06-05T06:37:58Z</time>
      </trkpt>
      <trkpt lat="42.31037" lon="-8.60368">
        <ele>85.21</ele>
        <time>2019-06-05T06:38:04Z</time>
      </trkpt>
      <trkpt lat="42.31051" lon="-8.60374">
        <ele>86.66</ele>
        <time>2019-06-05T06:38:20Z</time>
      </trkpt>
      <trkpt lat="42.31058" lon="-8.60379">
        <ele>88.58</ele>
        <time>2019-06-05T06:38:28Z</time>
      </trkpt>
      <trkpt lat="42.3107" lon="-8.60393">
        <ele>91.46</ele>
        <time>2019-06-05T06:38:45Z</time>
      </trkpt>
      <trkpt lat="42.3108" lon="-8.60404">
        <ele>93.39</ele>
        <time>2019-06-05T06:39:00Z</time>
      </trkpt>
      <trkpt lat="42.3109" lon="-8.60415">
        <ele>96.27</ele>
        <time>2019-06-05T06:39:15Z</time>
      </trkpt>
      <trkpt lat="42.31098" lon="-8.60432">
        <ele>98.67</ele>
        <time>2019-06-05T06:39:32Z</time>
      </trkpt>
      <trkpt lat="42.31099" lon="-8.60436">
        <ele>100.11</ele>
        <time>2019-06-05T06:39:37Z</time>
      </trkpt>
      <trkpt lat="42.31105" lon="-8.60444">
        <ele>102.04</ele>
        <time>2019-06-05T06:39:50Z</time>
      </trkpt>
      <trkpt lat="42.31117" lon="-8.60456">
        <ele>103.96</ele>
        <time>2019-06-05T06:40:06Z</time>
      </trkpt>
      <trkpt lat="42.31123" lon="-8.60464">
        <ele>105.88</ele>
        <time>2019-06-05T06:40:20Z</time>
      </trkpt>
      <trkpt lat="42.31131" lon="-8.6047">
        <ele>110.69</ele>
        <time>2019-06-05T06:40:33Z</time>
      </trkpt>
      <trkpt lat="42.31138" lon="-8.60476">
        <ele>110.21</ele>
        <time>2019-06-05T06:40:44Z</time>
      </trkpt>
      <trkpt lat="42.3115" lon="-8.60483">
        <ele>113.09</ele>
        <time>2019-06-05T06:40:59Z</time>
      </trkpt>
      <trkpt lat="42.3116" lon="-8.60493">
        <ele>114.53</ele>
        <time>2019-06-05T06:41:12Z</time>
      </trkpt>
      <trkpt lat="42.31165" lon="-8.60497">
        <ele>115.01</ele>
        <time>2019-06-05T06:41:18Z</time>
      </trkpt>
      <trkpt lat="42.31169" lon="-8.60502">
        <ele>115.5</ele>
        <time>2019-06-05T06:41:23Z</time>
      </trkpt>
      <trkpt lat="42.31172" lon="-8.60506">
        <ele>116.46</ele>
        <time>2019-06-05T06:41:27Z</time>
      </trkpt>
      <trkpt lat="42.31187" lon="-8.60522">
        <ele>116.46</ele>
        <time>2019-06-05T06:41:43Z</time>
      </trkpt>
      <trkpt lat="42.31194" lon="-8.60533">
        <ele>116.94</ele>
        <time>2019-06-05T06:41:52Z</time>
      </trkpt>
      <trkpt lat="42.312" lon="-8.60541">
        <ele>116.94</ele>
        <time>2019-06-05T06:42:00Z</time>
      </trkpt>
      <trkpt lat="42.31216" lon="-8.60551">
        <ele>117.42</ele>
        <time>2019-06-05T06:42:15Z</time>
      </trkpt>
      <trkpt lat="42.31223" lon="-8.60557">
        <ele>117.42</ele>
        <time>2019-06-05T06:42:23Z</time>
      </trkpt>
      <trkpt lat="42.31232" lon="-8.60563">
        <ele>116.94</ele>
        <time>2019-06-05T06:42:33Z</time>
      </trkpt>
      <trkpt lat="42.31237" lon="-8.60565">
        <ele>117.9</ele>
        <time>2019-06-05T06:42:40Z</time>
      </trkpt>
      <trkpt lat="42.31239" lon="-8.60566">
        <ele>117.42</ele>
        <time>2019-06-05T06:42:42Z</time>
      </trkpt>
      <trkpt lat="42.31253" lon="-8.60576">
        <ele>118.38</ele>
        <time>2019-06-05T06:42:56Z</time>
      </trkpt>
      <trkpt lat="42.31258" lon="-8.60581">
        <ele>118.86</ele>
        <time>2019-06-05T06:43:01Z</time>
      </trkpt>
      <trkpt lat="42.31277" lon="-8.60588">
        <ele>119.34</ele>
        <time>2019-06-05T06:43:16Z</time>
      </trkpt>
      <trkpt lat="42.31284" lon="-8.60593">
        <ele>119.82</ele>
        <time>2019-06-05T06:43:23Z</time>
      </trkpt>
      <trkpt lat="42.31291" lon="-8.60598">
        <ele>120.3</ele>
        <time>2019-06-05T06:43:31Z</time>
      </trkpt>
      <trkpt lat="42.31305" lon="-8.60605">
        <ele>121.74</ele>
        <time>2019-06-05T06:43:43Z</time>
      </trkpt>
      <trkpt lat="42.31307" lon="-8.60606">
        <ele>121.26</ele>
        <time>2019-06-05T06:43:45Z</time>
      </trkpt>
      <trkpt lat="42.31315" lon="-8.60608">
        <ele>121.74</ele>
        <time>2019-06-05T06:43:51Z</time>
      </trkpt>
      <trkpt lat="42.31325" lon="-8.60611">
        <ele>124.15</ele>
        <time>2019-06-05T06:44:03Z</time>
      </trkpt>
      <trkpt lat="42.31336" lon="-8.60617">
        <ele>124.63</ele>
        <time>2019-06-05T06:44:14Z</time>
      </trkpt>
      <trkpt lat="42.31354" lon="-8.60626">
        <ele>126.55</ele>
        <time>2019-06-05T06:44:31Z</time>
      </trkpt>
      <trkpt lat="42.31358" lon="-8.60627">
        <ele>126.55</ele>
        <time>2019-06-05T06:44:34Z</time>
      </trkpt>
      <trkpt lat="42.31369" lon="-8.60627">
        <ele>127.99</ele>
        <time>2019-06-05T06:44:45Z</time>
      </trkpt>
      <trkpt lat="42.31375" lon="-8.60626">
        <ele>128.47</ele>
        <time>2019-06-05T06:44:50Z</time>
      </trkpt>
      <trkpt lat="42.31377" lon="-8.60626">
        <ele>128.47</ele>
        <time>2019-06-05T06:44:52Z</time>
      </trkpt>
      <trkpt lat="42.31391" lon="-8.60627">
        <ele>129.43</ele>
        <time>2019-06-05T06:45:04Z</time>
      </trkpt>
      <trkpt lat="42.31399" lon="-8.60626">
        <ele>129.92</ele>
        <time>2019-06-05T06:45:13Z</time>
      </trkpt>
      <trkpt lat="42.31415" lon="-8.6063">
        <ele>131.36</ele>
        <time>2019-06-05T06:45:27Z</time>
      </trkpt>
      <trkpt lat="42.3142" lon="-8.60632">
        <ele>132.32</ele>
        <time>2019-06-05T06:45:32Z</time>
      </trkpt>
      <trkpt lat="42.31423" lon="-8.60631">
        <ele>131.84</ele>
        <time>2019-06-05T06:45:34Z</time>
      </trkpt>
      <trkpt lat="42.31435" lon="-8.60638">
        <ele>132.32</ele>
        <time>2019-06-05T06:45:46Z</time>
      </trkpt>
      <trkpt lat="42.31438" lon="-8.60641">
        <ele>132.32</ele>
        <time>2019-06-05T06:45:50Z</time>
      </trkpt>
      <trkpt lat="42.31447" lon="-8.6065">
        <ele>133.28</ele>
        <time>2019-06-05T06:46:03Z</time>
      </trkpt>
      <trkpt lat="42.31449" lon="-8.60652">
        <ele>133.76</ele>
        <time>2019-06-05T06:46:06Z</time>
      </trkpt>
      <trkpt lat="42.31463" lon="-8.60662">
        <ele>134.72</ele>
        <time>2019-06-05T06:46:18Z</time>
      </trkpt>
      <trkpt lat="42.31485" lon="-8.60675">
        <ele>135.68</ele>
        <time>2019-06-05T06:46:33Z</time>
      </trkpt>
      <trkpt lat="42.31497" lon="-8.60682">
        <ele>136.16</ele>
        <time>2019-06-05T06:46:45Z</time>
      </trkpt>
      <trkpt lat="42.31498" lon="-8.60683">
        <ele>135.2</ele>
        <time>2019-06-05T06:46:46Z</time>
      </trkpt>
      <trkpt lat="42.315" lon="-8.60686">
        <ele>135.68</ele>
        <time>2019-06-05T06:46:49Z</time>
      </trkpt>
      <trkpt lat="42.31512" lon="-8.607">
        <ele>136.16</ele>
        <time>2019-06-05T06:47:03Z</time>
      </trkpt>
      <trkpt lat="42.31524" lon="-8.60708">
        <ele>136.16</ele>
        <time>2019-06-05T06:47:14Z</time>
      </trkpt>
      <trkpt lat="42.31538" lon="-8.60719">
        <ele>137.61</ele>
        <time>2019-06-05T06:47:27Z</time>
      </trkpt>
      <trkpt lat="42.31549" lon="-8.60728">
        <ele>137.13</ele>
        <time>2019-06-05T06:47:38Z</time>
      </trkpt>
      <trkpt lat="42.31566" lon="-8.60737">
        <ele>137.61</ele>
        <time>2019-06-05T06:47:50Z</time>
      </trkpt>
      <trkpt lat="42.31581" lon="-8.60747">
        <ele>137.61</ele>
        <time>2019-06-05T06:48:02Z</time>
      </trkpt>
      <trkpt lat="42.31588" lon="-8.60749">
        <ele>138.57</ele>
        <time>2019-06-05T06:48:07Z</time>
      </trkpt>
      <trkpt lat="42.31594" lon="-8.60749">
        <ele>137.61</ele>
        <time>2019-06-05T06:48:11Z</time>
      </trkpt>
      <trkpt lat="42.31596" lon="-8.60748">
        <ele>138.09</ele>
        <time>2019-06-05T06:48:13Z</time>
      </trkpt>
      <trkpt lat="42.3161" lon="-8.60744">
        <ele>140.49</ele>
        <time>2019-06-05T06:48:27Z</time>
      </trkpt>
      <trkpt lat="42.31626" lon="-8.60746">
        <ele>142.41</ele>
        <time>2019-06-05T06:48:40Z</time>
      </trkpt>
      <trkpt lat="42.31634" lon="-8.60748">
        <ele>143.37</ele>
        <time>2019-06-05T06:48:55Z</time>
      </trkpt>
      <trkpt lat="42.31634" lon="-8.60744">
        <ele>142.89</ele>
        <time>2019-06-05T06:49:17Z</time>
      </trkpt>
      <trkpt lat="42.3164" lon="-8.60744">
        <ele>142.41</ele>
        <time>2019-06-05T06:49:28Z</time>
      </trkpt>
      <trkpt lat="42.31643" lon="-8.60744">
        <ele>142.41</ele>
        <time>2019-06-05T06:49:30Z</time>
      </trkpt>
      <trkpt lat="42.31658" lon="-8.60748">
        <ele>141.45</ele>
        <time>2019-06-05T06:49:44Z</time>
      </trkpt>
      <trkpt lat="42.31661" lon="-8.60747">
        <ele>140.49</ele>
        <time>2019-06-05T06:49:47Z</time>
      </trkpt>
      <trkpt lat="42.31662" lon="-8.60747">
        <ele>140.49</ele>
        <time>2019-06-05T06:49:48Z</time>
      </trkpt>
      <trkpt lat="42.31668" lon="-8.60746">
        <ele>140.01</ele>
        <time>2019-06-05T06:49:53Z</time>
      </trkpt>
      <trkpt lat="42.3168" lon="-8.60739">
        <ele>140.49</ele>
        <time>2019-06-05T06:50:07Z</time>
      </trkpt>
      <trkpt lat="42.31696" lon="-8.60728">
        <ele>140.01</ele>
        <time>2019-06-05T06:50:20Z</time>
      </trkpt>
      <trkpt lat="42.317" lon="-8.60723">
        <ele>139.53</ele>
        <time>2019-06-05T06:50:24Z</time>
      </trkpt>
      <trkpt lat="42.31708" lon="-8.60719">
        <ele>139.05</ele>
        <time>2019-06-05T06:50:30Z</time>
      </trkpt>
      <trkpt lat="42.31726" lon="-8.60708">
        <ele>139.53</ele>
        <time>2019-06-05T06:50:45Z</time>
      </trkpt>
      <trkpt lat="42.31743" lon="-8.60699">
        <ele>139.53</ele>
        <time>2019-06-05T06:50:58Z</time>
      </trkpt>
      <trkpt lat="42.31757" lon="-8.60692">
        <ele>138.57</ele>
        <time>2019-06-05T06:51:09Z</time>
      </trkpt>
      <trkpt lat="42.31766" lon="-8.60685">
        <ele>138.09</ele>
        <time>2019-06-05T06:51:16Z</time>
      </trkpt>
      <trkpt lat="42.3177" lon="-8.60683">
        <ele>138.09</ele>
        <time>2019-06-05T06:51:19Z</time>
      </trkpt>
      <trkpt lat="42.31784" lon="-8.60667">
        <ele>137.13</ele>
        <time>2019-06-05T06:51:32Z</time>
      </trkpt>
      <trkpt lat="42.31798" lon="-8.60647">
        <ele>136.64</ele>
        <time>2019-06-05T06:51:48Z</time>
      </trkpt>
      <trkpt lat="42.31804" lon="-8.60635">
        <ele>135.2</ele>
        <time>2019-06-05T06:51:56Z</time>
      </trkpt>
      <trkpt lat="42.31815" lon="-8.60621">
        <ele>134.72</ele>
        <time>2019-06-05T06:52:08Z</time>
      </trkpt>
      <trkpt lat="42.31829" lon="-8.60608">
        <ele>133.28</ele>
        <time>2019-06-05T06:52:24Z</time>
      </trkpt>
      <trkpt lat="42.31836" lon="-8.60603">
        <ele>133.28</ele>
        <time>2019-06-05T06:52:32Z</time>
      </trkpt>
      <trkpt lat="42.31852" lon="-8.60604">
        <ele>132.8</ele>
        <time>2019-06-05T06:52:45Z</time>
      </trkpt>
      <trkpt lat="42.31857" lon="-8.60606">
        <ele>132.8</ele>
        <time>2019-06-05T06:52:50Z</time>
      </trkpt>
      <trkpt lat="42.3187" lon="-8.60614">
        <ele>132.8</ele>
        <time>2019-06-05T06:52:58Z</time>
      </trkpt>
      <trkpt lat="42.31884" lon="-8.60619">
        <ele>132.8</ele>
        <time>2019-06-05T06:53:10Z</time>
      </trkpt>
      <trkpt lat="42.31898" lon="-8.60617">
        <ele>132.8</ele>
        <time>2019-06-05T06:53:23Z</time>
      </trkpt>
      <trkpt lat="42.3192" lon="-8.60619">
        <ele>132.32</ele>
        <time>2019-06-05T06:53:37Z</time>
      </trkpt>
      <trkpt lat="42.31927" lon="-8.60616">
        <ele>131.36</ele>
        <time>2019-06-05T06:53:43Z</time>
      </trkpt>
      <trkpt lat="42.31942" lon="-8.60618">
        <ele>130.4</ele>
        <time>2019-06-05T06:53:55Z</time>
      </trkpt>
      <trkpt lat="42.3195" lon="-8.60624">
        <ele>129.92</ele>
        <time>2019-06-05T06:54:02Z</time>
      </trkpt>
      <trkpt lat="42.31955" lon="-8.60625">
        <ele>129.92</ele>
        <time>2019-06-05T06:54:05Z</time>
      </trkpt>
      <trkpt lat="42.31975" lon="-8.60637">
        <ele>127.03</ele>
        <time>2019-06-05T06:54:21Z</time>
      </trkpt>
      <trkpt lat="42.31977" lon="-8.60638">
        <ele>127.03</ele>
        <time>2019-06-05T06:54:23Z</time>
      </trkpt>
      <trkpt lat="42.31984" lon="-8.60643">
        <ele>126.07</ele>
        <time>2019-06-05T06:54:29Z</time>
      </trkpt>
      <trkpt lat="42.3199" lon="-8.60648">
        <ele>125.11</ele>
        <time>2019-06-05T06:54:34Z</time>
      </trkpt>
      <trkpt lat="42.31993" lon="-8.60649">
        <ele>125.11</ele>
        <time>2019-06-05T06:54:36Z</time>
      </trkpt>
      <trkpt lat="42.32007" lon="-8.60661">
        <ele>123.19</ele>
        <time>2019-06-05T06:54:49Z</time>
      </trkpt>
      <trkpt lat="42.3202" lon="-8.60682">
        <ele>121.26</ele>
        <time>2019-06-05T06:55:04Z</time>
      </trkpt>
      <trkpt lat="42.32029" lon="-8.60697">
        <ele>119.34</ele>
        <time>2019-06-05T06:55:18Z</time>
      </trkpt>
      <trkpt lat="42.32038" lon="-8.60711">
        <ele>119.34</ele>
        <time>2019-06-05T06:55:29Z</time>
      </trkpt>
      <trkpt lat="42.32042" lon="-8.60713">
        <ele>117.9</ele>
        <time>2019-06-05T06:55:33Z</time>
      </trkpt>
      <trkpt lat="42.32046" lon="-8.60721">
        <ele>116.46</ele>
        <time>2019-06-05T06:55:39Z</time>
      </trkpt>
      <trkpt lat="42.3205" lon="-8.60725">
        <ele>116.46</ele>
        <time>2019-06-05T06:55:43Z</time>
      </trkpt>
      <trkpt lat="42.32058" lon="-8.60735">
        <ele>115.98</ele>
        <time>2019-06-05T06:55:54Z</time>
      </trkpt>
      <trkpt lat="42.32073" lon="-8.60746">
        <ele>114.05</ele>
        <time>2019-06-05T06:56:07Z</time>
      </trkpt>
      <trkpt lat="42.32093" lon="-8.60756">
        <ele>112.61</ele>
        <time>2019-06-05T06:56:23Z</time>
      </trkpt>
      <trkpt lat="42.32111" lon="-8.60761">
        <ele>109.73</ele>
        <time>2019-06-05T06:56:38Z</time>
      </trkpt>
      <trkpt lat="42.32127" lon="-8.60758">
        <ele>107.81</ele>
        <time>2019-06-05T06:56:51Z</time>
      </trkpt>
      <trkpt lat="42.32136" lon="-8.60755">
        <ele>106.36</ele>
        <time>2019-06-05T06:56:59Z</time>
      </trkpt>
      <trkpt lat="42.32154" lon="-8.6075">
        <ele>104.44</ele>
        <time>2019-06-05T06:57:13Z</time>
      </trkpt>
      <trkpt lat="42.32164" lon="-8.60749">
        <ele>103.96</ele>
        <time>2019-06-05T06:57:24Z</time>
      </trkpt>
      <trkpt lat="42.32167" lon="-8.60747">
        <ele>103.48</ele>
        <time>2019-06-05T06:57:39Z</time>
      </trkpt>
      <trkpt lat="42.32178" lon="-8.60745">
        <ele>101.56</ele>
        <time>2019-06-05T06:57:52Z</time>
      </trkpt>
      <trkpt lat="42.32195" lon="-8.6074">
        <ele>99.63</ele>
        <time>2019-06-05T06:58:06Z</time>
      </trkpt>
      <trkpt lat="42.3221" lon="-8.60736">
        <ele>98.67</ele>
        <time>2019-06-05T06:58:18Z</time>
      </trkpt>
      <trkpt lat="42.32214" lon="-8.60736">
        <ele>98.19</ele>
        <time>2019-06-05T06:58:21Z</time>
      </trkpt>
      <trkpt lat="42.32219" lon="-8.60736">
        <ele>97.23</ele>
        <time>2019-06-05T06:58:26Z</time>
      </trkpt>
      <trkpt lat="42.32231" lon="-8.60733">
        <ele>95.79</ele>
        <time>2019-06-05T06:58:38Z</time>
      </trkpt>
      <trkpt lat="42.32237" lon="-8.60731">
        <ele>95.31</ele>
        <time>2019-06-05T06:58:43Z</time>
      </trkpt>
      <trkpt lat="42.32241" lon="-8.6073">
        <ele>94.83</ele>
        <time>2019-06-05T06:58:46Z</time>
      </trkpt>
      <trkpt lat="42.32243" lon="-8.60729">
        <ele>94.35</ele>
        <time>2019-06-05T06:58:48Z</time>
      </trkpt>
      <trkpt lat="42.32246" lon="-8.60728">
        <ele>93.87</ele>
        <time>2019-06-05T06:58:51Z</time>
      </trkpt>
      <trkpt lat="42.32264" lon="-8.60725">
        <ele>90.5</ele>
        <time>2019-06-05T06:59:06Z</time>
      </trkpt>
      <trkpt lat="42.3227" lon="-8.60724">
        <ele>90.02</ele>
        <time>2019-06-05T06:59:11Z</time>
      </trkpt>
      <trkpt lat="42.32278" lon="-8.60724">
        <ele>88.58</ele>
        <time>2019-06-05T06:59:24Z</time>
      </trkpt>
      <trkpt lat="42.32282" lon="-8.60727">
        <ele>87.62</ele>
        <time>2019-06-05T06:59:34Z</time>
      </trkpt>
      <trkpt lat="42.32285" lon="-8.60725">
        <ele>87.14</ele>
        <time>2019-06-05T06:59:37Z</time>
      </trkpt>
      <trkpt lat="42.32299" lon="-8.60722">
        <ele>84.73</ele>
        <time>2019-06-05T06:59:50Z</time>
      </trkpt>
      <trkpt lat="42.32304" lon="-8.60723">
        <ele>83.29</ele>
        <time>2019-06-05T06:59:54Z</time>
      </trkpt>
      <trkpt lat="42.32315" lon="-8.60723">
        <ele>80.41</ele>
        <time>2019-06-05T07:00:09Z</time>
      </trkpt>
      <trkpt lat="42.32316" lon="-8.60722">
        <ele>80.41</ele>
        <time>2019-06-05T07:00:12Z</time>
      </trkpt>
      <trkpt lat="42.32322" lon="-8.60718">
        <ele>79.45</ele>
        <time>2019-06-05T07:00:18Z</time>
      </trkpt>
      <trkpt lat="42.3233" lon="-8.6072">
        <ele>77.52</ele>
        <time>2019-06-05T07:00:25Z</time>
      </trkpt>
      <trkpt lat="42.32339" lon="-8.60725">
        <ele>77.52</ele>
        <time>2019-06-05T07:00:40Z</time>
      </trkpt>
      <trkpt lat="42.32341" lon="-8.60722">
        <ele>77.52</ele>
        <time>2019-06-05T07:01:08Z</time>
      </trkpt>
      <trkpt lat="42.32346" lon="-8.60721">
        <ele>77.52</ele>
        <time>2019-06-05T07:01:12Z</time>
      </trkpt>
      <trkpt lat="42.32366" lon="-8.60721">
        <ele>78</ele>
        <time>2019-06-05T07:01:28Z</time>
      </trkpt>
      <trkpt lat="42.32375" lon="-8.60718">
        <ele>78</ele>
        <time>2019-06-05T07:01:35Z</time>
      </trkpt>
      <trkpt lat="42.32394" lon="-8.60715">
        <ele>77.04</ele>
        <time>2019-06-05T07:01:49Z</time>
      </trkpt>
      <trkpt lat="42.32399" lon="-8.60713">
        <ele>77.04</ele>
        <time>2019-06-05T07:01:53Z</time>
      </trkpt>
      <trkpt lat="42.32416" lon="-8.60709">
        <ele>75.6</ele>
        <time>2019-06-05T07:02:07Z</time>
      </trkpt>
      <trkpt lat="42.32421" lon="-8.6071">
        <ele>75.12</ele>
        <time>2019-06-05T07:02:11Z</time>
      </trkpt>
      <trkpt lat="42.32429" lon="-8.60711">
        <ele>74.64</ele>
        <time>2019-06-05T07:02:18Z</time>
      </trkpt>
      <trkpt lat="42.32446" lon="-8.60712">
        <ele>73.2</ele>
        <time>2019-06-05T07:02:32Z</time>
      </trkpt>
      <trkpt lat="42.32459" lon="-8.6071">
        <ele>71.27</ele>
        <time>2019-06-05T07:02:41Z</time>
      </trkpt>
      <trkpt lat="42.32482" lon="-8.60701">
        <ele>70.31</ele>
        <time>2019-06-05T07:02:56Z</time>
      </trkpt>
      <trkpt lat="42.32489" lon="-8.60698">
        <ele>69.35</ele>
        <time>2019-06-05T07:03:02Z</time>
      </trkpt>
      <trkpt lat="42.32505" lon="-8.60687">
        <ele>66.47</ele>
        <time>2019-06-05T07:03:18Z</time>
      </trkpt>
      <trkpt lat="42.32521" lon="-8.60678">
        <ele>64.55</ele>
        <time>2019-06-05T07:03:33Z</time>
      </trkpt>
      <trkpt lat="42.32539" lon="-8.60672">
        <ele>62.14</ele>
        <time>2019-06-05T07:03:46Z</time>
      </trkpt>
      <trkpt lat="42.32547" lon="-8.60668">
        <ele>60.7</ele>
        <time>2019-06-05T07:03:56Z</time>
      </trkpt>
      <trkpt lat="42.32554" lon="-8.60657">
        <ele>58.78</ele>
        <time>2019-06-05T07:04:08Z</time>
      </trkpt>
      <trkpt lat="42.32567" lon="-8.60644">
        <ele>57.82</ele>
        <time>2019-06-05T07:04:21Z</time>
      </trkpt>
      <trkpt lat="42.32583" lon="-8.60636">
        <ele>55.41</ele>
        <time>2019-06-05T07:04:33Z</time>
      </trkpt>
      <trkpt lat="42.32595" lon="-8.60627">
        <ele>53.01</ele>
        <time>2019-06-05T07:04:46Z</time>
      </trkpt>
      <trkpt lat="42.32597" lon="-8.60627">
        <ele>53.01</ele>
        <time>2019-06-05T07:04:48Z</time>
      </trkpt>
      <trkpt lat="42.32607" lon="-8.60623">
        <ele>52.05</ele>
        <time>2019-06-05T07:04:57Z</time>
      </trkpt>
      <trkpt lat="42.32623" lon="-8.60627">
        <ele>49.65</ele>
        <time>2019-06-05T07:05:10Z</time>
      </trkpt>
      <trkpt lat="42.32626" lon="-8.60626">
        <ele>49.65</ele>
        <time>2019-06-05T07:05:12Z</time>
      </trkpt>
      <trkpt lat="42.32638" lon="-8.60627">
        <ele>47.24</ele>
        <time>2019-06-05T07:05:22Z</time>
      </trkpt>
      <trkpt lat="42.32651" lon="-8.60624">
        <ele>45.32</ele>
        <time>2019-06-05T07:05:32Z</time>
      </trkpt>
      <trkpt lat="42.32659" lon="-8.60619">
        <ele>44.36</ele>
        <time>2019-06-05T07:05:38Z</time>
      </trkpt>
      <trkpt lat="42.32672" lon="-8.60612">
        <ele>41.47</ele>
        <time>2019-06-05T07:05:50Z</time>
      </trkpt>
      <trkpt lat="42.32678" lon="-8.60602">
        <ele>40.51</ele>
        <time>2019-06-05T07:05:59Z</time>
      </trkpt>
      <trkpt lat="42.32687" lon="-8.60598">
        <ele>39.55</ele>
        <time>2019-06-05T07:06:10Z</time>
      </trkpt>
      <trkpt lat="42.32693" lon="-8.60589">
        <ele>40.51</ele>
        <time>2019-06-05T07:06:22Z</time>
      </trkpt>
      <trkpt lat="42.327" lon="-8.60579">
        <ele>41.47</ele>
        <time>2019-06-05T07:06:34Z</time>
      </trkpt>
      <trkpt lat="42.32701" lon="-8.60576">
        <ele>40.99</ele>
        <time>2019-06-05T07:06:55Z</time>
      </trkpt>
      <trkpt lat="42.32699" lon="-8.60573">
        <ele>41.95</ele>
        <time>2019-06-05T07:07:21Z</time>
      </trkpt>
      <trkpt lat="42.327" lon="-8.60574">
        <ele>42.44</ele>
        <time>2019-06-05T07:07:46Z</time>
      </trkpt>
      <trkpt lat="42.327" lon="-8.60575">
        <ele>41.95</ele>
        <time>2019-06-05T07:07:47Z</time>
      </trkpt>
      <trkpt lat="42.32705" lon="-8.60576">
        <ele>41.47</ele>
        <time>2019-06-05T07:07:58Z</time>
      </trkpt>
      <trkpt lat="42.32714" lon="-8.60575">
        <ele>41.95</ele>
        <time>2019-06-05T07:08:11Z</time>
      </trkpt>
      <trkpt lat="42.32729" lon="-8.60568">
        <ele>41.95</ele>
        <time>2019-06-05T07:08:26Z</time>
      </trkpt>
      <trkpt lat="42.32746" lon="-8.60563">
        <ele>43.4</ele>
        <time>2019-06-05T07:08:40Z</time>
      </trkpt>
      <trkpt lat="42.32759" lon="-8.60566">
        <ele>43.88</ele>
        <time>2019-06-05T07:08:52Z</time>
      </trkpt>
      <trkpt lat="42.32764" lon="-8.60567">
        <ele>43.88</ele>
        <time>2019-06-05T07:08:57Z</time>
      </trkpt>
      <trkpt lat="42.3277" lon="-8.6057">
        <ele>44.84</ele>
        <time>2019-06-05T07:09:04Z</time>
      </trkpt>
      <trkpt lat="42.32789" lon="-8.60572">
        <ele>45.8</ele>
        <time>2019-06-05T07:09:19Z</time>
      </trkpt>
      <trkpt lat="42.32806" lon="-8.60578">
        <ele>47.24</ele>
        <time>2019-06-05T07:09:35Z</time>
      </trkpt>
      <trkpt lat="42.32824" lon="-8.60583">
        <ele>48.2</ele>
        <time>2019-06-05T07:09:51Z</time>
      </trkpt>
      <trkpt lat="42.3283" lon="-8.60584">
        <ele>48.2</ele>
        <time>2019-06-05T07:09:56Z</time>
      </trkpt>
      <trkpt lat="42.32846" lon="-8.6059">
        <ele>48.68</ele>
        <time>2019-06-05T07:10:09Z</time>
      </trkpt>
      <trkpt lat="42.32864" lon="-8.60599">
        <ele>49.65</ele>
        <time>2019-06-05T07:10:23Z</time>
      </trkpt>
      <trkpt lat="42.32873" lon="-8.60602">
        <ele>50.13</ele>
        <time>2019-06-05T07:10:30Z</time>
      </trkpt>
      <trkpt lat="42.32881" lon="-8.60606">
        <ele>50.61</ele>
        <time>2019-06-05T07:10:37Z</time>
      </trkpt>
      <trkpt lat="42.32893" lon="-8.60614">
        <ele>51.09</ele>
        <time>2019-06-05T07:10:49Z</time>
      </trkpt>
      <trkpt lat="42.32908" lon="-8.60624">
        <ele>52.05</ele>
        <time>2019-06-05T07:11:03Z</time>
      </trkpt>
      <trkpt lat="42.32924" lon="-8.60635">
        <ele>53.01</ele>
        <time>2019-06-05T07:11:18Z</time>
      </trkpt>
      <trkpt lat="42.32941" lon="-8.60646">
        <ele>53.97</ele>
        <time>2019-06-05T07:11:34Z</time>
      </trkpt>
      <trkpt lat="42.32955" lon="-8.60655">
        <ele>55.41</ele>
        <time>2019-06-05T07:11:47Z</time>
      </trkpt>
      <trkpt lat="42.32974" lon="-8.60664">
        <ele>55.41</ele>
        <time>2019-06-05T07:12:03Z</time>
      </trkpt>
      <trkpt lat="42.32991" lon="-8.6067">
        <ele>56.86</ele>
        <time>2019-06-05T07:12:17Z</time>
      </trkpt>
      <trkpt lat="42.33005" lon="-8.6067">
        <ele>57.82</ele>
        <time>2019-06-05T07:12:30Z</time>
      </trkpt>
      <trkpt lat="42.33022" lon="-8.60675">
        <ele>59.26</ele>
        <time>2019-06-05T07:12:43Z</time>
      </trkpt>
      <trkpt lat="42.33034" lon="-8.60679">
        <ele>59.74</ele>
        <time>2019-06-05T07:12:53Z</time>
      </trkpt>
      <trkpt lat="42.33038" lon="-8.60683">
        <ele>59.26</ele>
        <time>2019-06-05T07:12:57Z</time>
      </trkpt>
      <trkpt lat="42.33057" lon="-8.60687">
        <ele>60.7</ele>
        <time>2019-06-05T07:13:13Z</time>
      </trkpt>
      <trkpt lat="42.33073" lon="-8.60687">
        <ele>61.66</ele>
        <time>2019-06-05T07:13:27Z</time>
      </trkpt>
      <trkpt lat="42.33091" lon="-8.60688">
        <ele>62.14</ele>
        <time>2019-06-05T07:13:43Z</time>
      </trkpt>
      <trkpt lat="42.33104" lon="-8.60685">
        <ele>63.58</ele>
        <time>2019-06-05T07:13:55Z</time>
      </trkpt>
      <trkpt lat="42.33113" lon="-8.60684">
        <ele>64.07</ele>
        <time>2019-06-05T07:14:03Z</time>
      </trkpt>
      <trkpt lat="42.33127" lon="-8.60683">
        <ele>64.07</ele>
        <time>2019-06-05T07:14:15Z</time>
      </trkpt>
      <trkpt lat="42.33144" lon="-8.60683">
        <ele>65.03</ele>
        <time>2019-06-05T07:14:32Z</time>
      </trkpt>
      <trkpt lat="42.33151" lon="-8.60682">
        <ele>64.55</ele>
        <time>2019-06-05T07:14:39Z</time>
      </trkpt>
      <trkpt lat="42.33162" lon="-8.60683">
        <ele>64.55</ele>
        <time>2019-06-05T07:14:51Z</time>
      </trkpt>
      <trkpt lat="42.33183" lon="-8.60683">
        <ele>64.07</ele>
        <time>2019-06-05T07:15:06Z</time>
      </trkpt>
      <trkpt lat="42.33201" lon="-8.60681">
        <ele>63.1</ele>
        <time>2019-06-05T07:15:20Z</time>
      </trkpt>
      <trkpt lat="42.33212" lon="-8.60677">
        <ele>62.62</ele>
        <time>2019-06-05T07:15:30Z</time>
      </trkpt>
      <trkpt lat="42.33221" lon="-8.60677">
        <ele>62.14</ele>
        <time>2019-06-05T07:15:39Z</time>
      </trkpt>
      <trkpt lat="42.33227" lon="-8.6068">
        <ele>61.66</ele>
        <time>2019-06-05T07:15:44Z</time>
      </trkpt>
      <trkpt lat="42.33234" lon="-8.60681">
        <ele>62.14</ele>
        <time>2019-06-05T07:15:50Z</time>
      </trkpt>
      <trkpt lat="42.33241" lon="-8.60682">
        <ele>61.18</ele>
        <time>2019-06-05T07:15:55Z</time>
      </trkpt>
      <trkpt lat="42.33256" lon="-8.60683">
        <ele>60.22</ele>
        <time>2019-06-05T07:16:09Z</time>
      </trkpt>
      <trkpt lat="42.33255" lon="-8.60684">
        <ele>60.22</ele>
        <time>2019-06-05T07:16:25Z</time>
      </trkpt>
      <trkpt lat="42.33256" lon="-8.60685">
        <ele>59.74</ele>
        <time>2019-06-05T07:16:31Z</time>
      </trkpt>
      <trkpt lat="42.33259" lon="-8.60687">
        <ele>60.22</ele>
        <time>2019-06-05T07:16:34Z</time>
      </trkpt>
      <trkpt lat="42.33268" lon="-8.60689">
        <ele>59.74</ele>
        <time>2019-06-05T07:16:40Z</time>
      </trkpt>
      <trkpt lat="42.33287" lon="-8.60691">
        <ele>58.3</ele>
        <time>2019-06-05T07:16:56Z</time>
      </trkpt>
      <trkpt lat="42.33295" lon="-8.60704">
        <ele>59.74</ele>
        <time>2019-06-05T07:17:09Z</time>
      </trkpt>
      <trkpt lat="42.33295" lon="-8.60705">
        <ele>59.26</ele>
        <time>2019-06-05T07:17:10Z</time>
      </trkpt>
      <trkpt lat="42.33297" lon="-8.60711">
        <ele>59.74</ele>
        <time>2019-06-05T07:17:14Z</time>
      </trkpt>
      <trkpt lat="42.33301" lon="-8.60713">
        <ele>59.74</ele>
        <time>2019-06-05T07:17:18Z</time>
      </trkpt>
      <trkpt lat="42.33308" lon="-8.60724">
        <ele>59.26</ele>
        <time>2019-06-05T07:17:29Z</time>
      </trkpt>
      <trkpt lat="42.33323" lon="-8.60738">
        <ele>58.78</ele>
        <time>2019-06-05T07:17:44Z</time>
      </trkpt>
      <trkpt lat="42.33338" lon="-8.6074">
        <ele>57.34</ele>
        <time>2019-06-05T07:17:58Z</time>
      </trkpt>
      <trkpt lat="42.3335" lon="-8.60739">
        <ele>56.37</ele>
        <time>2019-06-05T07:18:10Z</time>
      </trkpt>
      <trkpt lat="42.33354" lon="-8.60738">
        <ele>56.86</ele>
        <time>2019-06-05T07:18:13Z</time>
      </trkpt>
      <trkpt lat="42.33361" lon="-8.60737">
        <ele>55.89</ele>
        <time>2019-06-05T07:18:19Z</time>
      </trkpt>
      <trkpt lat="42.3338" lon="-8.6074">
        <ele>55.41</ele>
        <time>2019-06-05T07:18:35Z</time>
      </trkpt>
      <trkpt lat="42.33384" lon="-8.60741">
        <ele>54.93</ele>
        <time>2019-06-05T07:18:40Z</time>
      </trkpt>
      <trkpt lat="42.33396" lon="-8.60745">
        <ele>53.49</ele>
        <time>2019-06-05T07:18:52Z</time>
      </trkpt>
      <trkpt lat="42.33402" lon="-8.60743">
        <ele>53.01</ele>
        <time>2019-06-05T07:18:56Z</time>
      </trkpt>
      <trkpt lat="42.33417" lon="-8.6074">
        <ele>51.57</ele>
        <time>2019-06-05T07:19:09Z</time>
      </trkpt>
      <trkpt lat="42.33439" lon="-8.60742">
        <ele>50.61</ele>
        <time>2019-06-05T07:19:25Z</time>
      </trkpt>
      <trkpt lat="42.33444" lon="-8.60741">
        <ele>49.16</ele>
        <time>2019-06-05T07:19:31Z</time>
      </trkpt>
      <trkpt lat="42.33466" lon="-8.60739">
        <ele>47.72</ele>
        <time>2019-06-05T07:19:46Z</time>
      </trkpt>
      <trkpt lat="42.33484" lon="-8.60746">
        <ele>46.28</ele>
        <time>2019-06-05T07:20:00Z</time>
      </trkpt>
      <trkpt lat="42.33493" lon="-8.60753">
        <ele>46.28</ele>
        <time>2019-06-05T07:20:11Z</time>
      </trkpt>
      <trkpt lat="42.33505" lon="-8.60757">
        <ele>46.28</ele>
        <time>2019-06-05T07:20:19Z</time>
      </trkpt>
      <trkpt lat="42.33514" lon="-8.6077">
        <ele>45.8</ele>
        <time>2019-06-05T07:20:32Z</time>
      </trkpt>
      <trkpt lat="42.33517" lon="-8.60774">
        <ele>43.88</ele>
        <time>2019-06-05T07:20:39Z</time>
      </trkpt>
      <trkpt lat="42.3352" lon="-8.60786">
        <ele>40.51</ele>
        <time>2019-06-05T07:20:52Z</time>
      </trkpt>
      <trkpt lat="42.33533" lon="-8.60794">
        <ele>37.63</ele>
        <time>2019-06-05T07:21:04Z</time>
      </trkpt>
      <trkpt lat="42.33534" lon="-8.60794">
        <ele>37.15</ele>
        <time>2019-06-05T07:21:05Z</time>
      </trkpt>
      <trkpt lat="42.33541" lon="-8.60796">
        <ele>36.19</ele>
        <time>2019-06-05T07:21:10Z</time>
      </trkpt>
      <trkpt lat="42.33552" lon="-8.6079">
        <ele>34.74</ele>
        <time>2019-06-05T07:21:18Z</time>
      </trkpt>
      <trkpt lat="42.33555" lon="-8.60787">
        <ele>34.74</ele>
        <time>2019-06-05T07:21:21Z</time>
      </trkpt>
      <trkpt lat="42.33564" lon="-8.60786">
        <ele>34.26</ele>
        <time>2019-06-05T07:21:29Z</time>
      </trkpt>
      <trkpt lat="42.33568" lon="-8.60784">
        <ele>34.26</ele>
        <time>2019-06-05T07:21:32Z</time>
      </trkpt>
      <trkpt lat="42.33575" lon="-8.60781">
        <ele>33.3</ele>
        <time>2019-06-05T07:21:48Z</time>
      </trkpt>
      <trkpt lat="42.33578" lon="-8.6078">
        <ele>33.78</ele>
        <time>2019-06-05T07:21:56Z</time>
      </trkpt>
      <trkpt lat="42.33589" lon="-8.60772">
        <ele>33.78</ele>
        <time>2019-06-05T07:22:09Z</time>
      </trkpt>
      <trkpt lat="42.33592" lon="-8.60767">
        <ele>33.78</ele>
        <time>2019-06-05T07:22:14Z</time>
      </trkpt>
      <trkpt lat="42.33604" lon="-8.60749">
        <ele>36.67</ele>
        <time>2019-06-05T07:22:31Z</time>
      </trkpt>
      <trkpt lat="42.33615" lon="-8.60736">
        <ele>39.07</ele>
        <time>2019-06-05T07:22:47Z</time>
      </trkpt>
      <trkpt lat="42.33617" lon="-8.60736">
        <ele>38.59</ele>
        <time>2019-06-05T07:22:49Z</time>
      </trkpt>
      <trkpt lat="42.33634" lon="-8.60743">
        <ele>37.15</ele>
        <time>2019-06-05T07:23:04Z</time>
      </trkpt>
      <trkpt lat="42.33641" lon="-8.60744">
        <ele>37.15</ele>
        <time>2019-06-05T07:23:12Z</time>
      </trkpt>
      <trkpt lat="42.33641" lon="-8.60729">
        <ele>36.67</ele>
        <time>2019-06-05T07:23:24Z</time>
      </trkpt>
      <trkpt lat="42.3364" lon="-8.60727">
        <ele>37.15</ele>
        <time>2019-06-05T07:23:37Z</time>
      </trkpt>
      <trkpt lat="42.33637" lon="-8.60725">
        <ele>37.15</ele>
        <time>2019-06-05T07:23:48Z</time>
      </trkpt>
      <trkpt lat="42.33634" lon="-8.6072">
        <ele>38.59</ele>
        <time>2019-06-05T07:23:56Z</time>
      </trkpt>
      <trkpt lat="42.33638" lon="-8.60706">
        <ele>39.55</ele>
        <time>2019-06-05T07:24:07Z</time>
      </trkpt>
      <trkpt lat="42.33642" lon="-8.60694">
        <ele>40.51</ele>
        <time>2019-06-05T07:24:15Z</time>
      </trkpt>
      <trkpt lat="42.3365" lon="-8.60677">
        <ele>40.99</ele>
        <time>2019-06-05T07:24:30Z</time>
      </trkpt>
      <trkpt lat="42.33662" lon="-8.60667">
        <ele>42.44</ele>
        <time>2019-06-05T07:24:43Z</time>
      </trkpt>
      <trkpt lat="42.33664" lon="-8.60667">
        <ele>42.44</ele>
        <time>2019-06-05T07:24:44Z</time>
      </trkpt>
      <trkpt lat="42.3367" lon="-8.60667">
        <ele>42.44</ele>
        <time>2019-06-05T07:24:51Z</time>
      </trkpt>
      <trkpt lat="42.33675" lon="-8.60665">
        <ele>42.44</ele>
        <time>2019-06-05T07:24:55Z</time>
      </trkpt>
      <trkpt lat="42.33691" lon="-8.60664">
        <ele>42.92</ele>
        <time>2019-06-05T07:25:09Z</time>
      </trkpt>
      <trkpt lat="42.33709" lon="-8.60659">
        <ele>42.92</ele>
        <time>2019-06-05T07:25:21Z</time>
      </trkpt>
      <trkpt lat="42.33729" lon="-8.6066">
        <ele>42.92</ele>
        <time>2019-06-05T07:25:35Z</time>
      </trkpt>
      <trkpt lat="42.33745" lon="-8.60665">
        <ele>42.92</ele>
        <time>2019-06-05T07:25:49Z</time>
      </trkpt>
      <trkpt lat="42.33762" lon="-8.60658">
        <ele>41.47</ele>
        <time>2019-06-05T07:26:03Z</time>
      </trkpt>
      <trkpt lat="42.33772" lon="-8.60656">
        <ele>40.99</ele>
        <time>2019-06-05T07:26:12Z</time>
      </trkpt>
      <trkpt lat="42.33778" lon="-8.60653">
        <ele>40.51</ele>
        <time>2019-06-05T07:26:17Z</time>
      </trkpt>
      <trkpt lat="42.33797" lon="-8.60649">
        <ele>39.55</ele>
        <time>2019-06-05T07:26:31Z</time>
      </trkpt>
      <trkpt lat="42.33812" lon="-8.6065">
        <ele>37.15</ele>
        <time>2019-06-05T07:26:46Z</time>
      </trkpt>
      <trkpt lat="42.33813" lon="-8.60649">
        <ele>36.67</ele>
        <time>2019-06-05T07:26:49Z</time>
      </trkpt>
      <trkpt lat="42.33832" lon="-8.60649">
        <ele>35.23</ele>
        <time>2019-06-05T07:27:02Z</time>
      </trkpt>
      <trkpt lat="42.33852" lon="-8.60652">
        <ele>33.3</ele>
        <time>2019-06-05T07:27:18Z</time>
      </trkpt>
      <trkpt lat="42.33866" lon="-8.60646">
        <ele>32.82</ele>
        <time>2019-06-05T07:27:28Z</time>
      </trkpt>
      <trkpt lat="42.33875" lon="-8.60644">
        <ele>33.3</ele>
        <time>2019-06-05T07:27:34Z</time>
      </trkpt>
      <trkpt lat="42.33885" lon="-8.60644">
        <ele>32.82</ele>
        <time>2019-06-05T07:27:42Z</time>
      </trkpt>
      <trkpt lat="42.33905" lon="-8.60646">
        <ele>33.3</ele>
        <time>2019-06-05T07:27:58Z</time>
      </trkpt>
      <trkpt lat="42.33911" lon="-8.6065">
        <ele>33.3</ele>
        <time>2019-06-05T07:28:03Z</time>
      </trkpt>
      <trkpt lat="42.33926" lon="-8.6066">
        <ele>33.3</ele>
        <time>2019-06-05T07:28:16Z</time>
      </trkpt>
      <trkpt lat="42.33931" lon="-8.60662">
        <ele>33.3</ele>
        <time>2019-06-05T07:28:22Z</time>
      </trkpt>
      <trkpt lat="42.3394" lon="-8.6066">
        <ele>33.3</ele>
        <time>2019-06-05T07:28:34Z</time>
      </trkpt>
      <trkpt lat="42.3395" lon="-8.60664">
        <ele>32.82</ele>
        <time>2019-06-05T07:28:41Z</time>
      </trkpt>
      <trkpt lat="42.33963" lon="-8.60663">
        <ele>32.34</ele>
        <time>2019-06-05T07:28:51Z</time>
      </trkpt>
      <trkpt lat="42.33982" lon="-8.60659">
        <ele>31.38</ele>
        <time>2019-06-05T07:29:06Z</time>
      </trkpt>
      <trkpt lat="42.33988" lon="-8.60664">
        <ele>30.9</ele>
        <time>2019-06-05T07:29:10Z</time>
      </trkpt>
      <trkpt lat="42.33996" lon="-8.60674">
        <ele>30.9</ele>
        <time>2019-06-05T07:29:17Z</time>
      </trkpt>
      <trkpt lat="42.34014" lon="-8.60687">
        <ele>30.42</ele>
        <time>2019-06-05T07:29:32Z</time>
      </trkpt>
      <trkpt lat="42.34022" lon="-8.60693">
        <ele>29.46</ele>
        <time>2019-06-05T07:29:46Z</time>
      </trkpt>
      <trkpt lat="42.34043" lon="-8.60703">
        <ele>26.57</ele>
        <time>2019-06-05T07:30:04Z</time>
      </trkpt>
      <trkpt lat="42.34047" lon="-8.60704">
        <ele>26.57</ele>
        <time>2019-06-05T07:30:07Z</time>
      </trkpt>
      <trkpt lat="42.34067" lon="-8.6071">
        <ele>25.61</ele>
        <time>2019-06-05T07:30:22Z</time>
      </trkpt>
      <trkpt lat="42.3408" lon="-8.60712">
        <ele>24.65</ele>
        <time>2019-06-05T07:30:32Z</time>
      </trkpt>
      <trkpt lat="42.34089" lon="-8.60735">
        <ele>22.73</ele>
        <time>2019-06-05T07:30:48Z</time>
      </trkpt>
      <trkpt lat="42.34093" lon="-8.60749">
        <ele>21.77</ele>
        <time>2019-06-05T07:31:02Z</time>
      </trkpt>
      <trkpt lat="42.34097" lon="-8.60768">
        <ele>21.77</ele>
        <time>2019-06-05T07:31:15Z</time>
      </trkpt>
      <trkpt lat="42.34099" lon="-8.60786">
        <ele>21.77</ele>
        <time>2019-06-05T07:31:27Z</time>
      </trkpt>
      <trkpt lat="42.34101" lon="-8.60803">
        <ele>21.29</ele>
        <time>2019-06-05T07:31:41Z</time>
      </trkpt>
      <trkpt lat="42.34111" lon="-8.60817">
        <ele>20.81</ele>
        <time>2019-06-05T07:31:55Z</time>
      </trkpt>
      <trkpt lat="42.34123" lon="-8.60833">
        <ele>20.32</ele>
        <time>2019-06-05T07:32:09Z</time>
      </trkpt>
      <trkpt lat="42.34124" lon="-8.60834">
        <ele>20.32</ele>
        <time>2019-06-05T07:32:10Z</time>
      </trkpt>
      <trkpt lat="42.34127" lon="-8.60838">
        <ele>19.84</ele>
        <time>2019-06-05T07:32:13Z</time>
      </trkpt>
      <trkpt lat="42.34131" lon="-8.60837">
        <ele>19.36</ele>
        <time>2019-06-05T07:32:16Z</time>
      </trkpt>
      <trkpt lat="42.34135" lon="-8.60839">
        <ele>19.36</ele>
        <time>2019-06-05T07:32:19Z</time>
      </trkpt>
      <trkpt lat="42.3415" lon="-8.6086">
        <ele>18.4</ele>
        <time>2019-06-05T07:32:33Z</time>
      </trkpt>
      <trkpt lat="42.34162" lon="-8.60867">
        <ele>18.4</ele>
        <time>2019-06-05T07:32:48Z</time>
      </trkpt>
      <trkpt lat="42.3418" lon="-8.60869">
        <ele>16.96</ele>
        <time>2019-06-05T07:33:01Z</time>
      </trkpt>
      <trkpt lat="42.34198" lon="-8.60873">
        <ele>16</ele>
        <time>2019-06-05T07:33:14Z</time>
      </trkpt>
      <trkpt lat="42.34213" lon="-8.60892">
        <ele>15.04</ele>
        <time>2019-06-05T07:33:27Z</time>
      </trkpt>
      <trkpt lat="42.34214" lon="-8.60892">
        <ele>15.04</ele>
        <time>2019-06-05T07:33:39Z</time>
      </trkpt>
      <trkpt lat="42.34219" lon="-8.60893">
        <ele>15.52</ele>
        <time>2019-06-05T07:33:47Z</time>
      </trkpt>
      <trkpt lat="42.34228" lon="-8.60894">
        <ele>16</ele>
        <time>2019-06-05T07:34:00Z</time>
      </trkpt>
      <trkpt lat="42.34243" lon="-8.60898">
        <ele>15.52</ele>
        <time>2019-06-05T07:34:11Z</time>
      </trkpt>
      <trkpt lat="42.34254" lon="-8.60904">
        <ele>15.04</ele>
        <time>2019-06-05T07:34:24Z</time>
      </trkpt>
      <trkpt lat="42.34255" lon="-8.60905">
        <ele>15.04</ele>
        <time>2019-06-05T07:34:25Z</time>
      </trkpt>
      <trkpt lat="42.34267" lon="-8.609">
        <ele>15.52</ele>
        <time>2019-06-05T07:34:35Z</time>
      </trkpt>
      <trkpt lat="42.34279" lon="-8.6089">
        <ele>14.56</ele>
        <time>2019-06-05T07:34:47Z</time>
      </trkpt>
      <trkpt lat="42.34283" lon="-8.60889">
        <ele>14.56</ele>
        <time>2019-06-05T07:34:50Z</time>
      </trkpt>
      <trkpt lat="42.34294" lon="-8.60893">
        <ele>14.08</ele>
        <time>2019-06-05T07:35:01Z</time>
      </trkpt>
      <trkpt lat="42.34309" lon="-8.60899">
        <ele>13.12</ele>
        <time>2019-06-05T07:35:14Z</time>
      </trkpt>
      <trkpt lat="42.34332" lon="-8.60888">
        <ele>11.67</ele>
        <time>2019-06-05T07:35:26Z</time>
      </trkpt>
      <trkpt lat="42.3434" lon="-8.60879">
        <ele>10.71</ele>
        <time>2019-06-05T07:35:37Z</time>
      </trkpt>
      <trkpt lat="42.34351" lon="-8.60869">
        <ele>9.75</ele>
        <time>2019-06-05T07:35:48Z</time>
      </trkpt>
      <trkpt lat="42.34352" lon="-8.60867">
        <ele>8.31</ele>
        <time>2019-06-05T07:35:50Z</time>
      </trkpt>
      <trkpt lat="42.3436" lon="-8.60862">
        <ele>6.87</ele>
        <time>2019-06-05T07:35:57Z</time>
      </trkpt>
      <trkpt lat="42.34364" lon="-8.60859">
        <ele>6.39</ele>
        <time>2019-06-05T07:36:00Z</time>
      </trkpt>
      <trkpt lat="42.34374" lon="-8.60846">
        <ele>4.94</ele>
        <time>2019-06-05T07:36:11Z</time>
      </trkpt>
      <trkpt lat="42.34378" lon="-8.60839">
        <ele>5.42</ele>
        <time>2019-06-05T07:36:15Z</time>
      </trkpt>
      <trkpt lat="42.34397" lon="-8.60823">
        <ele>5.42</ele>
        <time>2019-06-05T07:36:30Z</time>
      </trkpt>
      <trkpt lat="42.34409" lon="-8.60813">
        <ele>5.42</ele>
        <time>2019-06-05T07:36:41Z</time>
      </trkpt>
      <trkpt lat="42.3441" lon="-8.60811">
        <ele>4.94</ele>
        <time>2019-06-05T07:36:43Z</time>
      </trkpt>
      <trkpt lat="42.34416" lon="-8.60802">
        <ele>6.39</ele>
        <time>2019-06-05T07:36:57Z</time>
      </trkpt>
      <trkpt lat="42.3442" lon="-8.60788">
        <ele>7.83</ele>
        <time>2019-06-05T07:37:08Z</time>
      </trkpt>
      <trkpt lat="42.34422" lon="-8.60781">
        <ele>7.83</ele>
        <time>2019-06-05T07:37:12Z</time>
      </trkpt>
      <trkpt lat="42.34426" lon="-8.60768">
        <ele>8.31</ele>
        <time>2019-06-05T07:37:24Z</time>
      </trkpt>
      <trkpt lat="42.34434" lon="-8.60751">
        <ele>9.27</ele>
        <time>2019-06-05T07:37:37Z</time>
      </trkpt>
      <trkpt lat="42.3444" lon="-8.60746">
        <ele>9.27</ele>
        <time>2019-06-05T07:37:47Z</time>
      </trkpt>
      <trkpt lat="42.34449" lon="-8.60748">
        <ele>7.83</ele>
        <time>2019-06-05T07:37:55Z</time>
      </trkpt>
      <trkpt lat="42.34458" lon="-8.6075">
        <ele>7.83</ele>
        <time>2019-06-05T07:37:59Z</time>
      </trkpt>
      <trkpt lat="42.34478" lon="-8.60748">
        <ele>6.39</ele>
        <time>2019-06-05T07:38:13Z</time>
      </trkpt>
      <trkpt lat="42.3449" lon="-8.60737">
        <ele>4.94</ele>
        <time>2019-06-05T07:38:24Z</time>
      </trkpt>
      <trkpt lat="42.34504" lon="-8.60724">
        <ele>3.5</ele>
        <time>2019-06-05T07:38:40Z</time>
      </trkpt>
      <trkpt lat="42.3451" lon="-8.60723">
        <ele>3.02</ele>
        <time>2019-06-05T07:38:57Z</time>
      </trkpt>
      <trkpt lat="42.34517" lon="-8.6072">
        <ele>3.02</ele>
        <time>2019-06-05T07:39:12Z</time>
      </trkpt>
      <trkpt lat="42.34526" lon="-8.60704">
        <ele>3.02</ele>
        <time>2019-06-05T07:39:25Z</time>
      </trkpt>
      <trkpt lat="42.34534" lon="-8.60692">
        <ele>2.54</ele>
        <time>2019-06-05T07:39:39Z</time>
      </trkpt>
      <trkpt lat="42.34535" lon="-8.60694">
        <ele>2.54</ele>
        <time>2019-06-05T07:39:52Z</time>
      </trkpt>
      <trkpt lat="42.34531" lon="-8.60694">
        <ele>3.02</ele>
        <time>2019-06-05T07:40:05Z</time>
      </trkpt>
      <trkpt lat="42.34531" lon="-8.60696">
        <ele>2.54</ele>
        <time>2019-06-05T07:40:25Z</time>
      </trkpt>
      <trkpt lat="42.34529" lon="-8.60703">
        <ele>3.02</ele>
        <time>2019-06-05T07:40:38Z</time>
      </trkpt>
      <trkpt lat="42.34526" lon="-8.6071">
        <ele>3.02</ele>
        <time>2019-06-05T07:40:55Z</time>
      </trkpt>
      <trkpt lat="42.34529" lon="-8.60709">
        <ele>3.02</ele>
        <time>2019-06-05T07:41:14Z</time>
      </trkpt>
      <trkpt lat="42.34533" lon="-8.60701">
        <ele>3.02</ele>
        <time>2019-06-05T07:41:20Z</time>
      </trkpt>
      <trkpt lat="42.34538" lon="-8.60694">
        <ele>3.02</ele>
        <time>2019-06-05T07:41:27Z</time>
      </trkpt>
      <trkpt lat="42.34546" lon="-8.60692">
        <ele>3.02</ele>
        <time>2019-06-05T07:41:33Z</time>
      </trkpt>
      <trkpt lat="42.34548" lon="-8.60692">
        <ele>3.02</ele>
        <time>2019-06-05T07:41:48Z</time>
      </trkpt>
      <trkpt lat="42.3455" lon="-8.60691">
        <ele>3.5</ele>
        <time>2019-06-05T07:42:04Z</time>
      </trkpt>
      <trkpt lat="42.3455" lon="-8.60691">
        <ele>3.5</ele>
        <time>2019-06-05T07:42:27Z</time>
      </trkpt>
      <trkpt lat="42.34548" lon="-8.6069">
        <ele>3.02</ele>
        <time>2019-06-05T07:42:40Z</time>
      </trkpt>
      <trkpt lat="42.34548" lon="-8.6069">
        <ele>3.02</ele>
        <time>2019-06-05T07:42:45Z</time>
      </trkpt>
      <trkpt lat="42.3455" lon="-8.60691">
        <ele>3.5</ele>
        <time>2019-06-05T07:42:47Z</time>
      </trkpt>
      <trkpt lat="42.34557" lon="-8.6069">
        <ele>3.02</ele>
        <time>2019-06-05T07:42:53Z</time>
      </trkpt>
      <trkpt lat="42.34579" lon="-8.60686">
        <ele>2.54</ele>
        <time>2019-06-05T07:43:10Z</time>
      </trkpt>
      <trkpt lat="42.34601" lon="-8.60682">
        <ele>2.54</ele>
        <time>2019-06-05T07:43:28Z</time>
      </trkpt>
      <trkpt lat="42.3462" lon="-8.60679">
        <ele>2.54</ele>
        <time>2019-06-05T07:43:43Z</time>
      </trkpt>
      <trkpt lat="42.34641" lon="-8.60675">
        <ele>2.06</ele>
        <time>2019-06-05T07:44:00Z</time>
      </trkpt>
      <trkpt lat="42.34659" lon="-8.60672">
        <ele>2.06</ele>
        <time>2019-06-05T07:44:14Z</time>
      </trkpt>
      <trkpt lat="42.34661" lon="-8.60665">
        <ele>1.1</ele>
        <time>2019-06-05T07:44:27Z</time>
      </trkpt>
      <trkpt lat="42.3466" lon="-8.60661">
        <ele>0.62</ele>
        <time>2019-06-05T07:44:45Z</time>
      </trkpt>
      <trkpt lat="42.3466" lon="-8.60659">
        <ele>0.62</ele>
        <time>2019-06-05T07:44:51Z</time>
      </trkpt>
      <trkpt lat="42.34658" lon="-8.60651">
        <ele>0.62</ele>
        <time>2019-06-05T07:45:00Z</time>
      </trkpt>
      <trkpt lat="42.34656" lon="-8.60647">
        <ele>0.14</ele>
        <time>2019-06-05T07:45:22Z</time>
      </trkpt>
      <trkpt lat="42.34655" lon="-8.60646">
        <ele>0.14</ele>
        <time>2019-06-05T07:45:32Z</time>
      </trkpt>
      <trkpt lat="42.34656" lon="-8.60644">
        <ele>0.14</ele>
        <time>2019-06-05T07:45:47Z</time>
      </trkpt>
      <trkpt lat="42.34664" lon="-8.60645">
        <ele>0.62</ele>
        <time>2019-06-05T07:45:59Z</time>
      </trkpt>
      <trkpt lat="42.34665" lon="-8.60646">
        <ele>0.62</ele>
        <time>2019-06-05T07:46:08Z</time>
      </trkpt>
      <trkpt lat="42.34669" lon="-8.60647">
        <ele>0.62</ele>
        <time>2019-06-05T07:46:10Z</time>
      </trkpt>
      <trkpt lat="42.34676" lon="-8.60644">
        <ele>0.62</ele>
        <time>2019-06-05T07:46:12Z</time>
      </trkpt>
      <trkpt lat="42.34678" lon="-8.60659">
        <ele>1.58</ele>
        <time>2019-06-05T07:46:25Z</time>
      </trkpt>
      <trkpt lat="42.34679" lon="-8.60665">
        <ele>1.58</ele>
        <time>2019-06-05T07:46:29Z</time>
      </trkpt>
      <trkpt lat="42.3468" lon="-8.60669">
        <ele>1.58</ele>
        <time>2019-06-05T07:46:32Z</time>
      </trkpt>
      <trkpt lat="42.34679" lon="-8.60673">
        <ele>1.58</ele>
        <time>2019-06-05T07:46:34Z</time>
      </trkpt>
      <trkpt lat="42.34685" lon="-8.60685">
        <ele>1.1</ele>
        <time>2019-06-05T07:46:45Z</time>
      </trkpt>
      <trkpt lat="42.34686" lon="-8.60689">
        <ele>1.58</ele>
        <time>2019-06-05T07:46:48Z</time>
      </trkpt>
      <trkpt lat="42.34688" lon="-8.60698">
        <ele>2.06</ele>
        <time>2019-06-05T07:46:59Z</time>
      </trkpt>
      <trkpt lat="42.34691" lon="-8.60701">
        <ele>2.06</ele>
        <time>2019-06-05T07:47:03Z</time>
      </trkpt>
      <trkpt lat="42.34693" lon="-8.60703">
        <ele>2.54</ele>
        <time>2019-06-05T07:47:06Z</time>
      </trkpt>
      <trkpt lat="42.34691" lon="-8.60719">
        <ele>3.98</ele>
        <time>2019-06-05T07:47:21Z</time>
      </trkpt>
      <trkpt lat="42.34695" lon="-8.60742">
        <ele>5.91</ele>
        <time>2019-06-05T07:47:36Z</time>
      </trkpt>
      <trkpt lat="42.34697" lon="-8.60753">
        <ele>5.91</ele>
        <time>2019-06-05T07:47:48Z</time>
      </trkpt>
      <trkpt lat="42.34697" lon="-8.60753">
        <ele>7.83</ele>
        <time>2019-06-05T07:48:05Z</time>
      </trkpt>
      <trkpt lat="42.34701" lon="-8.60744">
        <ele>8.31</ele>
        <time>2019-06-05T07:48:24Z</time>
      </trkpt>
      <trkpt lat="42.34706" lon="-8.6074">
        <ele>9.75</ele>
        <time>2019-06-05T07:48:33Z</time>
      </trkpt>
      <trkpt lat="42.34713" lon="-8.60741">
        <ele>11.67</ele>
        <time>2019-06-05T07:48:41Z</time>
      </trkpt>
      <trkpt lat="42.3473" lon="-8.60738">
        <ele>13.12</ele>
        <time>2019-06-05T07:48:56Z</time>
      </trkpt>
      <trkpt lat="42.34732" lon="-8.6075">
        <ele>14.56</ele>
        <time>2019-06-05T07:49:08Z</time>
      </trkpt>
      <trkpt lat="42.34731" lon="-8.60761">
        <ele>16.96</ele>
        <time>2019-06-05T07:49:21Z</time>
      </trkpt>
      <trkpt lat="42.34731" lon="-8.60764">
        <ele>17.92</ele>
        <time>2019-06-05T07:49:25Z</time>
      </trkpt>
      <trkpt lat="42.34735" lon="-8.60767">
        <ele>20.32</ele>
        <time>2019-06-05T07:49:39Z</time>
      </trkpt>
      <trkpt lat="42.34752" lon="-8.60778">
        <ele>21.29</ele>
        <time>2019-06-05T07:49:52Z</time>
      </trkpt>
      <trkpt lat="42.34755" lon="-8.60779">
        <ele>21.29</ele>
        <time>2019-06-05T07:49:56Z</time>
      </trkpt>
      <trkpt lat="42.34769" lon="-8.60784">
        <ele>20.81</ele>
        <time>2019-06-05T07:50:12Z</time>
      </trkpt>
      <trkpt lat="42.34784" lon="-8.60783">
        <ele>18.88</ele>
        <time>2019-06-05T07:50:25Z</time>
      </trkpt>
      <trkpt lat="42.348" lon="-8.6078">
        <ele>15.52</ele>
        <time>2019-06-05T07:50:40Z</time>
      </trkpt>
      <trkpt lat="42.3481" lon="-8.60782">
        <ele>14.56</ele>
        <time>2019-06-05T07:50:48Z</time>
      </trkpt>
      <trkpt lat="42.3482" lon="-8.60784">
        <ele>13.12</ele>
        <time>2019-06-05T07:50:55Z</time>
      </trkpt>
      <trkpt lat="42.34822" lon="-8.6079">
        <ele>12.63</ele>
        <time>2019-06-05T07:51:08Z</time>
      </trkpt>
      <trkpt lat="42.34821" lon="-8.60792">
        <ele>12.63</ele>
        <time>2019-06-05T07:51:24Z</time>
      </trkpt>
      <trkpt lat="42.34824" lon="-8.60794">
        <ele>12.15</ele>
        <time>2019-06-05T07:51:38Z</time>
      </trkpt>
      <trkpt lat="42.34829" lon="-8.60796">
        <ele>12.15</ele>
        <time>2019-06-05T07:52:02Z</time>
      </trkpt>
      <trkpt lat="42.34828" lon="-8.60793">
        <ele>12.63</ele>
        <time>2019-06-05T07:52:31Z</time>
      </trkpt>
      <trkpt lat="42.34827" lon="-8.60792">
        <ele>13.12</ele>
        <time>2019-06-05T07:53:00Z</time>
      </trkpt>
      <trkpt lat="42.34829" lon="-8.60793">
        <ele>14.08</ele>
        <time>2019-06-05T07:53:24Z</time>
      </trkpt>
      <trkpt lat="42.34829" lon="-8.60792">
        <ele>14.56</ele>
        <time>2019-06-05T07:53:37Z</time>
      </trkpt>
      <trkpt lat="42.34828" lon="-8.60794">
        <ele>9.27</ele>
        <time>2019-06-05T07:53:43Z</time>
      </trkpt>
      <trkpt lat="42.34828" lon="-8.60794">
        <ele>16</ele>
        <time>2019-06-05T07:53:44Z</time>
      </trkpt>
      <trkpt lat="42.3483" lon="-8.60797">
        <ele>14.08</ele>
        <time>2019-06-05T07:53:51Z</time>
      </trkpt>
      <trkpt lat="42.34834" lon="-8.60806">
        <ele>13.12</ele>
        <time>2019-06-05T07:53:57Z</time>
      </trkpt>
      <trkpt lat="42.34842" lon="-8.60822">
        <ele>10.71</ele>
        <time>2019-06-05T07:54:07Z</time>
      </trkpt>
      <trkpt lat="42.34845" lon="-8.60828">
        <ele>10.23</ele>
        <time>2019-06-05T07:54:12Z</time>
      </trkpt>
      <trkpt lat="42.34848" lon="-8.60835">
        <ele>9.27</ele>
        <time>2019-06-05T07:54:19Z</time>
      </trkpt>
      <trkpt lat="42.3485" lon="-8.60842">
        <ele>8.79</ele>
        <time>2019-06-05T07:54:23Z</time>
      </trkpt>
      <trkpt lat="42.34856" lon="-8.60858">
        <ele>7.35</ele>
        <time>2019-06-05T07:54:32Z</time>
      </trkpt>
      <trkpt lat="42.34868" lon="-8.60853">
        <ele>3.98</ele>
        <time>2019-06-05T07:54:44Z</time>
      </trkpt>
      <trkpt lat="42.34875" lon="-8.60853">
        <ele>3.5</ele>
        <time>2019-06-05T07:54:50Z</time>
      </trkpt>
      <trkpt lat="42.34893" lon="-8.60846">
        <ele>3.02</ele>
        <time>2019-06-05T07:55:04Z</time>
      </trkpt>
      <trkpt lat="42.34911" lon="-8.60844">
        <ele>1.58</ele>
        <time>2019-06-05T07:55:19Z</time>
      </trkpt>
      <trkpt lat="42.34931" lon="-8.60842">
        <ele>1.58</ele>
        <time>2019-06-05T07:55:34Z</time>
      </trkpt>
      <trkpt lat="42.3494" lon="-8.6084">
        <ele>2.06</ele>
        <time>2019-06-05T07:55:41Z</time>
      </trkpt>
      <trkpt lat="42.34955" lon="-8.60833">
        <ele>2.06</ele>
        <time>2019-06-05T07:55:53Z</time>
      </trkpt>
      <trkpt lat="42.34971" lon="-8.60821">
        <ele>2.06</ele>
        <time>2019-06-05T07:56:09Z</time>
      </trkpt>
      <trkpt lat="42.34974" lon="-8.6082">
        <ele>2.06</ele>
        <time>2019-06-05T07:56:13Z</time>
      </trkpt>
      <trkpt lat="42.34983" lon="-8.6083">
        <ele>3.02</ele>
        <time>2019-06-05T07:56:23Z</time>
      </trkpt>
      <trkpt lat="42.34984" lon="-8.6085">
        <ele>4.46</ele>
        <time>2019-06-05T07:56:36Z</time>
      </trkpt>
      <trkpt lat="42.34986" lon="-8.60862">
        <ele>5.42</ele>
        <time>2019-06-05T07:56:45Z</time>
      </trkpt>
      <trkpt lat="42.34986" lon="-8.60869">
        <ele>5.91</ele>
        <time>2019-06-05T07:56:49Z</time>
      </trkpt>
      <trkpt lat="42.34985" lon="-8.60872">
        <ele>5.91</ele>
        <time>2019-06-05T07:56:51Z</time>
      </trkpt>
      <trkpt lat="42.34983" lon="-8.60881">
        <ele>6.39</ele>
        <time>2019-06-05T07:56:57Z</time>
      </trkpt>
      <trkpt lat="42.34974" lon="-8.60899">
        <ele>7.83</ele>
        <time>2019-06-05T07:57:13Z</time>
      </trkpt>
      <trkpt lat="42.34963" lon="-8.60909">
        <ele>9.27</ele>
        <time>2019-06-05T07:57:26Z</time>
      </trkpt>
      <trkpt lat="42.34945" lon="-8.60917">
        <ele>12.15</ele>
        <time>2019-06-05T07:57:44Z</time>
      </trkpt>
      <trkpt lat="42.34949" lon="-8.60927">
        <ele>14.08</ele>
        <time>2019-06-05T07:57:56Z</time>
      </trkpt>
      <trkpt lat="42.34953" lon="-8.6094">
        <ele>16.96</ele>
        <time>2019-06-05T07:58:10Z</time>
      </trkpt>
      <trkpt lat="42.34956" lon="-8.60954">
        <ele>18.88</ele>
        <time>2019-06-05T07:58:23Z</time>
      </trkpt>
      <trkpt lat="42.34959" lon="-8.60957">
        <ele>18.88</ele>
        <time>2019-06-05T07:58:27Z</time>
      </trkpt>
      <trkpt lat="42.34961" lon="-8.60959">
        <ele>18.88</ele>
        <time>2019-06-05T07:58:30Z</time>
      </trkpt>
      <trkpt lat="42.34974" lon="-8.60968">
        <ele>20.32</ele>
        <time>2019-06-05T07:58:45Z</time>
      </trkpt>
      <trkpt lat="42.34982" lon="-8.60976">
        <ele>21.77</ele>
        <time>2019-06-05T07:58:57Z</time>
      </trkpt>
      <trkpt lat="42.34993" lon="-8.60983">
        <ele>23.69</ele>
        <time>2019-06-05T07:59:11Z</time>
      </trkpt>
      <trkpt lat="42.35001" lon="-8.60991">
        <ele>24.17</ele>
        <time>2019-06-05T07:59:24Z</time>
      </trkpt>
      <trkpt lat="42.35003" lon="-8.61002">
        <ele>28.02</ele>
        <time>2019-06-05T07:59:35Z</time>
      </trkpt>
      <trkpt lat="42.35003" lon="-8.61005">
        <ele>27.53</ele>
        <time>2019-06-05T07:59:38Z</time>
      </trkpt>
      <trkpt lat="42.35007" lon="-8.61029">
        <ele>27.53</ele>
        <time>2019-06-05T07:59:54Z</time>
      </trkpt>
      <trkpt lat="42.35009" lon="-8.6105">
        <ele>26.09</ele>
        <time>2019-06-05T08:00:08Z</time>
      </trkpt>
      <trkpt lat="42.3501" lon="-8.61061">
        <ele>25.61</ele>
        <time>2019-06-05T08:00:14Z</time>
      </trkpt>
      <trkpt lat="42.35017" lon="-8.61089">
        <ele>24.17</ele>
        <time>2019-06-05T08:00:29Z</time>
      </trkpt>
      <trkpt lat="42.35033" lon="-8.61112">
        <ele>23.21</ele>
        <time>2019-06-05T08:00:47Z</time>
      </trkpt>
      <trkpt lat="42.35051" lon="-8.61127">
        <ele>22.25</ele>
        <time>2019-06-05T08:01:03Z</time>
      </trkpt>
      <trkpt lat="42.3507" lon="-8.61131">
        <ele>22.25</ele>
        <time>2019-06-05T08:01:18Z</time>
      </trkpt>
      <trkpt lat="42.35085" lon="-8.61139">
        <ele>22.25</ele>
        <time>2019-06-05T08:01:31Z</time>
      </trkpt>
      <trkpt lat="42.35105" lon="-8.61147">
        <ele>20.32</ele>
        <time>2019-06-05T08:01:47Z</time>
      </trkpt>
      <trkpt lat="42.35107" lon="-8.61149">
        <ele>19.84</ele>
        <time>2019-06-05T08:01:49Z</time>
      </trkpt>
      <trkpt lat="42.35118" lon="-8.61154">
        <ele>18.4</ele>
        <time>2019-06-05T08:01:58Z</time>
      </trkpt>
      <trkpt lat="42.35122" lon="-8.61155">
        <ele>17.92</ele>
        <time>2019-06-05T08:02:02Z</time>
      </trkpt>
      <trkpt lat="42.35135" lon="-8.61167">
        <ele>16</ele>
        <time>2019-06-05T08:02:16Z</time>
      </trkpt>
      <trkpt lat="42.35138" lon="-8.61184">
        <ele>12.63</ele>
        <time>2019-06-05T08:02:32Z</time>
      </trkpt>
      <trkpt lat="42.35139" lon="-8.61191">
        <ele>10.71</ele>
        <time>2019-06-05T08:02:39Z</time>
      </trkpt>
      <trkpt lat="42.35143" lon="-8.61205">
        <ele>7.35</ele>
        <time>2019-06-05T08:02:53Z</time>
      </trkpt>
      <trkpt lat="42.3515" lon="-8.61209">
        <ele>6.39</ele>
        <time>2019-06-05T08:02:59Z</time>
      </trkpt>
      <trkpt lat="42.35163" lon="-8.6121">
        <ele>5.42</ele>
        <time>2019-06-05T08:03:06Z</time>
      </trkpt>
      <trkpt lat="42.35166" lon="-8.6121">
        <ele>4.94</ele>
        <time>2019-06-05T08:03:10Z</time>
      </trkpt>
      <trkpt lat="42.3517" lon="-8.61209">
        <ele>5.42</ele>
        <time>2019-06-05T08:03:14Z</time>
      </trkpt>
      <trkpt lat="42.35184" lon="-8.61207">
        <ele>4.94</ele>
        <time>2019-06-05T08:03:28Z</time>
      </trkpt>
      <trkpt lat="42.35192" lon="-8.61204">
        <ele>4.94</ele>
        <time>2019-06-05T08:03:43Z</time>
      </trkpt>
      <trkpt lat="42.352" lon="-8.61199">
        <ele>4.94</ele>
        <time>2019-06-05T08:04:05Z</time>
      </trkpt>
      <trkpt lat="42.35215" lon="-8.6119">
        <ele>4.46</ele>
        <time>2019-06-05T08:04:17Z</time>
      </trkpt>
      <trkpt lat="42.35216" lon="-8.61189">
        <ele>3.5</ele>
        <time>2019-06-05T08:04:18Z</time>
      </trkpt>
      <trkpt lat="42.35229" lon="-8.61176">
        <ele>3.5</ele>
        <time>2019-06-05T08:04:32Z</time>
      </trkpt>
      <trkpt lat="42.35231" lon="-8.61174">
        <ele>3.98</ele>
        <time>2019-06-05T08:04:34Z</time>
      </trkpt>
      <trkpt lat="42.35234" lon="-8.61174">
        <ele>3.5</ele>
        <time>2019-06-05T08:04:36Z</time>
      </trkpt>
      <trkpt lat="42.35237" lon="-8.61177">
        <ele>3.98</ele>
        <time>2019-06-05T08:04:39Z</time>
      </trkpt>
      <trkpt lat="42.35243" lon="-8.61185">
        <ele>3.98</ele>
        <time>2019-06-05T08:04:48Z</time>
      </trkpt>
      <trkpt lat="42.35249" lon="-8.61187">
        <ele>3.02</ele>
        <time>2019-06-05T08:04:54Z</time>
      </trkpt>
      <trkpt lat="42.35254" lon="-8.6119">
        <ele>2.54</ele>
        <time>2019-06-05T08:04:59Z</time>
      </trkpt>
      <trkpt lat="42.35257" lon="-8.61193">
        <ele>3.02</ele>
        <time>2019-06-05T08:05:02Z</time>
      </trkpt>
      <trkpt lat="42.35265" lon="-8.612">
        <ele>3.02</ele>
        <time>2019-06-05T08:05:17Z</time>
      </trkpt>
      <trkpt lat="42.35274" lon="-8.61208">
        <ele>4.46</ele>
        <time>2019-06-05T08:05:29Z</time>
      </trkpt>
      <trkpt lat="42.35278" lon="-8.61214">
        <ele>4.94</ele>
        <time>2019-06-05T08:05:34Z</time>
      </trkpt>
      <trkpt lat="42.35291" lon="-8.61228">
        <ele>4.46</ele>
        <time>2019-06-05T08:05:48Z</time>
      </trkpt>
      <trkpt lat="42.35292" lon="-8.61229">
        <ele>4.94</ele>
        <time>2019-06-05T08:05:49Z</time>
      </trkpt>
      <trkpt lat="42.35301" lon="-8.61237">
        <ele>5.42</ele>
        <time>2019-06-05T08:06:02Z</time>
      </trkpt>
      <trkpt lat="42.35303" lon="-8.61248">
        <ele>8.31</ele>
        <time>2019-06-05T08:06:14Z</time>
      </trkpt>
      <trkpt lat="42.353" lon="-8.61263">
        <ele>10.23</ele>
        <time>2019-06-05T08:06:28Z</time>
      </trkpt>
      <trkpt lat="42.35299" lon="-8.61267">
        <ele>10.71</ele>
        <time>2019-06-05T08:06:31Z</time>
      </trkpt>
      <trkpt lat="42.353" lon="-8.6127">
        <ele>10.23</ele>
        <time>2019-06-05T08:06:33Z</time>
      </trkpt>
      <trkpt lat="42.35303" lon="-8.61281">
        <ele>10.71</ele>
        <time>2019-06-05T08:06:41Z</time>
      </trkpt>
      <trkpt lat="42.35312" lon="-8.61294">
        <ele>10.23</ele>
        <time>2019-06-05T08:06:54Z</time>
      </trkpt>
      <trkpt lat="42.35313" lon="-8.61297">
        <ele>9.75</ele>
        <time>2019-06-05T08:06:58Z</time>
      </trkpt>
      <trkpt lat="42.35315" lon="-8.613">
        <ele>9.27</ele>
        <time>2019-06-05T08:07:00Z</time>
      </trkpt>
      <trkpt lat="42.35321" lon="-8.6132">
        <ele>8.79</ele>
        <time>2019-06-05T08:07:12Z</time>
      </trkpt>
      <trkpt lat="42.35324" lon="-8.61322">
        <ele>9.27</ele>
        <time>2019-06-05T08:07:15Z</time>
      </trkpt>
      <trkpt lat="42.3533" lon="-8.61326">
        <ele>8.79</ele>
        <time>2019-06-05T08:07:20Z</time>
      </trkpt>
      <trkpt lat="42.35342" lon="-8.61341">
        <ele>9.27</ele>
        <time>2019-06-05T08:07:34Z</time>
      </trkpt>
      <trkpt lat="42.35354" lon="-8.61358">
        <ele>9.27</ele>
        <time>2019-06-05T08:07:47Z</time>
      </trkpt>
      <trkpt lat="42.35366" lon="-8.6137">
        <ele>8.31</ele>
        <time>2019-06-05T08:08:00Z</time>
      </trkpt>
      <trkpt lat="42.35375" lon="-8.61376">
        <ele>7.83</ele>
        <time>2019-06-05T08:08:09Z</time>
      </trkpt>
      <trkpt lat="42.3539" lon="-8.61389">
        <ele>7.35</ele>
        <time>2019-06-05T08:08:23Z</time>
      </trkpt>
      <trkpt lat="42.35403" lon="-8.61406">
        <ele>6.87</ele>
        <time>2019-06-05T08:08:37Z</time>
      </trkpt>
      <trkpt lat="42.35409" lon="-8.61405">
        <ele>5.91</ele>
        <time>2019-06-05T08:08:50Z</time>
      </trkpt>
      <trkpt lat="42.3541" lon="-8.61405">
        <ele>5.91</ele>
        <time>2019-06-05T08:09:12Z</time>
      </trkpt>
      <trkpt lat="42.35422" lon="-8.61412">
        <ele>5.42</ele>
        <time>2019-06-05T08:09:25Z</time>
      </trkpt>
      <trkpt lat="42.3543" lon="-8.61415">
        <ele>5.42</ele>
        <time>2019-06-05T08:09:31Z</time>
      </trkpt>
      <trkpt lat="42.35434" lon="-8.61416">
        <ele>4.94</ele>
        <time>2019-06-05T08:09:34Z</time>
      </trkpt>
      <trkpt lat="42.35449" lon="-8.61424">
        <ele>4.46</ele>
        <time>2019-06-05T08:09:47Z</time>
      </trkpt>
      <trkpt lat="42.35465" lon="-8.61429">
        <ele>4.94</ele>
        <time>2019-06-05T08:10:00Z</time>
      </trkpt>
      <trkpt lat="42.3547" lon="-8.61431">
        <ele>3.98</ele>
        <time>2019-06-05T08:10:04Z</time>
      </trkpt>
      <trkpt lat="42.3548" lon="-8.61439">
        <ele>5.42</ele>
        <time>2019-06-05T08:10:15Z</time>
      </trkpt>
      <trkpt lat="42.35488" lon="-8.61454">
        <ele>5.91</ele>
        <time>2019-06-05T08:10:26Z</time>
      </trkpt>
      <trkpt lat="42.35497" lon="-8.61464">
        <ele>7.83</ele>
        <time>2019-06-05T08:10:39Z</time>
      </trkpt>
      <trkpt lat="42.35502" lon="-8.61468">
        <ele>8.79</ele>
        <time>2019-06-05T08:10:46Z</time>
      </trkpt>
      <trkpt lat="42.35508" lon="-8.61469">
        <ele>12.63</ele>
        <time>2019-06-05T08:10:52Z</time>
      </trkpt>
      <trkpt lat="42.35508" lon="-8.6147">
        <ele>8.31</ele>
        <time>2019-06-05T08:10:53Z</time>
      </trkpt>
      <trkpt lat="42.35509" lon="-8.61471">
        <ele>9.75</ele>
        <time>2019-06-05T08:10:54Z</time>
      </trkpt>
      <trkpt lat="42.35521" lon="-8.61474">
        <ele>11.67</ele>
        <time>2019-06-05T08:11:09Z</time>
      </trkpt>
      <trkpt lat="42.35529" lon="-8.6148">
        <ele>12.15</ele>
        <time>2019-06-05T08:11:22Z</time>
      </trkpt>
      <trkpt lat="42.35536" lon="-8.61488">
        <ele>14.08</ele>
        <time>2019-06-05T08:11:37Z</time>
      </trkpt>
      <trkpt lat="42.35539" lon="-8.61495">
        <ele>15.04</ele>
        <time>2019-06-05T08:11:45Z</time>
      </trkpt>
      <trkpt lat="42.35548" lon="-8.61504">
        <ele>16</ele>
        <time>2019-06-05T08:11:58Z</time>
      </trkpt>
      <trkpt lat="42.35557" lon="-8.61512">
        <ele>16.96</ele>
        <time>2019-06-05T08:12:11Z</time>
      </trkpt>
      <trkpt lat="42.35566" lon="-8.6152">
        <ele>18.88</ele>
        <time>2019-06-05T08:12:26Z</time>
      </trkpt>
      <trkpt lat="42.35577" lon="-8.61532">
        <ele>20.32</ele>
        <time>2019-06-05T08:12:40Z</time>
      </trkpt>
      <trkpt lat="42.35583" lon="-8.6154">
        <ele>21.77</ele>
        <time>2019-06-05T08:12:50Z</time>
      </trkpt>
      <trkpt lat="42.35589" lon="-8.61547">
        <ele>22.73</ele>
        <time>2019-06-05T08:13:01Z</time>
      </trkpt>
      <trkpt lat="42.35593" lon="-8.61554">
        <ele>23.69</ele>
        <time>2019-06-05T08:13:09Z</time>
      </trkpt>
      <trkpt lat="42.35601" lon="-8.61568">
        <ele>25.13</ele>
        <time>2019-06-05T08:13:23Z</time>
      </trkpt>
      <trkpt lat="42.35609" lon="-8.61584">
        <ele>26.09</ele>
        <time>2019-06-05T08:13:39Z</time>
      </trkpt>
      <trkpt lat="42.35616" lon="-8.61592">
        <ele>26.09</ele>
        <time>2019-06-05T08:13:46Z</time>
      </trkpt>
      <trkpt lat="42.35624" lon="-8.61601">
        <ele>27.05</ele>
        <time>2019-06-05T08:13:55Z</time>
      </trkpt>
      <trkpt lat="42.35632" lon="-8.61606">
        <ele>29.94</ele>
        <time>2019-06-05T08:14:03Z</time>
      </trkpt>
      <trkpt lat="42.35633" lon="-8.61606">
        <ele>28.02</ele>
        <time>2019-06-05T08:14:04Z</time>
      </trkpt>
      <trkpt lat="42.35645" lon="-8.6161">
        <ele>29.94</ele>
        <time>2019-06-05T08:14:18Z</time>
      </trkpt>
      <trkpt lat="42.35655" lon="-8.61616">
        <ele>31.86</ele>
        <time>2019-06-05T08:14:31Z</time>
      </trkpt>
      <trkpt lat="42.3567" lon="-8.61623">
        <ele>32.82</ele>
        <time>2019-06-05T08:14:45Z</time>
      </trkpt>
      <trkpt lat="42.35679" lon="-8.61628">
        <ele>34.26</ele>
        <time>2019-06-05T08:14:55Z</time>
      </trkpt>
      <trkpt lat="42.35684" lon="-8.61628">
        <ele>34.74</ele>
        <time>2019-06-05T08:15:01Z</time>
      </trkpt>
      <trkpt lat="42.35694" lon="-8.61625">
        <ele>35.23</ele>
        <time>2019-06-05T08:15:13Z</time>
      </trkpt>
      <trkpt lat="42.35703" lon="-8.61626">
        <ele>37.63</ele>
        <time>2019-06-05T08:15:26Z</time>
      </trkpt>
      <trkpt lat="42.35709" lon="-8.61627">
        <ele>40.99</ele>
        <time>2019-06-05T08:15:34Z</time>
      </trkpt>
      <trkpt lat="42.35719" lon="-8.61625">
        <ele>40.03</ele>
        <time>2019-06-05T08:15:43Z</time>
      </trkpt>
      <trkpt lat="42.35735" lon="-8.61631">
        <ele>40.51</ele>
        <time>2019-06-05T08:15:58Z</time>
      </trkpt>
      <trkpt lat="42.35745" lon="-8.61632">
        <ele>39.55</ele>
        <time>2019-06-05T08:16:11Z</time>
      </trkpt>
      <trkpt lat="42.35755" lon="-8.61625">
        <ele>39.07</ele>
        <time>2019-06-05T08:16:29Z</time>
      </trkpt>
      <trkpt lat="42.35758" lon="-8.61625">
        <ele>39.07</ele>
        <time>2019-06-05T08:16:32Z</time>
      </trkpt>
      <trkpt lat="42.35768" lon="-8.61618">
        <ele>39.07</ele>
        <time>2019-06-05T08:16:40Z</time>
      </trkpt>
      <trkpt lat="42.35779" lon="-8.61609">
        <ele>39.55</ele>
        <time>2019-06-05T08:16:51Z</time>
      </trkpt>
      <trkpt lat="42.35789" lon="-8.61599">
        <ele>39.55</ele>
        <time>2019-06-05T08:17:02Z</time>
      </trkpt>
      <trkpt lat="42.35807" lon="-8.61585">
        <ele>39.55</ele>
        <time>2019-06-05T08:17:15Z</time>
      </trkpt>
      <trkpt lat="42.35818" lon="-8.61575">
        <ele>40.51</ele>
        <time>2019-06-05T08:17:27Z</time>
      </trkpt>
      <trkpt lat="42.35826" lon="-8.61565">
        <ele>41.47</ele>
        <time>2019-06-05T08:17:37Z</time>
      </trkpt>
      <trkpt lat="42.35843" lon="-8.61554">
        <ele>40.99</ele>
        <time>2019-06-05T08:17:52Z</time>
      </trkpt>
      <trkpt lat="42.35852" lon="-8.61547">
        <ele>42.44</ele>
        <time>2019-06-05T08:18:03Z</time>
      </trkpt>
      <trkpt lat="42.35864" lon="-8.61543">
        <ele>44.36</ele>
        <time>2019-06-05T08:18:18Z</time>
      </trkpt>
      <trkpt lat="42.35877" lon="-8.61541">
        <ele>45.32</ele>
        <time>2019-06-05T08:18:30Z</time>
      </trkpt>
      <trkpt lat="42.35894" lon="-8.6154">
        <ele>46.76</ele>
        <time>2019-06-05T08:18:45Z</time>
      </trkpt>
      <trkpt lat="42.35898" lon="-8.61541">
        <ele>46.76</ele>
        <time>2019-06-05T08:18:50Z</time>
      </trkpt>
      <trkpt lat="42.35903" lon="-8.61544">
        <ele>47.72</ele>
        <time>2019-06-05T08:18:55Z</time>
      </trkpt>
      <trkpt lat="42.35913" lon="-8.61551">
        <ele>48.2</ele>
        <time>2019-06-05T08:19:08Z</time>
      </trkpt>
      <trkpt lat="42.35923" lon="-8.61559">
        <ele>48.68</ele>
        <time>2019-06-05T08:19:20Z</time>
      </trkpt>
      <trkpt lat="42.35936" lon="-8.61566">
        <ele>48.68</ele>
        <time>2019-06-05T08:19:34Z</time>
      </trkpt>
      <trkpt lat="42.35946" lon="-8.61573">
        <ele>49.65</ele>
        <time>2019-06-05T08:19:45Z</time>
      </trkpt>
      <trkpt lat="42.35975" lon="-8.61569">
        <ele>48.68</ele>
        <time>2019-06-05T08:20:00Z</time>
      </trkpt>
      <trkpt lat="42.35983" lon="-8.61569">
        <ele>49.16</ele>
        <time>2019-06-05T08:20:15Z</time>
      </trkpt>
      <trkpt lat="42.35992" lon="-8.6157">
        <ele>48.68</ele>
        <time>2019-06-05T08:20:22Z</time>
      </trkpt>
      <trkpt lat="42.36011" lon="-8.61567">
        <ele>49.65</ele>
        <time>2019-06-05T08:20:38Z</time>
      </trkpt>
      <trkpt lat="42.36021" lon="-8.61567">
        <ele>50.61</ele>
        <time>2019-06-05T08:20:48Z</time>
      </trkpt>
      <trkpt lat="42.36027" lon="-8.61573">
        <ele>52.05</ele>
        <time>2019-06-05T08:20:55Z</time>
      </trkpt>
      <trkpt lat="42.36038" lon="-8.61588">
        <ele>53.97</ele>
        <time>2019-06-05T08:21:11Z</time>
      </trkpt>
      <trkpt lat="42.36046" lon="-8.61601">
        <ele>56.86</ele>
        <time>2019-06-05T08:21:24Z</time>
      </trkpt>
      <trkpt lat="42.36048" lon="-8.61605">
        <ele>57.34</ele>
        <time>2019-06-05T08:21:28Z</time>
      </trkpt>
      <trkpt lat="42.36053" lon="-8.61608">
        <ele>57.82</ele>
        <time>2019-06-05T08:21:32Z</time>
      </trkpt>
      <trkpt lat="42.36069" lon="-8.61618">
        <ele>57.82</ele>
        <time>2019-06-05T08:21:47Z</time>
      </trkpt>
      <trkpt lat="42.36088" lon="-8.61622">
        <ele>58.3</ele>
        <time>2019-06-05T08:22:03Z</time>
      </trkpt>
      <trkpt lat="42.36097" lon="-8.61622">
        <ele>58.78</ele>
        <time>2019-06-05T08:22:10Z</time>
      </trkpt>
      <trkpt lat="42.36114" lon="-8.61617">
        <ele>59.26</ele>
        <time>2019-06-05T08:22:25Z</time>
      </trkpt>
      <trkpt lat="42.36119" lon="-8.61616">
        <ele>59.26</ele>
        <time>2019-06-05T08:22:31Z</time>
      </trkpt>
      <trkpt lat="42.36122" lon="-8.61615">
        <ele>59.74</ele>
        <time>2019-06-05T08:22:34Z</time>
      </trkpt>
      <trkpt lat="42.36139" lon="-8.6162">
        <ele>60.7</ele>
        <time>2019-06-05T08:22:51Z</time>
      </trkpt>
      <trkpt lat="42.36147" lon="-8.61624">
        <ele>61.18</ele>
        <time>2019-06-05T08:23:05Z</time>
      </trkpt>
      <trkpt lat="42.36163" lon="-8.61627">
        <ele>62.62</ele>
        <time>2019-06-05T08:23:20Z</time>
      </trkpt>
      <trkpt lat="42.36168" lon="-8.61628">
        <ele>64.07</ele>
        <time>2019-06-05T08:23:25Z</time>
      </trkpt>
      <trkpt lat="42.36171" lon="-8.6163">
        <ele>64.55</ele>
        <time>2019-06-05T08:23:28Z</time>
      </trkpt>
      <trkpt lat="42.36181" lon="-8.61633">
        <ele>65.03</ele>
        <time>2019-06-05T08:23:37Z</time>
      </trkpt>
      <trkpt lat="42.36197" lon="-8.61631">
        <ele>65.51</ele>
        <time>2019-06-05T08:23:50Z</time>
      </trkpt>
      <trkpt lat="42.3621" lon="-8.61629">
        <ele>65.99</ele>
        <time>2019-06-05T08:24:03Z</time>
      </trkpt>
      <trkpt lat="42.36227" lon="-8.61626">
        <ele>67.43</ele>
        <time>2019-06-05T08:24:18Z</time>
      </trkpt>
      <trkpt lat="42.3623" lon="-8.61626">
        <ele>67.43</ele>
        <time>2019-06-05T08:24:20Z</time>
      </trkpt>
      <trkpt lat="42.36233" lon="-8.61625">
        <ele>67.91</ele>
        <time>2019-06-05T08:24:23Z</time>
      </trkpt>
      <trkpt lat="42.36248" lon="-8.61626">
        <ele>67.91</ele>
        <time>2019-06-05T08:24:36Z</time>
      </trkpt>
      <trkpt lat="42.36261" lon="-8.61628">
        <ele>69.35</ele>
        <time>2019-06-05T08:24:49Z</time>
      </trkpt>
      <trkpt lat="42.36279" lon="-8.61631">
        <ele>70.31</ele>
        <time>2019-06-05T08:25:04Z</time>
      </trkpt>
      <trkpt lat="42.36291" lon="-8.61635">
        <ele>72.24</ele>
        <time>2019-06-05T08:25:17Z</time>
      </trkpt>
      <trkpt lat="42.36299" lon="-8.6164">
        <ele>74.16</ele>
        <time>2019-06-05T08:25:29Z</time>
      </trkpt>
      <trkpt lat="42.36303" lon="-8.61638">
        <ele>74.16</ele>
        <time>2019-06-05T08:25:45Z</time>
      </trkpt>
      <trkpt lat="42.36304" lon="-8.61638">
        <ele>74.64</ele>
        <time>2019-06-05T08:25:47Z</time>
      </trkpt>
      <trkpt lat="42.3631" lon="-8.61638">
        <ele>74.16</ele>
        <time>2019-06-05T08:26:03Z</time>
      </trkpt>
      <trkpt lat="42.36314" lon="-8.61639">
        <ele>74.64</ele>
        <time>2019-06-05T08:26:38Z</time>
      </trkpt>
      <trkpt lat="42.36313" lon="-8.61643">
        <ele>74.64</ele>
        <time>2019-06-05T08:27:11Z</time>
      </trkpt>
      <trkpt lat="42.36311" lon="-8.61638">
        <ele>75.6</ele>
        <time>2019-06-05T08:27:44Z</time>
      </trkpt>
      <trkpt lat="42.36312" lon="-8.61639">
        <ele>75.6</ele>
        <time>2019-06-05T08:27:57Z</time>
      </trkpt>
      <trkpt lat="42.36314" lon="-8.6164">
        <ele>75.12</ele>
        <time>2019-06-05T08:28:33Z</time>
      </trkpt>
      <trkpt lat="42.36322" lon="-8.61635">
        <ele>75.12</ele>
        <time>2019-06-05T08:29:10Z</time>
      </trkpt>
      <trkpt lat="42.36322" lon="-8.61633">
        <ele>75.6</ele>
        <time>2019-06-05T08:29:32Z</time>
      </trkpt>
      <trkpt lat="42.36316" lon="-8.61635">
        <ele>75.6</ele>
        <time>2019-06-05T08:30:07Z</time>
      </trkpt>
      <trkpt lat="42.36317" lon="-8.61632">
        <ele>76.08</ele>
        <time>2019-06-05T08:30:36Z</time>
      </trkpt>
      <trkpt lat="42.36321" lon="-8.6163">
        <ele>77.04</ele>
        <time>2019-06-05T08:31:06Z</time>
      </trkpt>
      <trkpt lat="42.36317" lon="-8.61633">
        <ele>76.56</ele>
        <time>2019-06-05T08:31:23Z</time>
      </trkpt>
      <trkpt lat="42.36311" lon="-8.61634">
        <ele>77.52</ele>
        <time>2019-06-05T08:32:12Z</time>
      </trkpt>
      <trkpt lat="42.36323" lon="-8.61634">
        <ele>78</ele>
        <time>2019-06-05T08:32:43Z</time>
      </trkpt>
      <trkpt lat="42.36318" lon="-8.61641">
        <ele>78</ele>
        <time>2019-06-05T08:33:19Z</time>
      </trkpt>
      <trkpt lat="42.36311" lon="-8.61629">
        <ele>78.48</ele>
        <time>2019-06-05T08:34:00Z</time>
      </trkpt>
      <trkpt lat="42.36309" lon="-8.61628">
        <ele>78.48</ele>
        <time>2019-06-05T08:34:31Z</time>
      </trkpt>
      <trkpt lat="42.36314" lon="-8.61628">
        <ele>78.97</ele>
        <time>2019-06-05T08:35:00Z</time>
      </trkpt>
      <trkpt lat="42.36325" lon="-8.61633">
        <ele>78</ele>
        <time>2019-06-05T08:35:38Z</time>
      </trkpt>
      <trkpt lat="42.36316" lon="-8.61637">
        <ele>78.97</ele>
        <time>2019-06-05T08:36:10Z</time>
      </trkpt>
      <trkpt lat="42.36325" lon="-8.61632">
        <ele>78.97</ele>
        <time>2019-06-05T08:36:52Z</time>
      </trkpt>
      <trkpt lat="42.36325" lon="-8.61628">
        <ele>78.97</ele>
        <time>2019-06-05T08:37:24Z</time>
      </trkpt>
      <trkpt lat="42.36328" lon="-8.6163">
        <ele>78.48</ele>
        <time>2019-06-05T08:37:52Z</time>
      </trkpt>
      <trkpt lat="42.36324" lon="-8.6163">
        <ele>78.48</ele>
        <time>2019-06-05T08:38:24Z</time>
      </trkpt>
      <trkpt lat="42.36322" lon="-8.61629">
        <ele>78.97</ele>
        <time>2019-06-05T08:38:58Z</time>
      </trkpt>
      <trkpt lat="42.36311" lon="-8.61635">
        <ele>78.97</ele>
        <time>2019-06-05T08:39:22Z</time>
      </trkpt>
      <trkpt lat="42.36306" lon="-8.61628">
        <ele>79.45</ele>
        <time>2019-06-05T08:39:51Z</time>
      </trkpt>
      <trkpt lat="42.36311" lon="-8.61634">
        <ele>79.93</ele>
        <time>2019-06-05T08:40:23Z</time>
      </trkpt>
      <trkpt lat="42.36309" lon="-8.61636">
        <ele>79.93</ele>
        <time>2019-06-05T08:40:55Z</time>
      </trkpt>
      <trkpt lat="42.36308" lon="-8.61639">
        <ele>80.41</ele>
        <time>2019-06-05T08:41:13Z</time>
      </trkpt>
      <trkpt lat="42.36303" lon="-8.6164">
        <ele>80.41</ele>
        <time>2019-06-05T08:41:29Z</time>
      </trkpt>
      <trkpt lat="42.36305" lon="-8.61646">
        <ele>80.41</ele>
        <time>2019-06-05T08:41:42Z</time>
      </trkpt>
      <trkpt lat="42.36304" lon="-8.61643">
        <ele>80.41</ele>
        <time>2019-06-05T08:41:59Z</time>
      </trkpt>
      <trkpt lat="42.36299" lon="-8.61642">
        <ele>79.45</ele>
        <time>2019-06-05T08:42:11Z</time>
      </trkpt>
      <trkpt lat="42.36304" lon="-8.61638">
        <ele>79.93</ele>
        <time>2019-06-05T08:42:29Z</time>
      </trkpt>
      <trkpt lat="42.36306" lon="-8.61638">
        <ele>79.45</ele>
        <time>2019-06-05T08:42:46Z</time>
      </trkpt>
      <trkpt lat="42.36309" lon="-8.61645">
        <ele>79.93</ele>
        <time>2019-06-05T08:42:57Z</time>
      </trkpt>
      <trkpt lat="42.36314" lon="-8.61649">
        <ele>81.37</ele>
        <time>2019-06-05T08:43:12Z</time>
      </trkpt>
      <trkpt lat="42.36327" lon="-8.61656">
        <ele>82.81</ele>
        <time>2019-06-05T08:43:25Z</time>
      </trkpt>
      <trkpt lat="42.36327" lon="-8.61657">
        <ele>83.77</ele>
        <time>2019-06-05T08:43:26Z</time>
      </trkpt>
      <trkpt lat="42.36332" lon="-8.61659">
        <ele>85.21</ele>
        <time>2019-06-05T08:43:34Z</time>
      </trkpt>
      <trkpt lat="42.36341" lon="-8.61668">
        <ele>85.69</ele>
        <time>2019-06-05T08:43:47Z</time>
      </trkpt>
      <trkpt lat="42.36356" lon="-8.61671">
        <ele>86.66</ele>
        <time>2019-06-05T08:44:00Z</time>
      </trkpt>
      <trkpt lat="42.36366" lon="-8.61672">
        <ele>88.1</ele>
        <time>2019-06-05T08:44:14Z</time>
      </trkpt>
      <trkpt lat="42.3637" lon="-8.61678">
        <ele>89.54</ele>
        <time>2019-06-05T08:44:28Z</time>
      </trkpt>
      <trkpt lat="42.36372" lon="-8.61677">
        <ele>90.02</ele>
        <time>2019-06-05T08:44:43Z</time>
      </trkpt>
      <trkpt lat="42.36369" lon="-8.61671">
        <ele>89.54</ele>
        <time>2019-06-05T08:45:01Z</time>
      </trkpt>
      <trkpt lat="42.36377" lon="-8.6167">
        <ele>90.02</ele>
        <time>2019-06-05T08:45:26Z</time>
      </trkpt>
      <trkpt lat="42.36371" lon="-8.61673">
        <ele>90.02</ele>
        <time>2019-06-05T08:45:49Z</time>
      </trkpt>
      <trkpt lat="42.36372" lon="-8.61671">
        <ele>90.02</ele>
        <time>2019-06-05T08:46:20Z</time>
      </trkpt>
      <trkpt lat="42.36379" lon="-8.61669">
        <ele>90.5</ele>
        <time>2019-06-05T08:46:35Z</time>
      </trkpt>
      <trkpt lat="42.36392" lon="-8.61671">
        <ele>92.9</ele>
        <time>2019-06-05T08:46:48Z</time>
      </trkpt>
      <trkpt lat="42.36404" lon="-8.61666">
        <ele>94.83</ele>
        <time>2019-06-05T08:47:00Z</time>
      </trkpt>
      <trkpt lat="42.36406" lon="-8.61664">
        <ele>96.27</ele>
        <time>2019-06-05T08:47:02Z</time>
      </trkpt>
      <trkpt lat="42.3641" lon="-8.61661">
        <ele>95.31</ele>
        <time>2019-06-05T08:47:06Z</time>
      </trkpt>
      <trkpt lat="42.36423" lon="-8.61653">
        <ele>96.75</ele>
        <time>2019-06-05T08:47:19Z</time>
      </trkpt>
      <trkpt lat="42.3643" lon="-8.61652">
        <ele>96.75</ele>
        <time>2019-06-05T08:47:25Z</time>
      </trkpt>
      <trkpt lat="42.36441" lon="-8.61652">
        <ele>97.23</ele>
        <time>2019-06-05T08:47:36Z</time>
      </trkpt>
      <trkpt lat="42.36456" lon="-8.61649">
        <ele>98.19</ele>
        <time>2019-06-05T08:47:48Z</time>
      </trkpt>
      <trkpt lat="42.3646" lon="-8.61651">
        <ele>99.15</ele>
        <time>2019-06-05T08:47:51Z</time>
      </trkpt>
      <trkpt lat="42.36465" lon="-8.61653">
        <ele>98.67</ele>
        <time>2019-06-05T08:47:56Z</time>
      </trkpt>
      <trkpt lat="42.36482" lon="-8.61656">
        <ele>99.15</ele>
        <time>2019-06-05T08:48:10Z</time>
      </trkpt>
      <trkpt lat="42.36493" lon="-8.61662">
        <ele>100.6</ele>
        <time>2019-06-05T08:48:19Z</time>
      </trkpt>
      <trkpt lat="42.36502" lon="-8.61665">
        <ele>102.04</ele>
        <time>2019-06-05T08:48:29Z</time>
      </trkpt>
      <trkpt lat="42.36511" lon="-8.61672">
        <ele>103.96</ele>
        <time>2019-06-05T08:48:42Z</time>
      </trkpt>
      <trkpt lat="42.36522" lon="-8.61683">
        <ele>106.36</ele>
        <time>2019-06-05T08:48:57Z</time>
      </trkpt>
      <trkpt lat="42.36523" lon="-8.61684">
        <ele>107.32</ele>
        <time>2019-06-05T08:48:58Z</time>
      </trkpt>
      <trkpt lat="42.36523" lon="-8.61684">
        <ele>105.4</ele>
        <time>2019-06-05T08:48:59Z</time>
      </trkpt>
      <trkpt lat="42.36528" lon="-8.6169">
        <ele>108.77</ele>
        <time>2019-06-05T08:49:07Z</time>
      </trkpt>
      <trkpt lat="42.36527" lon="-8.61699">
        <ele>110.21</ele>
        <time>2019-06-05T08:49:21Z</time>
      </trkpt>
      <trkpt lat="42.36522" lon="-8.61704">
        <ele>111.65</ele>
        <time>2019-06-05T08:49:33Z</time>
      </trkpt>
      <trkpt lat="42.36518" lon="-8.61709">
        <ele>115.98</ele>
        <time>2019-06-05T08:49:42Z</time>
      </trkpt>
      <trkpt lat="42.36517" lon="-8.6171">
        <ele>110.69</ele>
        <time>2019-06-05T08:49:43Z</time>
      </trkpt>
      <trkpt lat="42.36517" lon="-8.61712">
        <ele>114.05</ele>
        <time>2019-06-05T08:49:45Z</time>
      </trkpt>
      <trkpt lat="42.36515" lon="-8.61726">
        <ele>114.53</ele>
        <time>2019-06-05T08:49:58Z</time>
      </trkpt>
      <trkpt lat="42.36514" lon="-8.6173">
        <ele>115.98</ele>
        <time>2019-06-05T08:50:02Z</time>
      </trkpt>
      <trkpt lat="42.36505" lon="-8.61745">
        <ele>116.46</ele>
        <time>2019-06-05T08:50:16Z</time>
      </trkpt>
      <trkpt lat="42.36499" lon="-8.61753">
        <ele>117.42</ele>
        <time>2019-06-05T08:50:27Z</time>
      </trkpt>
      <trkpt lat="42.36491" lon="-8.61763">
        <ele>117.9</ele>
        <time>2019-06-05T08:50:39Z</time>
      </trkpt>
      <trkpt lat="42.36475" lon="-8.61776">
        <ele>118.38</ele>
        <time>2019-06-05T08:50:52Z</time>
      </trkpt>
      <trkpt lat="42.36464" lon="-8.61781">
        <ele>118.86</ele>
        <time>2019-06-05T08:51:03Z</time>
      </trkpt>
      <trkpt lat="42.36448" lon="-8.61785">
        <ele>119.34</ele>
        <time>2019-06-05T08:51:16Z</time>
      </trkpt>
      <trkpt lat="42.36432" lon="-8.61788">
        <ele>119.34</ele>
        <time>2019-06-05T08:51:30Z</time>
      </trkpt>
      <trkpt lat="42.3643" lon="-8.61797">
        <ele>122.22</ele>
        <time>2019-06-05T08:51:41Z</time>
      </trkpt>
      <trkpt lat="42.3644" lon="-8.6181">
        <ele>124.15</ele>
        <time>2019-06-05T08:51:55Z</time>
      </trkpt>
      <trkpt lat="42.36446" lon="-8.61813">
        <ele>126.55</ele>
        <time>2019-06-05T08:52:05Z</time>
      </trkpt>
      <trkpt lat="42.36455" lon="-8.61816">
        <ele>127.03</ele>
        <time>2019-06-05T08:52:17Z</time>
      </trkpt>
      <trkpt lat="42.36466" lon="-8.61816">
        <ele>127.51</ele>
        <time>2019-06-05T08:52:29Z</time>
      </trkpt>
      <trkpt lat="42.36481" lon="-8.61815">
        <ele>128.47</ele>
        <time>2019-06-05T08:52:44Z</time>
      </trkpt>
      <trkpt lat="42.36492" lon="-8.61815">
        <ele>128.47</ele>
        <time>2019-06-05T08:52:55Z</time>
      </trkpt>
      <trkpt lat="42.36507" lon="-8.61822">
        <ele>129.92</ele>
        <time>2019-06-05T08:53:11Z</time>
      </trkpt>
      <trkpt lat="42.36515" lon="-8.61824">
        <ele>130.4</ele>
        <time>2019-06-05T08:53:24Z</time>
      </trkpt>
      <trkpt lat="42.36525" lon="-8.61832">
        <ele>132.32</ele>
        <time>2019-06-05T08:53:39Z</time>
      </trkpt>
      <trkpt lat="42.36537" lon="-8.61841">
        <ele>133.28</ele>
        <time>2019-06-05T08:53:52Z</time>
      </trkpt>
      <trkpt lat="42.36549" lon="-8.61855">
        <ele>134.72</ele>
        <time>2019-06-05T08:54:07Z</time>
      </trkpt>
      <trkpt lat="42.36551" lon="-8.61857">
        <ele>134.72</ele>
        <time>2019-06-05T08:54:09Z</time>
      </trkpt>
      <trkpt lat="42.36563" lon="-8.61873">
        <ele>136.16</ele>
        <time>2019-06-05T08:54:23Z</time>
      </trkpt>
      <trkpt lat="42.36576" lon="-8.61891">
        <ele>137.61</ele>
        <time>2019-06-05T08:54:38Z</time>
      </trkpt>
      <trkpt lat="42.36588" lon="-8.61907">
        <ele>138.09</ele>
        <time>2019-06-05T08:54:51Z</time>
      </trkpt>
      <trkpt lat="42.366" lon="-8.6192">
        <ele>138.09</ele>
        <time>2019-06-05T08:55:04Z</time>
      </trkpt>
      <trkpt lat="42.36614" lon="-8.61929">
        <ele>139.53</ele>
        <time>2019-06-05T08:55:17Z</time>
      </trkpt>
      <trkpt lat="42.36622" lon="-8.61934">
        <ele>139.53</ele>
        <time>2019-06-05T08:55:25Z</time>
      </trkpt>
      <trkpt lat="42.36632" lon="-8.61939">
        <ele>140.97</ele>
        <time>2019-06-05T08:55:36Z</time>
      </trkpt>
      <trkpt lat="42.36645" lon="-8.61945">
        <ele>141.93</ele>
        <time>2019-06-05T08:55:48Z</time>
      </trkpt>
      <trkpt lat="42.36655" lon="-8.61954">
        <ele>142.89</ele>
        <time>2019-06-05T08:56:00Z</time>
      </trkpt>
      <trkpt lat="42.36663" lon="-8.61964">
        <ele>144.34</ele>
        <time>2019-06-05T08:56:12Z</time>
      </trkpt>
      <trkpt lat="42.36669" lon="-8.61974">
        <ele>144.82</ele>
        <time>2019-06-05T08:56:22Z</time>
      </trkpt>
      <trkpt lat="42.36666" lon="-8.61994">
        <ele>145.78</ele>
        <time>2019-06-05T08:56:35Z</time>
      </trkpt>
      <trkpt lat="42.36665" lon="-8.62008">
        <ele>146.74</ele>
        <time>2019-06-05T08:56:47Z</time>
      </trkpt>
      <trkpt lat="42.36668" lon="-8.62015">
        <ele>146.26</ele>
        <time>2019-06-05T08:56:53Z</time>
      </trkpt>
      <trkpt lat="42.3668" lon="-8.62025">
        <ele>146.74</ele>
        <time>2019-06-05T08:57:07Z</time>
      </trkpt>
      <trkpt lat="42.36691" lon="-8.62036">
        <ele>147.7</ele>
        <time>2019-06-05T08:57:22Z</time>
      </trkpt>
      <trkpt lat="42.36701" lon="-8.62041">
        <ele>148.18</ele>
        <time>2019-06-05T08:57:33Z</time>
      </trkpt>
      <trkpt lat="42.36707" lon="-8.62044">
        <ele>147.7</ele>
        <time>2019-06-05T08:57:37Z</time>
      </trkpt>
      <trkpt lat="42.36717" lon="-8.62048">
        <ele>147.7</ele>
        <time>2019-06-05T08:57:50Z</time>
      </trkpt>
      <trkpt lat="42.36724" lon="-8.6205">
        <ele>146.26</ele>
        <time>2019-06-05T08:58:01Z</time>
      </trkpt>
      <trkpt lat="42.36731" lon="-8.6205">
        <ele>143.37</ele>
        <time>2019-06-05T08:58:09Z</time>
      </trkpt>
      <trkpt lat="42.36748" lon="-8.62054">
        <ele>142.89</ele>
        <time>2019-06-05T08:58:20Z</time>
      </trkpt>
      <trkpt lat="42.36767" lon="-8.62059">
        <ele>139.53</ele>
        <time>2019-06-05T08:58:31Z</time>
      </trkpt>
      <trkpt lat="42.36773" lon="-8.62068">
        <ele>137.61</ele>
        <time>2019-06-05T08:58:40Z</time>
      </trkpt>
      <trkpt lat="42.36785" lon="-8.62081">
        <ele>135.68</ele>
        <time>2019-06-05T08:58:53Z</time>
      </trkpt>
      <trkpt lat="42.36792" lon="-8.62093">
        <ele>133.76</ele>
        <time>2019-06-05T08:59:04Z</time>
      </trkpt>
      <trkpt lat="42.36798" lon="-8.62104">
        <ele>133.28</ele>
        <time>2019-06-05T08:59:10Z</time>
      </trkpt>
      <trkpt lat="42.36804" lon="-8.62127">
        <ele>131.36</ele>
        <time>2019-06-05T08:59:23Z</time>
      </trkpt>
      <trkpt lat="42.36808" lon="-8.62146">
        <ele>128.47</ele>
        <time>2019-06-05T08:59:35Z</time>
      </trkpt>
      <trkpt lat="42.36809" lon="-8.62149">
        <ele>127.99</ele>
        <time>2019-06-05T08:59:37Z</time>
      </trkpt>
      <trkpt lat="42.36809" lon="-8.62153">
        <ele>127.03</ele>
        <time>2019-06-05T08:59:40Z</time>
      </trkpt>
      <trkpt lat="42.3681" lon="-8.62157">
        <ele>127.03</ele>
        <time>2019-06-05T08:59:42Z</time>
      </trkpt>
      <trkpt lat="42.36815" lon="-8.62173">
        <ele>126.07</ele>
        <time>2019-06-05T08:59:52Z</time>
      </trkpt>
      <trkpt lat="42.36821" lon="-8.62188">
        <ele>124.63</ele>
        <time>2019-06-05T09:00:04Z</time>
      </trkpt>
      <trkpt lat="42.36821" lon="-8.62189">
        <ele>125.11</ele>
        <time>2019-06-05T09:00:05Z</time>
      </trkpt>
      <trkpt lat="42.36821" lon="-8.62195">
        <ele>123.67</ele>
        <time>2019-06-05T09:00:08Z</time>
      </trkpt>
      <trkpt lat="42.36825" lon="-8.62214">
        <ele>121.74</ele>
        <time>2019-06-05T09:00:19Z</time>
      </trkpt>
      <trkpt lat="42.36829" lon="-8.62223">
        <ele>119.34</ele>
        <time>2019-06-05T09:00:29Z</time>
      </trkpt>
      <trkpt lat="42.36833" lon="-8.62237">
        <ele>116.46</ele>
        <time>2019-06-05T09:00:39Z</time>
      </trkpt>
      <trkpt lat="42.36834" lon="-8.62241">
        <ele>115.98</ele>
        <time>2019-06-05T09:00:41Z</time>
      </trkpt>
      <trkpt lat="42.36835" lon="-8.62251">
        <ele>114.53</ele>
        <time>2019-06-05T09:00:49Z</time>
      </trkpt>
      <trkpt lat="42.3684" lon="-8.6227">
        <ele>111.65</ele>
        <time>2019-06-05T09:00:58Z</time>
      </trkpt>
      <trkpt lat="42.36842" lon="-8.62275">
        <ele>111.65</ele>
        <time>2019-06-05T09:01:02Z</time>
      </trkpt>
      <trkpt lat="42.36843" lon="-8.62282">
        <ele>111.17</ele>
        <time>2019-06-05T09:01:05Z</time>
      </trkpt>
      <trkpt lat="42.36852" lon="-8.623">
        <ele>110.21</ele>
        <time>2019-06-05T09:01:18Z</time>
      </trkpt>
      <trkpt lat="42.36853" lon="-8.62303">
        <ele>109.73</ele>
        <time>2019-06-05T09:01:26Z</time>
      </trkpt>
      <trkpt lat="42.36858" lon="-8.6231">
        <ele>109.25</ele>
        <time>2019-06-05T09:01:32Z</time>
      </trkpt>
      <trkpt lat="42.36861" lon="-8.62315">
        <ele>109.25</ele>
        <time>2019-06-05T09:01:36Z</time>
      </trkpt>
      <trkpt lat="42.36864" lon="-8.6232">
        <ele>109.25</ele>
        <time>2019-06-05T09:01:40Z</time>
      </trkpt>
      <trkpt lat="42.36866" lon="-8.62321">
        <ele>109.73</ele>
        <time>2019-06-05T09:01:42Z</time>
      </trkpt>
      <trkpt lat="42.36875" lon="-8.6234">
        <ele>109.73</ele>
        <time>2019-06-05T09:01:56Z</time>
      </trkpt>
      <trkpt lat="42.36877" lon="-8.62346">
        <ele>109.25</ele>
        <time>2019-06-05T09:02:00Z</time>
      </trkpt>
      <trkpt lat="42.36878" lon="-8.62348">
        <ele>108.77</ele>
        <time>2019-06-05T09:02:02Z</time>
      </trkpt>
      <trkpt lat="42.36883" lon="-8.62362">
        <ele>109.25</ele>
        <time>2019-06-05T09:02:11Z</time>
      </trkpt>
      <trkpt lat="42.36892" lon="-8.62388">
        <ele>109.25</ele>
        <time>2019-06-05T09:02:27Z</time>
      </trkpt>
      <trkpt lat="42.36896" lon="-8.62402">
        <ele>110.21</ele>
        <time>2019-06-05T09:02:36Z</time>
      </trkpt>
      <trkpt lat="42.36895" lon="-8.6242">
        <ele>110.21</ele>
        <time>2019-06-05T09:02:45Z</time>
      </trkpt>
      <trkpt lat="42.36897" lon="-8.6243">
        <ele>110.69</ele>
        <time>2019-06-05T09:02:50Z</time>
      </trkpt>
      <trkpt lat="42.369" lon="-8.62439">
        <ele>111.65</ele>
        <time>2019-06-05T09:02:57Z</time>
      </trkpt>
      <trkpt lat="42.36902" lon="-8.62444">
        <ele>112.13</ele>
        <time>2019-06-05T09:03:01Z</time>
      </trkpt>
      <trkpt lat="42.36912" lon="-8.62459">
        <ele>112.61</ele>
        <time>2019-06-05T09:03:15Z</time>
      </trkpt>
      <trkpt lat="42.36913" lon="-8.62463">
        <ele>114.53</ele>
        <time>2019-06-05T09:03:18Z</time>
      </trkpt>
      <trkpt lat="42.36919" lon="-8.62479">
        <ele>116.46</ele>
        <time>2019-06-05T09:03:32Z</time>
      </trkpt>
      <trkpt lat="42.36921" lon="-8.62485">
        <ele>116.46</ele>
        <time>2019-06-05T09:03:37Z</time>
      </trkpt>
      <trkpt lat="42.36924" lon="-8.62487">
        <ele>116.46</ele>
        <time>2019-06-05T09:03:40Z</time>
      </trkpt>
      <trkpt lat="42.36926" lon="-8.6249">
        <ele>116.46</ele>
        <time>2019-06-05T09:03:42Z</time>
      </trkpt>
      <trkpt lat="42.3693" lon="-8.62499">
        <ele>116.46</ele>
        <time>2019-06-05T09:03:50Z</time>
      </trkpt>
      <trkpt lat="42.36934" lon="-8.62505">
        <ele>115.98</ele>
        <time>2019-06-05T09:03:54Z</time>
      </trkpt>
      <trkpt lat="42.36941" lon="-8.6252">
        <ele>115.98</ele>
        <time>2019-06-05T09:04:05Z</time>
      </trkpt>
      <trkpt lat="42.36952" lon="-8.62533">
        <ele>114.05</ele>
        <time>2019-06-05T09:04:17Z</time>
      </trkpt>
      <trkpt lat="42.36956" lon="-8.62536">
        <ele>114.53</ele>
        <time>2019-06-05T09:04:21Z</time>
      </trkpt>
      <trkpt lat="42.36972" lon="-8.62546">
        <ele>114.05</ele>
        <time>2019-06-05T09:04:35Z</time>
      </trkpt>
      <trkpt lat="42.3699" lon="-8.62556">
        <ele>113.09</ele>
        <time>2019-06-05T09:04:50Z</time>
      </trkpt>
      <trkpt lat="42.37007" lon="-8.62564">
        <ele>112.61</ele>
        <time>2019-06-05T09:05:04Z</time>
      </trkpt>
      <trkpt lat="42.37018" lon="-8.62571">
        <ele>112.13</ele>
        <time>2019-06-05T09:05:14Z</time>
      </trkpt>
      <trkpt lat="42.37022" lon="-8.62573">
        <ele>112.61</ele>
        <time>2019-06-05T09:05:19Z</time>
      </trkpt>
      <trkpt lat="42.37043" lon="-8.62584">
        <ele>112.13</ele>
        <time>2019-06-05T09:05:34Z</time>
      </trkpt>
      <trkpt lat="42.37048" lon="-8.62589">
        <ele>112.13</ele>
        <time>2019-06-05T09:05:40Z</time>
      </trkpt>
      <trkpt lat="42.37052" lon="-8.62595">
        <ele>112.61</ele>
        <time>2019-06-05T09:05:45Z</time>
      </trkpt>
      <trkpt lat="42.37064" lon="-8.62607">
        <ele>111.17</ele>
        <time>2019-06-05T09:05:55Z</time>
      </trkpt>
      <trkpt lat="42.37069" lon="-8.62608">
        <ele>110.69</ele>
        <time>2019-06-05T09:05:59Z</time>
      </trkpt>
      <trkpt lat="42.37086" lon="-8.62604">
        <ele>109.73</ele>
        <time>2019-06-05T09:06:13Z</time>
      </trkpt>
      <trkpt lat="42.37089" lon="-8.62603">
        <ele>109.73</ele>
        <time>2019-06-05T09:06:17Z</time>
      </trkpt>
      <trkpt lat="42.37093" lon="-8.62603">
        <ele>110.21</ele>
        <time>2019-06-05T09:06:19Z</time>
      </trkpt>
      <trkpt lat="42.37102" lon="-8.62602">
        <ele>109.73</ele>
        <time>2019-06-05T09:06:25Z</time>
      </trkpt>
      <trkpt lat="42.3712" lon="-8.62597">
        <ele>110.69</ele>
        <time>2019-06-05T09:06:39Z</time>
      </trkpt>
      <trkpt lat="42.37135" lon="-8.62591">
        <ele>112.13</ele>
        <time>2019-06-05T09:06:51Z</time>
      </trkpt>
      <trkpt lat="42.37138" lon="-8.6259">
        <ele>111.65</ele>
        <time>2019-06-05T09:06:54Z</time>
      </trkpt>
      <trkpt lat="42.37145" lon="-8.62587">
        <ele>112.13</ele>
        <time>2019-06-05T09:07:00Z</time>
      </trkpt>
      <trkpt lat="42.37153" lon="-8.62582">
        <ele>111.65</ele>
        <time>2019-06-05T09:07:08Z</time>
      </trkpt>
      <trkpt lat="42.37167" lon="-8.62568">
        <ele>110.69</ele>
        <time>2019-06-05T09:07:22Z</time>
      </trkpt>
      <trkpt lat="42.37184" lon="-8.62558">
        <ele>110.69</ele>
        <time>2019-06-05T09:07:34Z</time>
      </trkpt>
      <trkpt lat="42.37197" lon="-8.62546">
        <ele>111.17</ele>
        <time>2019-06-05T09:07:47Z</time>
      </trkpt>
      <trkpt lat="42.37201" lon="-8.62542">
        <ele>110.69</ele>
        <time>2019-06-05T09:07:51Z</time>
      </trkpt>
      <trkpt lat="42.37206" lon="-8.62539">
        <ele>111.17</ele>
        <time>2019-06-05T09:07:55Z</time>
      </trkpt>
      <trkpt lat="42.37208" lon="-8.62537">
        <ele>111.17</ele>
        <time>2019-06-05T09:07:56Z</time>
      </trkpt>
      <trkpt lat="42.37209" lon="-8.62536">
        <ele>111.17</ele>
        <time>2019-06-05T09:07:57Z</time>
      </trkpt>
      <trkpt lat="42.37212" lon="-8.62532">
        <ele>111.17</ele>
        <time>2019-06-05T09:08:01Z</time>
      </trkpt>
      <trkpt lat="42.37213" lon="-8.62531">
        <ele>111.65</ele>
        <time>2019-06-05T09:08:02Z</time>
      </trkpt>
      <trkpt lat="42.37214" lon="-8.6253">
        <ele>111.17</ele>
        <time>2019-06-05T09:08:03Z</time>
      </trkpt>
      <trkpt lat="42.37227" lon="-8.62518">
        <ele>111.65</ele>
        <time>2019-06-05T09:08:17Z</time>
      </trkpt>
      <trkpt lat="42.37239" lon="-8.62506">
        <ele>112.13</ele>
        <time>2019-06-05T09:08:29Z</time>
      </trkpt>
      <trkpt lat="42.37251" lon="-8.62493">
        <ele>113.09</ele>
        <time>2019-06-05T09:08:42Z</time>
      </trkpt>
      <trkpt lat="42.37252" lon="-8.62492">
        <ele>112.61</ele>
        <time>2019-06-05T09:08:43Z</time>
      </trkpt>
      <trkpt lat="42.37265" lon="-8.62484">
        <ele>113.57</ele>
        <time>2019-06-05T09:08:56Z</time>
      </trkpt>
      <trkpt lat="42.37277" lon="-8.62478">
        <ele>113.09</ele>
        <time>2019-06-05T09:09:08Z</time>
      </trkpt>
      <trkpt lat="42.37284" lon="-8.62479">
        <ele>113.57</ele>
        <time>2019-06-05T09:09:13Z</time>
      </trkpt>
      <trkpt lat="42.37285" lon="-8.6248">
        <ele>113.09</ele>
        <time>2019-06-05T09:09:14Z</time>
      </trkpt>
      <trkpt lat="42.37297" lon="-8.62489">
        <ele>113.09</ele>
        <time>2019-06-05T09:09:24Z</time>
      </trkpt>
      <trkpt lat="42.37299" lon="-8.62491">
        <ele>113.09</ele>
        <time>2019-06-05T09:09:26Z</time>
      </trkpt>
      <trkpt lat="42.37303" lon="-8.62492">
        <ele>112.61</ele>
        <time>2019-06-05T09:09:29Z</time>
      </trkpt>
      <trkpt lat="42.37304" lon="-8.62493">
        <ele>112.61</ele>
        <time>2019-06-05T09:09:30Z</time>
      </trkpt>
      <trkpt lat="42.37306" lon="-8.62494">
        <ele>113.57</ele>
        <time>2019-06-05T09:09:31Z</time>
      </trkpt>
      <trkpt lat="42.37307" lon="-8.62495">
        <ele>113.09</ele>
        <time>2019-06-05T09:09:32Z</time>
      </trkpt>
      <trkpt lat="42.3732" lon="-8.62503">
        <ele>113.09</ele>
        <time>2019-06-05T09:09:44Z</time>
      </trkpt>
      <trkpt lat="42.37321" lon="-8.62503">
        <ele>113.09</ele>
        <time>2019-06-05T09:09:45Z</time>
      </trkpt>
      <trkpt lat="42.37335" lon="-8.62512">
        <ele>114.05</ele>
        <time>2019-06-05T09:09:58Z</time>
      </trkpt>
      <trkpt lat="42.37349" lon="-8.62523">
        <ele>114.53</ele>
        <time>2019-06-05T09:10:12Z</time>
      </trkpt>
      <trkpt lat="42.37354" lon="-8.62528">
        <ele>115.01</ele>
        <time>2019-06-05T09:10:17Z</time>
      </trkpt>
      <trkpt lat="42.37363" lon="-8.62535">
        <ele>115.5</ele>
        <time>2019-06-05T09:10:26Z</time>
      </trkpt>
      <trkpt lat="42.37364" lon="-8.62535">
        <ele>115.01</ele>
        <time>2019-06-05T09:10:27Z</time>
      </trkpt>
      <trkpt lat="42.3738" lon="-8.6254">
        <ele>115.98</ele>
        <time>2019-06-05T09:10:40Z</time>
      </trkpt>
      <trkpt lat="42.37392" lon="-8.62539">
        <ele>114.05</ele>
        <time>2019-06-05T09:10:50Z</time>
      </trkpt>
      <trkpt lat="42.37395" lon="-8.6254">
        <ele>115.98</ele>
        <time>2019-06-05T09:10:53Z</time>
      </trkpt>
      <trkpt lat="42.37399" lon="-8.6254">
        <ele>115.01</ele>
        <time>2019-06-05T09:10:56Z</time>
      </trkpt>
      <trkpt lat="42.37416" lon="-8.62539">
        <ele>114.05</ele>
        <time>2019-06-05T09:11:10Z</time>
      </trkpt>
      <trkpt lat="42.37432" lon="-8.62537">
        <ele>113.09</ele>
        <time>2019-06-05T09:11:23Z</time>
      </trkpt>
      <trkpt lat="42.37441" lon="-8.62538">
        <ele>112.61</ele>
        <time>2019-06-05T09:11:31Z</time>
      </trkpt>
      <trkpt lat="42.37442" lon="-8.62539">
        <ele>112.13</ele>
        <time>2019-06-05T09:11:32Z</time>
      </trkpt>
      <trkpt lat="42.37446" lon="-8.62541">
        <ele>112.13</ele>
        <time>2019-06-05T09:11:35Z</time>
      </trkpt>
      <trkpt lat="42.3745" lon="-8.62543">
        <ele>111.65</ele>
        <time>2019-06-05T09:11:39Z</time>
      </trkpt>
      <trkpt lat="42.37462" lon="-8.62557">
        <ele>109.73</ele>
        <time>2019-06-05T09:11:53Z</time>
      </trkpt>
      <trkpt lat="42.37466" lon="-8.62562">
        <ele>109.25</ele>
        <time>2019-06-05T09:11:59Z</time>
      </trkpt>
      <trkpt lat="42.37467" lon="-8.62562">
        <ele>108.77</ele>
        <time>2019-06-05T09:12:00Z</time>
      </trkpt>
      <trkpt lat="42.3748" lon="-8.62572">
        <ele>107.32</ele>
        <time>2019-06-05T09:12:12Z</time>
      </trkpt>
      <trkpt lat="42.37497" lon="-8.62581">
        <ele>105.88</ele>
        <time>2019-06-05T09:12:28Z</time>
      </trkpt>
      <trkpt lat="42.37498" lon="-8.62581">
        <ele>105.88</ele>
        <time>2019-06-05T09:12:29Z</time>
      </trkpt>
      <trkpt lat="42.37512" lon="-8.62589">
        <ele>104.44</ele>
        <time>2019-06-05T09:12:41Z</time>
      </trkpt>
      <trkpt lat="42.37513" lon="-8.62589">
        <ele>104.92</ele>
        <time>2019-06-05T09:12:42Z</time>
      </trkpt>
      <trkpt lat="42.37523" lon="-8.626">
        <ele>103.48</ele>
        <time>2019-06-05T09:12:51Z</time>
      </trkpt>
      <trkpt lat="42.37524" lon="-8.62601">
        <ele>102.52</ele>
        <time>2019-06-05T09:12:52Z</time>
      </trkpt>
      <trkpt lat="42.37525" lon="-8.62601">
        <ele>102.52</ele>
        <time>2019-06-05T09:12:53Z</time>
      </trkpt>
      <trkpt lat="42.37532" lon="-8.62612">
        <ele>102.04</ele>
        <time>2019-06-05T09:13:02Z</time>
      </trkpt>
      <trkpt lat="42.37535" lon="-8.62616">
        <ele>102.04</ele>
        <time>2019-06-05T09:13:05Z</time>
      </trkpt>
      <trkpt lat="42.37536" lon="-8.62617">
        <ele>101.56</ele>
        <time>2019-06-05T09:13:06Z</time>
      </trkpt>
      <trkpt lat="42.37538" lon="-8.6262">
        <ele>101.56</ele>
        <time>2019-06-05T09:13:08Z</time>
      </trkpt>
      <trkpt lat="42.37546" lon="-8.62626">
        <ele>100.6</ele>
        <time>2019-06-05T09:13:16Z</time>
      </trkpt>
      <trkpt lat="42.37547" lon="-8.62627">
        <ele>100.6</ele>
        <time>2019-06-05T09:13:17Z</time>
      </trkpt>
      <trkpt lat="42.37548" lon="-8.62629">
        <ele>100.11</ele>
        <time>2019-06-05T09:13:18Z</time>
      </trkpt>
      <trkpt lat="42.37549" lon="-8.6263">
        <ele>100.6</ele>
        <time>2019-06-05T09:13:19Z</time>
      </trkpt>
      <trkpt lat="42.3755" lon="-8.6263">
        <ele>100.6</ele>
        <time>2019-06-05T09:13:20Z</time>
      </trkpt>
      <trkpt lat="42.37553" lon="-8.62633">
        <ele>100.11</ele>
        <time>2019-06-05T09:13:23Z</time>
      </trkpt>
      <trkpt lat="42.37554" lon="-8.62634">
        <ele>100.11</ele>
        <time>2019-06-05T09:13:24Z</time>
      </trkpt>
      <trkpt lat="42.37555" lon="-8.62635">
        <ele>100.11</ele>
        <time>2019-06-05T09:13:25Z</time>
      </trkpt>
      <trkpt lat="42.37556" lon="-8.62636">
        <ele>100.11</ele>
        <time>2019-06-05T09:13:26Z</time>
      </trkpt>
      <trkpt lat="42.37561" lon="-8.62644">
        <ele>98.67</ele>
        <time>2019-06-05T09:13:32Z</time>
      </trkpt>
      <trkpt lat="42.37562" lon="-8.62645">
        <ele>98.67</ele>
        <time>2019-06-05T09:13:33Z</time>
      </trkpt>
      <trkpt lat="42.37577" lon="-8.62654">
        <ele>97.23</ele>
        <time>2019-06-05T09:13:46Z</time>
      </trkpt>
      <trkpt lat="42.37578" lon="-8.62655">
        <ele>96.27</ele>
        <time>2019-06-05T09:13:47Z</time>
      </trkpt>
      <trkpt lat="42.37579" lon="-8.62656">
        <ele>96.75</ele>
        <time>2019-06-05T09:13:48Z</time>
      </trkpt>
      <trkpt lat="42.3758" lon="-8.62657">
        <ele>97.23</ele>
        <time>2019-06-05T09:13:49Z</time>
      </trkpt>
      <trkpt lat="42.37594" lon="-8.62669">
        <ele>93.87</ele>
        <time>2019-06-05T09:14:03Z</time>
      </trkpt>
      <trkpt lat="42.37595" lon="-8.6267">
        <ele>93.87</ele>
        <time>2019-06-05T09:14:04Z</time>
      </trkpt>
      <trkpt lat="42.37609" lon="-8.62681">
        <ele>93.87</ele>
        <time>2019-06-05T09:14:17Z</time>
      </trkpt>
      <trkpt lat="42.37619" lon="-8.62691">
        <ele>92.9</ele>
        <time>2019-06-05T09:14:30Z</time>
      </trkpt>
      <trkpt lat="42.37637" lon="-8.62701">
        <ele>92.9</ele>
        <time>2019-06-05T09:14:44Z</time>
      </trkpt>
      <trkpt lat="42.37643" lon="-8.62703">
        <ele>92.42</ele>
        <time>2019-06-05T09:14:49Z</time>
      </trkpt>
      <trkpt lat="42.37661" lon="-8.62703">
        <ele>93.39</ele>
        <time>2019-06-05T09:15:03Z</time>
      </trkpt>
      <trkpt lat="42.37679" lon="-8.62701">
        <ele>94.83</ele>
        <time>2019-06-05T09:15:18Z</time>
      </trkpt>
      <trkpt lat="42.37696" lon="-8.62699">
        <ele>95.79</ele>
        <time>2019-06-05T09:15:30Z</time>
      </trkpt>
      <trkpt lat="42.37714" lon="-8.62697">
        <ele>96.75</ele>
        <time>2019-06-05T09:15:45Z</time>
      </trkpt>
      <trkpt lat="42.37716" lon="-8.62696">
        <ele>97.23</ele>
        <time>2019-06-05T09:15:47Z</time>
      </trkpt>
      <trkpt lat="42.37718" lon="-8.62697">
        <ele>97.71</ele>
        <time>2019-06-05T09:15:49Z</time>
      </trkpt>
      <trkpt lat="42.37719" lon="-8.62697">
        <ele>97.71</ele>
        <time>2019-06-05T09:15:50Z</time>
      </trkpt>
      <trkpt lat="42.37725" lon="-8.62701">
        <ele>98.19</ele>
        <time>2019-06-05T09:15:57Z</time>
      </trkpt>
      <trkpt lat="42.37726" lon="-8.62702">
        <ele>98.67</ele>
        <time>2019-06-05T09:15:58Z</time>
      </trkpt>
      <trkpt lat="42.37727" lon="-8.62703">
        <ele>98.19</ele>
        <time>2019-06-05T09:15:59Z</time>
      </trkpt>
      <trkpt lat="42.37731" lon="-8.62709">
        <ele>98.67</ele>
        <time>2019-06-05T09:16:04Z</time>
      </trkpt>
      <trkpt lat="42.37744" lon="-8.62723">
        <ele>98.67</ele>
        <time>2019-06-05T09:16:17Z</time>
      </trkpt>
      <trkpt lat="42.37754" lon="-8.62728">
        <ele>97.23</ele>
        <time>2019-06-05T09:16:25Z</time>
      </trkpt>
      <trkpt lat="42.37757" lon="-8.62727">
        <ele>97.71</ele>
        <time>2019-06-05T09:16:28Z</time>
      </trkpt>
      <trkpt lat="42.3777" lon="-8.62725">
        <ele>96.27</ele>
        <time>2019-06-05T09:16:41Z</time>
      </trkpt>
      <trkpt lat="42.37782" lon="-8.62723">
        <ele>96.27</ele>
        <time>2019-06-05T09:16:53Z</time>
      </trkpt>
      <trkpt lat="42.37784" lon="-8.62723">
        <ele>96.27</ele>
        <time>2019-06-05T09:16:55Z</time>
      </trkpt>
      <trkpt lat="42.37785" lon="-8.62723">
        <ele>96.27</ele>
        <time>2019-06-05T09:16:56Z</time>
      </trkpt>
      <trkpt lat="42.37787" lon="-8.62723">
        <ele>96.27</ele>
        <time>2019-06-05T09:16:57Z</time>
      </trkpt>
      <trkpt lat="42.37788" lon="-8.62724">
        <ele>96.27</ele>
        <time>2019-06-05T09:16:58Z</time>
      </trkpt>
      <trkpt lat="42.37795" lon="-8.62725">
        <ele>95.79</ele>
        <time>2019-06-05T09:17:04Z</time>
      </trkpt>
      <trkpt lat="42.37797" lon="-8.62725">
        <ele>95.79</ele>
        <time>2019-06-05T09:17:05Z</time>
      </trkpt>
      <trkpt lat="42.37798" lon="-8.62726">
        <ele>95.79</ele>
        <time>2019-06-05T09:17:06Z</time>
      </trkpt>
      <trkpt lat="42.378" lon="-8.62726">
        <ele>95.79</ele>
        <time>2019-06-05T09:17:07Z</time>
      </trkpt>
      <trkpt lat="42.37801" lon="-8.62726">
        <ele>95.79</ele>
        <time>2019-06-05T09:17:08Z</time>
      </trkpt>
      <trkpt lat="42.37817" lon="-8.62729">
        <ele>94.83</ele>
        <time>2019-06-05T09:17:21Z</time>
      </trkpt>
      <trkpt lat="42.3783" lon="-8.62728">
        <ele>93.39</ele>
        <time>2019-06-05T09:17:33Z</time>
      </trkpt>
      <trkpt lat="42.37836" lon="-8.62728">
        <ele>93.39</ele>
        <time>2019-06-05T09:17:37Z</time>
      </trkpt>
      <trkpt lat="42.37845" lon="-8.62733">
        <ele>92.42</ele>
        <time>2019-06-05T09:17:46Z</time>
      </trkpt>
      <trkpt lat="42.3785" lon="-8.62738">
        <ele>91.46</ele>
        <time>2019-06-05T09:17:51Z</time>
      </trkpt>
      <trkpt lat="42.37852" lon="-8.6274">
        <ele>90.5</ele>
        <time>2019-06-05T09:17:52Z</time>
      </trkpt>
      <trkpt lat="42.37853" lon="-8.62741">
        <ele>90.02</ele>
        <time>2019-06-05T09:17:53Z</time>
      </trkpt>
      <trkpt lat="42.37854" lon="-8.62742">
        <ele>90.98</ele>
        <time>2019-06-05T09:17:54Z</time>
      </trkpt>
      <trkpt lat="42.37857" lon="-8.62745">
        <ele>90.02</ele>
        <time>2019-06-05T09:17:57Z</time>
      </trkpt>
      <trkpt lat="42.37871" lon="-8.62757">
        <ele>88.58</ele>
        <time>2019-06-05T09:18:09Z</time>
      </trkpt>
      <trkpt lat="42.37873" lon="-8.62757">
        <ele>88.1</ele>
        <time>2019-06-05T09:18:10Z</time>
      </trkpt>
      <trkpt lat="42.37874" lon="-8.62758">
        <ele>88.58</ele>
        <time>2019-06-05T09:18:11Z</time>
      </trkpt>
      <trkpt lat="42.37879" lon="-8.62764">
        <ele>87.62</ele>
        <time>2019-06-05T09:18:16Z</time>
      </trkpt>
      <trkpt lat="42.3788" lon="-8.62765">
        <ele>87.14</ele>
        <time>2019-06-05T09:18:17Z</time>
      </trkpt>
      <trkpt lat="42.37881" lon="-8.62767">
        <ele>87.14</ele>
        <time>2019-06-05T09:18:18Z</time>
      </trkpt>
      <trkpt lat="42.37896" lon="-8.62779">
        <ele>84.73</ele>
        <time>2019-06-05T09:18:32Z</time>
      </trkpt>
      <trkpt lat="42.37904" lon="-8.62785">
        <ele>84.25</ele>
        <time>2019-06-05T09:18:44Z</time>
      </trkpt>
      <trkpt lat="42.37907" lon="-8.62795">
        <ele>83.29</ele>
        <time>2019-06-05T09:18:58Z</time>
      </trkpt>
      <trkpt lat="42.37907" lon="-8.62799">
        <ele>83.29</ele>
        <time>2019-06-05T09:19:00Z</time>
      </trkpt>
      <trkpt lat="42.37912" lon="-8.6281">
        <ele>82.81</ele>
        <time>2019-06-05T09:19:08Z</time>
      </trkpt>
      <trkpt lat="42.37913" lon="-8.62811">
        <ele>82.33</ele>
        <time>2019-06-05T09:19:09Z</time>
      </trkpt>
      <trkpt lat="42.37913" lon="-8.62813">
        <ele>82.33</ele>
        <time>2019-06-05T09:19:10Z</time>
      </trkpt>
      <trkpt lat="42.37914" lon="-8.62814">
        <ele>82.33</ele>
        <time>2019-06-05T09:19:11Z</time>
      </trkpt>
      <trkpt lat="42.37915" lon="-8.62816">
        <ele>82.33</ele>
        <time>2019-06-05T09:19:12Z</time>
      </trkpt>
      <trkpt lat="42.37922" lon="-8.62835">
        <ele>80.89</ele>
        <time>2019-06-05T09:19:24Z</time>
      </trkpt>
      <trkpt lat="42.37924" lon="-8.62839">
        <ele>80.41</ele>
        <time>2019-06-05T09:19:27Z</time>
      </trkpt>
      <trkpt lat="42.37925" lon="-8.62845">
        <ele>79.93</ele>
        <time>2019-06-05T09:19:30Z</time>
      </trkpt>
      <trkpt lat="42.37926" lon="-8.6285">
        <ele>79.45</ele>
        <time>2019-06-05T09:19:33Z</time>
      </trkpt>
      <trkpt lat="42.37927" lon="-8.62856">
        <ele>79.45</ele>
        <time>2019-06-05T09:19:37Z</time>
      </trkpt>
      <trkpt lat="42.37928" lon="-8.62857">
        <ele>79.45</ele>
        <time>2019-06-05T09:19:38Z</time>
      </trkpt>
      <trkpt lat="42.37929" lon="-8.6286">
        <ele>79.45</ele>
        <time>2019-06-05T09:19:40Z</time>
      </trkpt>
      <trkpt lat="42.3793" lon="-8.62862">
        <ele>78.97</ele>
        <time>2019-06-05T09:19:41Z</time>
      </trkpt>
      <trkpt lat="42.37931" lon="-8.62863">
        <ele>78.48</ele>
        <time>2019-06-05T09:19:42Z</time>
      </trkpt>
      <trkpt lat="42.37933" lon="-8.62869">
        <ele>78.48</ele>
        <time>2019-06-05T09:19:47Z</time>
      </trkpt>
      <trkpt lat="42.37934" lon="-8.62871">
        <ele>78.48</ele>
        <time>2019-06-05T09:19:48Z</time>
      </trkpt>
      <trkpt lat="42.37936" lon="-8.6288">
        <ele>78.97</ele>
        <time>2019-06-05T09:20:00Z</time>
      </trkpt>
      <trkpt lat="42.37938" lon="-8.62884">
        <ele>78.48</ele>
        <time>2019-06-05T09:20:03Z</time>
      </trkpt>
      <trkpt lat="42.37948" lon="-8.62898">
        <ele>77.04</ele>
        <time>2019-06-05T09:20:15Z</time>
      </trkpt>
      <trkpt lat="42.37954" lon="-8.62904">
        <ele>77.04</ele>
        <time>2019-06-05T09:20:21Z</time>
      </trkpt>
      <trkpt lat="42.37971" lon="-8.62919">
        <ele>76.08</ele>
        <time>2019-06-05T09:20:36Z</time>
      </trkpt>
      <trkpt lat="42.37986" lon="-8.62926">
        <ele>75.6</ele>
        <time>2019-06-05T09:20:50Z</time>
      </trkpt>
      <trkpt lat="42.38" lon="-8.62932">
        <ele>75.12</ele>
        <time>2019-06-05T09:21:01Z</time>
      </trkpt>
      <trkpt lat="42.38016" lon="-8.62936">
        <ele>74.16</ele>
        <time>2019-06-05T09:21:15Z</time>
      </trkpt>
      <trkpt lat="42.38021" lon="-8.62937">
        <ele>74.16</ele>
        <time>2019-06-05T09:21:22Z</time>
      </trkpt>
      <trkpt lat="42.38037" lon="-8.62945">
        <ele>73.68</ele>
        <time>2019-06-05T09:21:37Z</time>
      </trkpt>
      <trkpt lat="42.38052" lon="-8.62952">
        <ele>72.24</ele>
        <time>2019-06-05T09:21:49Z</time>
      </trkpt>
      <trkpt lat="42.38056" lon="-8.62953">
        <ele>69.35</ele>
        <time>2019-06-05T09:21:56Z</time>
      </trkpt>
      <trkpt lat="42.38056" lon="-8.62953">
        <ele>69.35</ele>
        <time>2019-06-05T09:21:57Z</time>
      </trkpt>
      <trkpt lat="42.38057" lon="-8.62953">
        <ele>71.76</ele>
        <time>2019-06-05T09:21:59Z</time>
      </trkpt>
      <trkpt lat="42.38056" lon="-8.62953">
        <ele>77.04</ele>
        <time>2019-06-05T09:22:02Z</time>
      </trkpt>
      <trkpt lat="42.38058" lon="-8.62952">
        <ele>72.72</ele>
        <time>2019-06-05T09:22:03Z</time>
      </trkpt>
      <trkpt lat="42.38066" lon="-8.62956">
        <ele>71.76</ele>
        <time>2019-06-05T09:22:14Z</time>
      </trkpt>
      <trkpt lat="42.38067" lon="-8.62956">
        <ele>70.79</ele>
        <time>2019-06-05T09:22:15Z</time>
      </trkpt>
      <trkpt lat="42.38068" lon="-8.62957">
        <ele>71.27</ele>
        <time>2019-06-05T09:22:16Z</time>
      </trkpt>
      <trkpt lat="42.38069" lon="-8.62957">
        <ele>71.27</ele>
        <time>2019-06-05T09:22:17Z</time>
      </trkpt>
      <trkpt lat="42.38083" lon="-8.6296">
        <ele>70.79</ele>
        <time>2019-06-05T09:22:28Z</time>
      </trkpt>
      <trkpt lat="42.38098" lon="-8.62957">
        <ele>70.31</ele>
        <time>2019-06-05T09:22:41Z</time>
      </trkpt>
      <trkpt lat="42.38114" lon="-8.62955">
        <ele>67.91</ele>
        <time>2019-06-05T09:22:53Z</time>
      </trkpt>
      <trkpt lat="42.38116" lon="-8.62955">
        <ele>69.35</ele>
        <time>2019-06-05T09:22:55Z</time>
      </trkpt>
      <trkpt lat="42.38132" lon="-8.62949">
        <ele>68.87</ele>
        <time>2019-06-05T09:23:09Z</time>
      </trkpt>
      <trkpt lat="42.38137" lon="-8.62952">
        <ele>73.2</ele>
        <time>2019-06-05T09:23:18Z</time>
      </trkpt>
      <trkpt lat="42.38138" lon="-8.62952">
        <ele>68.87</ele>
        <time>2019-06-05T09:23:19Z</time>
      </trkpt>
      <trkpt lat="42.3814" lon="-8.62955">
        <ele>67.91</ele>
        <time>2019-06-05T09:23:45Z</time>
      </trkpt>
      <trkpt lat="42.3815" lon="-8.62948">
        <ele>67.43</ele>
        <time>2019-06-05T09:24:13Z</time>
      </trkpt>
      <trkpt lat="42.38167" lon="-8.62948">
        <ele>66.95</ele>
        <time>2019-06-05T09:24:26Z</time>
      </trkpt>
      <trkpt lat="42.38179" lon="-8.62953">
        <ele>65.51</ele>
        <time>2019-06-05T09:24:39Z</time>
      </trkpt>
      <trkpt lat="42.38191" lon="-8.62955">
        <ele>64.07</ele>
        <time>2019-06-05T09:24:47Z</time>
      </trkpt>
      <trkpt lat="42.38203" lon="-8.62957">
        <ele>63.58</ele>
        <time>2019-06-05T09:24:59Z</time>
      </trkpt>
      <trkpt lat="42.38206" lon="-8.62957">
        <ele>63.58</ele>
        <time>2019-06-05T09:25:01Z</time>
      </trkpt>
      <trkpt lat="42.38208" lon="-8.62957">
        <ele>64.07</ele>
        <time>2019-06-05T09:25:02Z</time>
      </trkpt>
      <trkpt lat="42.3821" lon="-8.62957">
        <ele>63.1</ele>
        <time>2019-06-05T09:25:03Z</time>
      </trkpt>
      <trkpt lat="42.38212" lon="-8.62957">
        <ele>63.58</ele>
        <time>2019-06-05T09:25:04Z</time>
      </trkpt>
      <trkpt lat="42.38226" lon="-8.62959">
        <ele>62.62</ele>
        <time>2019-06-05T09:25:16Z</time>
      </trkpt>
      <trkpt lat="42.38244" lon="-8.62961">
        <ele>61.66</ele>
        <time>2019-06-05T09:25:29Z</time>
      </trkpt>
      <trkpt lat="42.38252" lon="-8.62964">
        <ele>60.7</ele>
        <time>2019-06-05T09:25:41Z</time>
      </trkpt>
      <trkpt lat="42.3826" lon="-8.62964">
        <ele>55.41</ele>
        <time>2019-06-05T09:25:47Z</time>
      </trkpt>
      <trkpt lat="42.3826" lon="-8.62964">
        <ele>55.41</ele>
        <time>2019-06-05T09:25:48Z</time>
      </trkpt>
      <trkpt lat="42.38262" lon="-8.62964">
        <ele>65.03</ele>
        <time>2019-06-05T09:25:49Z</time>
      </trkpt>
      <trkpt lat="42.38263" lon="-8.62965">
        <ele>60.7</ele>
        <time>2019-06-05T09:25:50Z</time>
      </trkpt>
      <trkpt lat="42.38268" lon="-8.62965">
        <ele>60.7</ele>
        <time>2019-06-05T09:25:54Z</time>
      </trkpt>
      <trkpt lat="42.3827" lon="-8.62965">
        <ele>60.7</ele>
        <time>2019-06-05T09:25:56Z</time>
      </trkpt>
      <trkpt lat="42.38271" lon="-8.62966">
        <ele>60.7</ele>
        <time>2019-06-05T09:25:57Z</time>
      </trkpt>
      <trkpt lat="42.38286" lon="-8.62969">
        <ele>59.74</ele>
        <time>2019-06-05T09:26:10Z</time>
      </trkpt>
      <trkpt lat="42.38302" lon="-8.62973">
        <ele>58.78</ele>
        <time>2019-06-05T09:26:23Z</time>
      </trkpt>
      <trkpt lat="42.38315" lon="-8.62983">
        <ele>58.78</ele>
        <time>2019-06-05T09:26:36Z</time>
      </trkpt>
      <trkpt lat="42.38329" lon="-8.62989">
        <ele>58.3</ele>
        <time>2019-06-05T09:26:45Z</time>
      </trkpt>
      <trkpt lat="42.38338" lon="-8.62992">
        <ele>57.82</ele>
        <time>2019-06-05T09:26:52Z</time>
      </trkpt>
      <trkpt lat="42.38342" lon="-8.62994">
        <ele>57.34</ele>
        <time>2019-06-05T09:26:55Z</time>
      </trkpt>
      <trkpt lat="42.38345" lon="-8.62996">
        <ele>56.86</ele>
        <time>2019-06-05T09:26:59Z</time>
      </trkpt>
      <trkpt lat="42.38347" lon="-8.62997">
        <ele>56.37</ele>
        <time>2019-06-05T09:27:01Z</time>
      </trkpt>
      <trkpt lat="42.38349" lon="-8.62999">
        <ele>55.89</ele>
        <time>2019-06-05T09:27:03Z</time>
      </trkpt>
      <trkpt lat="42.3835" lon="-8.63">
        <ele>54.93</ele>
        <time>2019-06-05T09:27:04Z</time>
      </trkpt>
      <trkpt lat="42.38361" lon="-8.63009">
        <ele>53.49</ele>
        <time>2019-06-05T09:27:15Z</time>
      </trkpt>
      <trkpt lat="42.38371" lon="-8.63006">
        <ele>51.09</ele>
        <time>2019-06-05T09:27:29Z</time>
      </trkpt>
      <trkpt lat="42.38385" lon="-8.62999">
        <ele>47.72</ele>
        <time>2019-06-05T09:27:41Z</time>
      </trkpt>
      <trkpt lat="42.38388" lon="-8.62998">
        <ele>47.72</ele>
        <time>2019-06-05T09:27:44Z</time>
      </trkpt>
      <trkpt lat="42.38389" lon="-8.62998">
        <ele>46.76</ele>
        <time>2019-06-05T09:27:45Z</time>
      </trkpt>
      <trkpt lat="42.38391" lon="-8.62998">
        <ele>46.76</ele>
        <time>2019-06-05T09:27:46Z</time>
      </trkpt>
      <trkpt lat="42.38392" lon="-8.62997">
        <ele>46.28</ele>
        <time>2019-06-05T09:27:47Z</time>
      </trkpt>
      <trkpt lat="42.38402" lon="-8.63001">
        <ele>45.8</ele>
        <time>2019-06-05T09:27:54Z</time>
      </trkpt>
      <trkpt lat="42.38404" lon="-8.63001">
        <ele>45.32</ele>
        <time>2019-06-05T09:27:55Z</time>
      </trkpt>
      <trkpt lat="42.38405" lon="-8.63002">
        <ele>45.8</ele>
        <time>2019-06-05T09:27:56Z</time>
      </trkpt>
      <trkpt lat="42.38406" lon="-8.63002">
        <ele>45.8</ele>
        <time>2019-06-05T09:27:57Z</time>
      </trkpt>
      <trkpt lat="42.38415" lon="-8.6301">
        <ele>45.32</ele>
        <time>2019-06-05T09:28:06Z</time>
      </trkpt>
      <trkpt lat="42.38427" lon="-8.63024">
        <ele>44.84</ele>
        <time>2019-06-05T09:28:20Z</time>
      </trkpt>
      <trkpt lat="42.38431" lon="-8.63029">
        <ele>44.36</ele>
        <time>2019-06-05T09:28:37Z</time>
      </trkpt>
      <trkpt lat="42.38449" lon="-8.63045">
        <ele>43.4</ele>
        <time>2019-06-05T09:28:52Z</time>
      </trkpt>
      <trkpt lat="42.38455" lon="-8.6305">
        <ele>42.92</ele>
        <time>2019-06-05T09:29:06Z</time>
      </trkpt>
      <trkpt lat="42.38459" lon="-8.63055">
        <ele>43.4</ele>
        <time>2019-06-05T09:29:30Z</time>
      </trkpt>
      <trkpt lat="42.38458" lon="-8.63054">
        <ele>42.92</ele>
        <time>2019-06-05T09:29:55Z</time>
      </trkpt>
      <trkpt lat="42.38456" lon="-8.63055">
        <ele>42.92</ele>
        <time>2019-06-05T09:30:12Z</time>
      </trkpt>
      <trkpt lat="42.38459" lon="-8.63059">
        <ele>42.44</ele>
        <time>2019-06-05T09:30:16Z</time>
      </trkpt>
      <trkpt lat="42.38459" lon="-8.6306">
        <ele>41.95</ele>
        <time>2019-06-05T09:30:17Z</time>
      </trkpt>
      <trkpt lat="42.38464" lon="-8.63063">
        <ele>42.44</ele>
        <time>2019-06-05T09:30:22Z</time>
      </trkpt>
      <trkpt lat="42.38465" lon="-8.63063">
        <ele>41.95</ele>
        <time>2019-06-05T09:30:23Z</time>
      </trkpt>
      <trkpt lat="42.38466" lon="-8.63063">
        <ele>41.95</ele>
        <time>2019-06-05T09:30:24Z</time>
      </trkpt>
      <trkpt lat="42.38468" lon="-8.63063">
        <ele>41.95</ele>
        <time>2019-06-05T09:30:25Z</time>
      </trkpt>
      <trkpt lat="42.38478" lon="-8.63059">
        <ele>41.95</ele>
        <time>2019-06-05T09:30:36Z</time>
      </trkpt>
      <trkpt lat="42.38488" lon="-8.63056">
        <ele>41.95</ele>
        <time>2019-06-05T09:30:47Z</time>
      </trkpt>
      <trkpt lat="42.385" lon="-8.63052">
        <ele>40.99</ele>
        <time>2019-06-05T09:30:58Z</time>
      </trkpt>
      <trkpt lat="42.38512" lon="-8.63049">
        <ele>41.47</ele>
        <time>2019-06-05T09:31:09Z</time>
      </trkpt>
      <trkpt lat="42.38529" lon="-8.63049">
        <ele>42.44</ele>
        <time>2019-06-05T09:31:22Z</time>
      </trkpt>
      <trkpt lat="42.38543" lon="-8.6305">
        <ele>41.47</ele>
        <time>2019-06-05T09:31:34Z</time>
      </trkpt>
      <trkpt lat="42.38549" lon="-8.6305">
        <ele>41.95</ele>
        <time>2019-06-05T09:31:40Z</time>
      </trkpt>
      <trkpt lat="42.38568" lon="-8.63046">
        <ele>41.95</ele>
        <time>2019-06-05T09:31:54Z</time>
      </trkpt>
      <trkpt lat="42.38582" lon="-8.63043">
        <ele>42.44</ele>
        <time>2019-06-05T09:32:06Z</time>
      </trkpt>
      <trkpt lat="42.38592" lon="-8.63044">
        <ele>41.95</ele>
        <time>2019-06-05T09:32:14Z</time>
      </trkpt>
      <trkpt lat="42.38594" lon="-8.63043">
        <ele>42.92</ele>
        <time>2019-06-05T09:32:15Z</time>
      </trkpt>
      <trkpt lat="42.38606" lon="-8.63044">
        <ele>42.44</ele>
        <time>2019-06-05T09:32:31Z</time>
      </trkpt>
      <trkpt lat="42.38612" lon="-8.63044">
        <ele>42.92</ele>
        <time>2019-06-05T09:32:39Z</time>
      </trkpt>
      <trkpt lat="42.38617" lon="-8.63047">
        <ele>41.95</ele>
        <time>2019-06-05T09:32:44Z</time>
      </trkpt>
      <trkpt lat="42.38633" lon="-8.63041">
        <ele>41.47</ele>
        <time>2019-06-05T09:32:58Z</time>
      </trkpt>
      <trkpt lat="42.38647" lon="-8.63036">
        <ele>40.99</ele>
        <time>2019-06-05T09:33:10Z</time>
      </trkpt>
      <trkpt lat="42.38656" lon="-8.63025">
        <ele>41.47</ele>
        <time>2019-06-05T09:33:23Z</time>
      </trkpt>
      <trkpt lat="42.38673" lon="-8.63015">
        <ele>40.51</ele>
        <time>2019-06-05T09:33:34Z</time>
      </trkpt>
      <trkpt lat="42.38688" lon="-8.63004">
        <ele>40.51</ele>
        <time>2019-06-05T09:33:47Z</time>
      </trkpt>
      <trkpt lat="42.38702" lon="-8.62994">
        <ele>39.55</ele>
        <time>2019-06-05T09:34:02Z</time>
      </trkpt>
      <trkpt lat="42.38704" lon="-8.62993">
        <ele>39.55</ele>
        <time>2019-06-05T09:34:04Z</time>
      </trkpt>
      <trkpt lat="42.38723" lon="-8.62987">
        <ele>40.03</ele>
        <time>2019-06-05T09:34:18Z</time>
      </trkpt>
      <trkpt lat="42.38736" lon="-8.62978">
        <ele>39.55</ele>
        <time>2019-06-05T09:34:29Z</time>
      </trkpt>
      <trkpt lat="42.38738" lon="-8.62975">
        <ele>39.55</ele>
        <time>2019-06-05T09:34:31Z</time>
      </trkpt>
      <trkpt lat="42.38739" lon="-8.62974">
        <ele>40.99</ele>
        <time>2019-06-05T09:34:32Z</time>
      </trkpt>
      <trkpt lat="42.38741" lon="-8.62973">
        <ele>40.03</ele>
        <time>2019-06-05T09:34:33Z</time>
      </trkpt>
      <trkpt lat="42.38753" lon="-8.62964">
        <ele>40.51</ele>
        <time>2019-06-05T09:34:43Z</time>
      </trkpt>
      <trkpt lat="42.38757" lon="-8.62958">
        <ele>40.03</ele>
        <time>2019-06-05T09:34:50Z</time>
      </trkpt>
      <trkpt lat="42.3877" lon="-8.62949">
        <ele>40.51</ele>
        <time>2019-06-05T09:35:02Z</time>
      </trkpt>
      <trkpt lat="42.38786" lon="-8.62951">
        <ele>40.03</ele>
        <time>2019-06-05T09:35:14Z</time>
      </trkpt>
      <trkpt lat="42.38793" lon="-8.62951">
        <ele>39.55</ele>
        <time>2019-06-05T09:35:21Z</time>
      </trkpt>
      <trkpt lat="42.38796" lon="-8.62951">
        <ele>40.51</ele>
        <time>2019-06-05T09:35:24Z</time>
      </trkpt>
      <trkpt lat="42.38801" lon="-8.62952">
        <ele>39.55</ele>
        <time>2019-06-05T09:35:28Z</time>
      </trkpt>
      <trkpt lat="42.38803" lon="-8.62952">
        <ele>40.03</ele>
        <time>2019-06-05T09:35:29Z</time>
      </trkpt>
      <trkpt lat="42.38814" lon="-8.62956">
        <ele>40.03</ele>
        <time>2019-06-05T09:35:39Z</time>
      </trkpt>
      <trkpt lat="42.38829" lon="-8.62962">
        <ele>40.51</ele>
        <time>2019-06-05T09:35:53Z</time>
      </trkpt>
      <trkpt lat="42.3883" lon="-8.62962">
        <ele>40.51</ele>
        <time>2019-06-05T09:35:54Z</time>
      </trkpt>
      <trkpt lat="42.38831" lon="-8.62963">
        <ele>40.03</ele>
        <time>2019-06-05T09:35:55Z</time>
      </trkpt>
      <trkpt lat="42.3885" lon="-8.62972">
        <ele>40.51</ele>
        <time>2019-06-05T09:36:09Z</time>
      </trkpt>
      <trkpt lat="42.38863" lon="-8.62977">
        <ele>40.03</ele>
        <time>2019-06-05T09:36:20Z</time>
      </trkpt>
      <trkpt lat="42.38877" lon="-8.62982">
        <ele>39.55</ele>
        <time>2019-06-05T09:36:34Z</time>
      </trkpt>
      <trkpt lat="42.38879" lon="-8.62982">
        <ele>39.07</ele>
        <time>2019-06-05T09:36:36Z</time>
      </trkpt>
      <trkpt lat="42.38887" lon="-8.62985">
        <ele>39.55</ele>
        <time>2019-06-05T09:36:42Z</time>
      </trkpt>
      <trkpt lat="42.38902" lon="-8.62991">
        <ele>39.55</ele>
        <time>2019-06-05T09:36:54Z</time>
      </trkpt>
      <trkpt lat="42.38915" lon="-8.62994">
        <ele>40.03</ele>
        <time>2019-06-05T09:37:06Z</time>
      </trkpt>
      <trkpt lat="42.38927" lon="-8.62997">
        <ele>41.47</ele>
        <time>2019-06-05T09:37:16Z</time>
      </trkpt>
      <trkpt lat="42.38948" lon="-8.63002">
        <ele>39.07</ele>
        <time>2019-06-05T09:37:31Z</time>
      </trkpt>
      <trkpt lat="42.3896" lon="-8.63003">
        <ele>38.59</ele>
        <time>2019-06-05T09:37:42Z</time>
      </trkpt>
      <trkpt lat="42.3897" lon="-8.63005">
        <ele>38.11</ele>
        <time>2019-06-05T09:37:51Z</time>
      </trkpt>
      <trkpt lat="42.38975" lon="-8.63004">
        <ele>38.11</ele>
        <time>2019-06-05T09:37:55Z</time>
      </trkpt>
      <trkpt lat="42.38979" lon="-8.63004">
        <ele>37.63</ele>
        <time>2019-06-05T09:37:58Z</time>
      </trkpt>
      <trkpt lat="42.38991" lon="-8.63002">
        <ele>37.15</ele>
        <time>2019-06-05T09:38:10Z</time>
      </trkpt>
      <trkpt lat="42.39012" lon="-8.62997">
        <ele>36.67</ele>
        <time>2019-06-05T09:38:22Z</time>
      </trkpt>
      <trkpt lat="42.39021" lon="-8.62994">
        <ele>36.19</ele>
        <time>2019-06-05T09:38:30Z</time>
      </trkpt>
      <trkpt lat="42.39022" lon="-8.62993">
        <ele>36.19</ele>
        <time>2019-06-05T09:38:31Z</time>
      </trkpt>
      <trkpt lat="42.39037" lon="-8.62987">
        <ele>36.19</ele>
        <time>2019-06-05T09:38:43Z</time>
      </trkpt>
      <trkpt lat="42.39048" lon="-8.62979">
        <ele>35.71</ele>
        <time>2019-06-05T09:38:55Z</time>
      </trkpt>
      <trkpt lat="42.39062" lon="-8.62976">
        <ele>35.23</ele>
        <time>2019-06-05T09:39:06Z</time>
      </trkpt>
      <trkpt lat="42.3908" lon="-8.62972">
        <ele>35.23</ele>
        <time>2019-06-05T09:39:18Z</time>
      </trkpt>
      <trkpt lat="42.39095" lon="-8.62969">
        <ele>34.74</ele>
        <time>2019-06-05T09:39:31Z</time>
      </trkpt>
      <trkpt lat="42.39101" lon="-8.62968">
        <ele>34.74</ele>
        <time>2019-06-05T09:39:36Z</time>
      </trkpt>
      <trkpt lat="42.39114" lon="-8.62968">
        <ele>34.74</ele>
        <time>2019-06-05T09:39:47Z</time>
      </trkpt>
      <trkpt lat="42.3913" lon="-8.6297">
        <ele>33.78</ele>
        <time>2019-06-05T09:40:02Z</time>
      </trkpt>
      <trkpt lat="42.39139" lon="-8.62971">
        <ele>33.78</ele>
        <time>2019-06-05T09:40:08Z</time>
      </trkpt>
      <trkpt lat="42.39141" lon="-8.62972">
        <ele>34.26</ele>
        <time>2019-06-05T09:40:09Z</time>
      </trkpt>
      <trkpt lat="42.39155" lon="-8.62975">
        <ele>34.26</ele>
        <time>2019-06-05T09:40:21Z</time>
      </trkpt>
      <trkpt lat="42.39167" lon="-8.62977">
        <ele>33.78</ele>
        <time>2019-06-05T09:40:32Z</time>
      </trkpt>
      <trkpt lat="42.3919" lon="-8.62985">
        <ele>33.78</ele>
        <time>2019-06-05T09:40:48Z</time>
      </trkpt>
      <trkpt lat="42.39204" lon="-8.62988">
        <ele>33.78</ele>
        <time>2019-06-05T09:40:59Z</time>
      </trkpt>
      <trkpt lat="42.39206" lon="-8.62988">
        <ele>33.78</ele>
        <time>2019-06-05T09:41:01Z</time>
      </trkpt>
      <trkpt lat="42.39207" lon="-8.62988">
        <ele>33.78</ele>
        <time>2019-06-05T09:41:02Z</time>
      </trkpt>
      <trkpt lat="42.39223" lon="-8.62984">
        <ele>33.3</ele>
        <time>2019-06-05T09:41:15Z</time>
      </trkpt>
      <trkpt lat="42.39235" lon="-8.62978">
        <ele>33.3</ele>
        <time>2019-06-05T09:41:26Z</time>
      </trkpt>
      <trkpt lat="42.39248" lon="-8.62972">
        <ele>33.3</ele>
        <time>2019-06-05T09:41:38Z</time>
      </trkpt>
      <trkpt lat="42.39262" lon="-8.6297">
        <ele>33.3</ele>
        <time>2019-06-05T09:41:49Z</time>
      </trkpt>
      <trkpt lat="42.39278" lon="-8.62966">
        <ele>33.3</ele>
        <time>2019-06-05T09:42:04Z</time>
      </trkpt>
      <trkpt lat="42.39279" lon="-8.62966">
        <ele>33.3</ele>
        <time>2019-06-05T09:42:05Z</time>
      </trkpt>
      <trkpt lat="42.39287" lon="-8.62964">
        <ele>32.82</ele>
        <time>2019-06-05T09:42:13Z</time>
      </trkpt>
      <trkpt lat="42.39288" lon="-8.62964">
        <ele>32.34</ele>
        <time>2019-06-05T09:42:14Z</time>
      </trkpt>
      <trkpt lat="42.39291" lon="-8.62964">
        <ele>32.34</ele>
        <time>2019-06-05T09:42:16Z</time>
      </trkpt>
      <trkpt lat="42.39306" lon="-8.62957">
        <ele>32.34</ele>
        <time>2019-06-05T09:42:29Z</time>
      </trkpt>
      <trkpt lat="42.3932" lon="-8.62955">
        <ele>32.82</ele>
        <time>2019-06-05T09:42:42Z</time>
      </trkpt>
      <trkpt lat="42.39339" lon="-8.62952">
        <ele>32.34</ele>
        <time>2019-06-05T09:42:56Z</time>
      </trkpt>
      <trkpt lat="42.39357" lon="-8.62949">
        <ele>32.34</ele>
        <time>2019-06-05T09:43:09Z</time>
      </trkpt>
      <trkpt lat="42.39374" lon="-8.6295">
        <ele>31.38</ele>
        <time>2019-06-05T09:43:22Z</time>
      </trkpt>
      <trkpt lat="42.39378" lon="-8.62951">
        <ele>31.86</ele>
        <time>2019-06-05T09:43:26Z</time>
      </trkpt>
      <trkpt lat="42.39395" lon="-8.6295">
        <ele>32.82</ele>
        <time>2019-06-05T09:43:40Z</time>
      </trkpt>
      <trkpt lat="42.39402" lon="-8.62948">
        <ele>31.86</ele>
        <time>2019-06-05T09:43:47Z</time>
      </trkpt>
      <trkpt lat="42.39404" lon="-8.62948">
        <ele>31.86</ele>
        <time>2019-06-05T09:43:48Z</time>
      </trkpt>
      <trkpt lat="42.39406" lon="-8.62947">
        <ele>32.34</ele>
        <time>2019-06-05T09:43:49Z</time>
      </trkpt>
      <trkpt lat="42.39407" lon="-8.62947">
        <ele>31.86</ele>
        <time>2019-06-05T09:43:50Z</time>
      </trkpt>
      <trkpt lat="42.39419" lon="-8.62942">
        <ele>32.34</ele>
        <time>2019-06-05T09:44:02Z</time>
      </trkpt>
      <trkpt lat="42.39424" lon="-8.6294">
        <ele>31.86</ele>
        <time>2019-06-05T09:44:08Z</time>
      </trkpt>
      <trkpt lat="42.39425" lon="-8.6294">
        <ele>31.86</ele>
        <time>2019-06-05T09:44:09Z</time>
      </trkpt>
      <trkpt lat="42.39426" lon="-8.62939">
        <ele>32.34</ele>
        <time>2019-06-05T09:44:10Z</time>
      </trkpt>
      <trkpt lat="42.39428" lon="-8.62939">
        <ele>32.34</ele>
        <time>2019-06-05T09:44:11Z</time>
      </trkpt>
      <trkpt lat="42.39429" lon="-8.62938">
        <ele>31.86</ele>
        <time>2019-06-05T09:44:12Z</time>
      </trkpt>
      <trkpt lat="42.39431" lon="-8.62938">
        <ele>32.34</ele>
        <time>2019-06-05T09:44:13Z</time>
      </trkpt>
      <trkpt lat="42.39432" lon="-8.62937">
        <ele>32.34</ele>
        <time>2019-06-05T09:44:14Z</time>
      </trkpt>
      <trkpt lat="42.3945" lon="-8.62925">
        <ele>31.86</ele>
        <time>2019-06-05T09:44:31Z</time>
      </trkpt>
      <trkpt lat="42.39459" lon="-8.62921">
        <ele>31.38</ele>
        <time>2019-06-05T09:44:44Z</time>
      </trkpt>
      <trkpt lat="42.39461" lon="-8.62921">
        <ele>31.38</ele>
        <time>2019-06-05T09:44:46Z</time>
      </trkpt>
      <trkpt lat="42.39464" lon="-8.62921">
        <ele>31.86</ele>
        <time>2019-06-05T09:44:48Z</time>
      </trkpt>
      <trkpt lat="42.39467" lon="-8.6292">
        <ele>31.38</ele>
        <time>2019-06-05T09:44:51Z</time>
      </trkpt>
      <trkpt lat="42.39469" lon="-8.6292">
        <ele>31.38</ele>
        <time>2019-06-05T09:44:52Z</time>
      </trkpt>
      <trkpt lat="42.39482" lon="-8.6291">
        <ele>30.9</ele>
        <time>2019-06-05T09:45:05Z</time>
      </trkpt>
      <trkpt lat="42.39493" lon="-8.629">
        <ele>31.38</ele>
        <time>2019-06-05T09:45:16Z</time>
      </trkpt>
      <trkpt lat="42.39513" lon="-8.62896">
        <ele>30.9</ele>
        <time>2019-06-05T09:45:31Z</time>
      </trkpt>
      <trkpt lat="42.39533" lon="-8.62892">
        <ele>31.38</ele>
        <time>2019-06-05T09:45:46Z</time>
      </trkpt>
      <trkpt lat="42.3955" lon="-8.6289">
        <ele>31.38</ele>
        <time>2019-06-05T09:46:00Z</time>
      </trkpt>
      <trkpt lat="42.39561" lon="-8.62891">
        <ele>30.9</ele>
        <time>2019-06-05T09:46:07Z</time>
      </trkpt>
      <trkpt lat="42.39564" lon="-8.62892">
        <ele>31.38</ele>
        <time>2019-06-05T09:46:11Z</time>
      </trkpt>
      <trkpt lat="42.39565" lon="-8.62891">
        <ele>31.38</ele>
        <time>2019-06-05T09:46:12Z</time>
      </trkpt>
      <trkpt lat="42.3958" lon="-8.62885">
        <ele>31.38</ele>
        <time>2019-06-05T09:46:25Z</time>
      </trkpt>
      <trkpt lat="42.39594" lon="-8.62886">
        <ele>31.86</ele>
        <time>2019-06-05T09:46:37Z</time>
      </trkpt>
      <trkpt lat="42.39612" lon="-8.62899">
        <ele>32.34</ele>
        <time>2019-06-05T09:46:53Z</time>
      </trkpt>
      <trkpt lat="42.39621" lon="-8.62908">
        <ele>32.82</ele>
        <time>2019-06-05T09:47:03Z</time>
      </trkpt>
      <trkpt lat="42.39631" lon="-8.62922">
        <ele>33.3</ele>
        <time>2019-06-05T09:47:16Z</time>
      </trkpt>
      <trkpt lat="42.39643" lon="-8.62937">
        <ele>33.3</ele>
        <time>2019-06-05T09:47:30Z</time>
      </trkpt>
      <trkpt lat="42.39657" lon="-8.62952">
        <ele>34.26</ele>
        <time>2019-06-05T09:47:44Z</time>
      </trkpt>
      <trkpt lat="42.39667" lon="-8.62963">
        <ele>35.23</ele>
        <time>2019-06-05T09:47:56Z</time>
      </trkpt>
      <trkpt lat="42.39681" lon="-8.62979">
        <ele>35.23</ele>
        <time>2019-06-05T09:48:10Z</time>
      </trkpt>
      <trkpt lat="42.39686" lon="-8.62987">
        <ele>34.74</ele>
        <time>2019-06-05T09:48:22Z</time>
      </trkpt>
      <trkpt lat="42.3969" lon="-8.6299">
        <ele>35.23</ele>
        <time>2019-06-05T09:48:37Z</time>
      </trkpt>
      <trkpt lat="42.39693" lon="-8.6299">
        <ele>34.74</ele>
        <time>2019-06-05T09:49:02Z</time>
      </trkpt>
      <trkpt lat="42.39693" lon="-8.62991">
        <ele>35.71</ele>
        <time>2019-06-05T09:49:04Z</time>
      </trkpt>
      <trkpt lat="42.39693" lon="-8.62988">
        <ele>35.23</ele>
        <time>2019-06-05T09:49:25Z</time>
      </trkpt>
      <trkpt lat="42.39694" lon="-8.62989">
        <ele>34.74</ele>
        <time>2019-06-05T09:49:51Z</time>
      </trkpt>
      <trkpt lat="42.39693" lon="-8.62987">
        <ele>34.74</ele>
        <time>2019-06-05T09:50:18Z</time>
      </trkpt>
      <trkpt lat="42.39693" lon="-8.6298">
        <ele>39.55</ele>
        <time>2019-06-05T09:50:38Z</time>
      </trkpt>
      <trkpt lat="42.39693" lon="-8.6298">
        <ele>35.23</ele>
        <time>2019-06-05T09:50:39Z</time>
      </trkpt>
      <trkpt lat="42.39691" lon="-8.62988">
        <ele>35.23</ele>
        <time>2019-06-05T09:50:56Z</time>
      </trkpt>
      <trkpt lat="42.39692" lon="-8.62994">
        <ele>34.26</ele>
        <time>2019-06-05T09:51:00Z</time>
      </trkpt>
      <trkpt lat="42.39695" lon="-8.63016">
        <ele>33.78</ele>
        <time>2019-06-05T09:51:15Z</time>
      </trkpt>
      <trkpt lat="42.39698" lon="-8.63027">
        <ele>33.3</ele>
        <time>2019-06-05T09:51:23Z</time>
      </trkpt>
      <trkpt lat="42.39702" lon="-8.63043">
        <ele>33.78</ele>
        <time>2019-06-05T09:51:35Z</time>
      </trkpt>
      <trkpt lat="42.39704" lon="-8.63048">
        <ele>33.78</ele>
        <time>2019-06-05T09:51:37Z</time>
      </trkpt>
      <trkpt lat="42.39707" lon="-8.63068">
        <ele>33.78</ele>
        <time>2019-06-05T09:51:49Z</time>
      </trkpt>
      <trkpt lat="42.39708" lon="-8.63077">
        <ele>33.3</ele>
        <time>2019-06-05T09:51:56Z</time>
      </trkpt>
      <trkpt lat="42.39709" lon="-8.63081">
        <ele>34.26</ele>
        <time>2019-06-05T09:51:58Z</time>
      </trkpt>
      <trkpt lat="42.39709" lon="-8.63084">
        <ele>33.3</ele>
        <time>2019-06-05T09:51:59Z</time>
      </trkpt>
      <trkpt lat="42.3971" lon="-8.63092">
        <ele>33.78</ele>
        <time>2019-06-05T09:52:04Z</time>
      </trkpt>
      <trkpt lat="42.3971" lon="-8.63094">
        <ele>33.78</ele>
        <time>2019-06-05T09:52:05Z</time>
      </trkpt>
      <trkpt lat="42.39713" lon="-8.63103">
        <ele>33.78</ele>
        <time>2019-06-05T09:52:12Z</time>
      </trkpt>
      <trkpt lat="42.39714" lon="-8.63105">
        <ele>33.78</ele>
        <time>2019-06-05T09:52:13Z</time>
      </trkpt>
      <trkpt lat="42.39715" lon="-8.63106">
        <ele>34.74</ele>
        <time>2019-06-05T09:52:14Z</time>
      </trkpt>
      <trkpt lat="42.39725" lon="-8.63122">
        <ele>34.26</ele>
        <time>2019-06-05T09:52:26Z</time>
      </trkpt>
      <trkpt lat="42.39725" lon="-8.63124">
        <ele>34.26</ele>
        <time>2019-06-05T09:52:27Z</time>
      </trkpt>
      <trkpt lat="42.39733" lon="-8.63143">
        <ele>34.26</ele>
        <time>2019-06-05T09:52:40Z</time>
      </trkpt>
      <trkpt lat="42.39741" lon="-8.63162">
        <ele>33.3</ele>
        <time>2019-06-05T09:52:53Z</time>
      </trkpt>
      <trkpt lat="42.39751" lon="-8.63161">
        <ele>33.78</ele>
        <time>2019-06-05T09:53:06Z</time>
      </trkpt>
      <trkpt lat="42.39762" lon="-8.63172">
        <ele>32.34</ele>
        <time>2019-06-05T09:53:17Z</time>
      </trkpt>
      <trkpt lat="42.39766" lon="-8.6318">
        <ele>31.86</ele>
        <time>2019-06-05T09:53:23Z</time>
      </trkpt>
      <trkpt lat="42.39773" lon="-8.63194">
        <ele>30.42</ele>
        <time>2019-06-05T09:53:33Z</time>
      </trkpt>
      <trkpt lat="42.39774" lon="-8.63196">
        <ele>30.42</ele>
        <time>2019-06-05T09:53:34Z</time>
      </trkpt>
      <trkpt lat="42.39782" lon="-8.63209">
        <ele>28.5</ele>
        <time>2019-06-05T09:53:45Z</time>
      </trkpt>
      <trkpt lat="42.39786" lon="-8.63212">
        <ele>28.02</ele>
        <time>2019-06-05T09:53:50Z</time>
      </trkpt>
      <trkpt lat="42.39789" lon="-8.63216">
        <ele>27.53</ele>
        <time>2019-06-05T09:53:53Z</time>
      </trkpt>
      <trkpt lat="42.39798" lon="-8.63232">
        <ele>27.05</ele>
        <time>2019-06-05T09:54:07Z</time>
      </trkpt>
      <trkpt lat="42.39803" lon="-8.63245">
        <ele>26.09</ele>
        <time>2019-06-05T09:54:17Z</time>
      </trkpt>
      <trkpt lat="42.39805" lon="-8.6326">
        <ele>26.57</ele>
        <time>2019-06-05T09:54:28Z</time>
      </trkpt>
      <trkpt lat="42.39805" lon="-8.63267">
        <ele>26.09</ele>
        <time>2019-06-05T09:54:32Z</time>
      </trkpt>
      <trkpt lat="42.39805" lon="-8.63274">
        <ele>26.09</ele>
        <time>2019-06-05T09:54:37Z</time>
      </trkpt>
      <trkpt lat="42.39804" lon="-8.63286">
        <ele>25.13</ele>
        <time>2019-06-05T09:54:47Z</time>
      </trkpt>
      <trkpt lat="42.39805" lon="-8.63305">
        <ele>26.09</ele>
        <time>2019-06-05T09:55:00Z</time>
      </trkpt>
      <trkpt lat="42.39806" lon="-8.63305">
        <ele>25.61</ele>
        <time>2019-06-05T09:55:02Z</time>
      </trkpt>
      <trkpt lat="42.39828" lon="-8.63305">
        <ele>25.13</ele>
        <time>2019-06-05T09:55:18Z</time>
      </trkpt>
      <trkpt lat="42.39846" lon="-8.63307">
        <ele>25.13</ele>
        <time>2019-06-05T09:55:33Z</time>
      </trkpt>
      <trkpt lat="42.39847" lon="-8.63307">
        <ele>25.13</ele>
        <time>2019-06-05T09:55:34Z</time>
      </trkpt>
      <trkpt lat="42.39859" lon="-8.6331">
        <ele>25.61</ele>
        <time>2019-06-05T09:55:45Z</time>
      </trkpt>
      <trkpt lat="42.39863" lon="-8.63307">
        <ele>22.25</ele>
        <time>2019-06-05T09:55:49Z</time>
      </trkpt>
      <trkpt lat="42.39863" lon="-8.63307">
        <ele>25.61</ele>
        <time>2019-06-05T09:55:50Z</time>
      </trkpt>
      <trkpt lat="42.39873" lon="-8.63316">
        <ele>25.13</ele>
        <time>2019-06-05T09:56:02Z</time>
      </trkpt>
      <trkpt lat="42.39879" lon="-8.63332">
        <ele>24.65</ele>
        <time>2019-06-05T09:56:15Z</time>
      </trkpt>
      <trkpt lat="42.39882" lon="-8.63341">
        <ele>24.17</ele>
        <time>2019-06-05T09:56:21Z</time>
      </trkpt>
      <trkpt lat="42.3989" lon="-8.63353">
        <ele>25.13</ele>
        <time>2019-06-05T09:56:31Z</time>
      </trkpt>
      <trkpt lat="42.39899" lon="-8.6336">
        <ele>24.65</ele>
        <time>2019-06-05T09:56:45Z</time>
      </trkpt>
      <trkpt lat="42.39915" lon="-8.63363">
        <ele>24.65</ele>
        <time>2019-06-05T09:56:58Z</time>
      </trkpt>
      <trkpt lat="42.39926" lon="-8.6337">
        <ele>24.17</ele>
        <time>2019-06-05T09:57:08Z</time>
      </trkpt>
      <trkpt lat="42.39928" lon="-8.63371">
        <ele>24.17</ele>
        <time>2019-06-05T09:57:10Z</time>
      </trkpt>
      <trkpt lat="42.39943" lon="-8.63382">
        <ele>24.65</ele>
        <time>2019-06-05T09:57:22Z</time>
      </trkpt>
      <trkpt lat="42.39949" lon="-8.63391">
        <ele>24.17</ele>
        <time>2019-06-05T09:57:29Z</time>
      </trkpt>
      <trkpt lat="42.39956" lon="-8.63411">
        <ele>24.17</ele>
        <time>2019-06-05T09:57:42Z</time>
      </trkpt>
      <trkpt lat="42.39965" lon="-8.63429">
        <ele>24.17</ele>
        <time>2019-06-05T09:57:55Z</time>
      </trkpt>
      <trkpt lat="42.39967" lon="-8.63437">
        <ele>24.65</ele>
        <time>2019-06-05T09:58:01Z</time>
      </trkpt>
      <trkpt lat="42.39975" lon="-8.63446">
        <ele>24.65</ele>
        <time>2019-06-05T09:58:12Z</time>
      </trkpt>
      <trkpt lat="42.39983" lon="-8.6344">
        <ele>24.17</ele>
        <time>2019-06-05T09:58:23Z</time>
      </trkpt>
      <trkpt lat="42.39988" lon="-8.63432">
        <ele>24.17</ele>
        <time>2019-06-05T09:58:34Z</time>
      </trkpt>
      <trkpt lat="42.39999" lon="-8.63423">
        <ele>24.17</ele>
        <time>2019-06-05T09:58:43Z</time>
      </trkpt>
      <trkpt lat="42.4" lon="-8.63422">
        <ele>23.21</ele>
        <time>2019-06-05T09:58:44Z</time>
      </trkpt>
      <trkpt lat="42.40018" lon="-8.63418">
        <ele>24.17</ele>
        <time>2019-06-05T09:58:58Z</time>
      </trkpt>
      <trkpt lat="42.40025" lon="-8.6342">
        <ele>25.13</ele>
        <time>2019-06-05T09:59:06Z</time>
      </trkpt>
      <trkpt lat="42.40032" lon="-8.63428">
        <ele>24.65</ele>
        <time>2019-06-05T09:59:16Z</time>
      </trkpt>
      <trkpt lat="42.40033" lon="-8.6343">
        <ele>24.65</ele>
        <time>2019-06-05T09:59:18Z</time>
      </trkpt>
      <trkpt lat="42.40038" lon="-8.63442">
        <ele>24.17</ele>
        <time>2019-06-05T09:59:30Z</time>
      </trkpt>
      <trkpt lat="42.4005" lon="-8.63455">
        <ele>24.17</ele>
        <time>2019-06-05T09:59:43Z</time>
      </trkpt>
      <trkpt lat="42.40062" lon="-8.63451">
        <ele>23.69</ele>
        <time>2019-06-05T09:59:56Z</time>
      </trkpt>
      <trkpt lat="42.40063" lon="-8.63449">
        <ele>24.17</ele>
        <time>2019-06-05T09:59:58Z</time>
      </trkpt>
      <trkpt lat="42.40074" lon="-8.6344">
        <ele>24.17</ele>
        <time>2019-06-05T10:00:10Z</time>
      </trkpt>
      <trkpt lat="42.40085" lon="-8.63439">
        <ele>24.17</ele>
        <time>2019-06-05T10:00:21Z</time>
      </trkpt>
      <trkpt lat="42.401" lon="-8.63444">
        <ele>24.17</ele>
        <time>2019-06-05T10:00:31Z</time>
      </trkpt>
      <trkpt lat="42.40111" lon="-8.63455">
        <ele>24.17</ele>
        <time>2019-06-05T10:00:44Z</time>
      </trkpt>
      <trkpt lat="42.40114" lon="-8.63457">
        <ele>24.17</ele>
        <time>2019-06-05T10:00:48Z</time>
      </trkpt>
      <trkpt lat="42.40117" lon="-8.63457">
        <ele>24.17</ele>
        <time>2019-06-05T10:00:51Z</time>
      </trkpt>
      <trkpt lat="42.4013" lon="-8.63451">
        <ele>24.17</ele>
        <time>2019-06-05T10:01:04Z</time>
      </trkpt>
      <trkpt lat="42.40142" lon="-8.6345">
        <ele>23.69</ele>
        <time>2019-06-05T10:01:13Z</time>
      </trkpt>
      <trkpt lat="42.40149" lon="-8.63456">
        <ele>24.17</ele>
        <time>2019-06-05T10:01:22Z</time>
      </trkpt>
      <trkpt lat="42.40161" lon="-8.63469">
        <ele>24.17</ele>
        <time>2019-06-05T10:01:35Z</time>
      </trkpt>
      <trkpt lat="42.40171" lon="-8.63481">
        <ele>23.69</ele>
        <time>2019-06-05T10:01:49Z</time>
      </trkpt>
      <trkpt lat="42.40186" lon="-8.63488">
        <ele>24.17</ele>
        <time>2019-06-05T10:02:01Z</time>
      </trkpt>
      <trkpt lat="42.40199" lon="-8.63489">
        <ele>23.69</ele>
        <time>2019-06-05T10:02:15Z</time>
      </trkpt>
      <trkpt lat="42.40208" lon="-8.63498">
        <ele>23.69</ele>
        <time>2019-06-05T10:02:26Z</time>
      </trkpt>
      <trkpt lat="42.40213" lon="-8.63518">
        <ele>24.17</ele>
        <time>2019-06-05T10:02:39Z</time>
      </trkpt>
      <trkpt lat="42.40225" lon="-8.63533">
        <ele>24.17</ele>
        <time>2019-06-05T10:02:54Z</time>
      </trkpt>
      <trkpt lat="42.40236" lon="-8.63524">
        <ele>24.17</ele>
        <time>2019-06-05T10:03:07Z</time>
      </trkpt>
      <trkpt lat="42.40251" lon="-8.63524">
        <ele>24.65</ele>
        <time>2019-06-05T10:03:19Z</time>
      </trkpt>
      <trkpt lat="42.40265" lon="-8.63524">
        <ele>24.17</ele>
        <time>2019-06-05T10:03:31Z</time>
      </trkpt>
      <trkpt lat="42.40272" lon="-8.63529">
        <ele>24.17</ele>
        <time>2019-06-05T10:03:39Z</time>
      </trkpt>
      <trkpt lat="42.40284" lon="-8.63528">
        <ele>24.17</ele>
        <time>2019-06-05T10:03:51Z</time>
      </trkpt>
      <trkpt lat="42.40285" lon="-8.63529">
        <ele>24.17</ele>
        <time>2019-06-05T10:03:52Z</time>
      </trkpt>
      <trkpt lat="42.40287" lon="-8.63529">
        <ele>24.17</ele>
        <time>2019-06-05T10:03:53Z</time>
      </trkpt>
      <trkpt lat="42.40294" lon="-8.63545">
        <ele>24.17</ele>
        <time>2019-06-05T10:04:05Z</time>
      </trkpt>
      <trkpt lat="42.40293" lon="-8.63552">
        <ele>24.65</ele>
        <time>2019-06-05T10:04:09Z</time>
      </trkpt>
      <trkpt lat="42.40296" lon="-8.63567">
        <ele>24.17</ele>
        <time>2019-06-05T10:04:21Z</time>
      </trkpt>
      <trkpt lat="42.403" lon="-8.63578">
        <ele>23.21</ele>
        <time>2019-06-05T10:04:29Z</time>
      </trkpt>
      <trkpt lat="42.40317" lon="-8.63582">
        <ele>23.69</ele>
        <time>2019-06-05T10:04:41Z</time>
      </trkpt>
      <trkpt lat="42.40332" lon="-8.63574">
        <ele>23.21</ele>
        <time>2019-06-05T10:04:53Z</time>
      </trkpt>
      <trkpt lat="42.40346" lon="-8.63568">
        <ele>23.21</ele>
        <time>2019-06-05T10:05:06Z</time>
      </trkpt>
      <trkpt lat="42.40355" lon="-8.63565">
        <ele>23.69</ele>
        <time>2019-06-05T10:05:15Z</time>
      </trkpt>
      <trkpt lat="42.40363" lon="-8.63558">
        <ele>23.69</ele>
        <time>2019-06-05T10:05:22Z</time>
      </trkpt>
      <trkpt lat="42.40366" lon="-8.63555">
        <ele>24.17</ele>
        <time>2019-06-05T10:05:24Z</time>
      </trkpt>
      <trkpt lat="42.40374" lon="-8.63539">
        <ele>23.69</ele>
        <time>2019-06-05T10:05:36Z</time>
      </trkpt>
      <trkpt lat="42.40385" lon="-8.63527">
        <ele>23.21</ele>
        <time>2019-06-05T10:05:52Z</time>
      </trkpt>
      <trkpt lat="42.40391" lon="-8.63536">
        <ele>23.21</ele>
        <time>2019-06-05T10:06:02Z</time>
      </trkpt>
      <trkpt lat="42.40394" lon="-8.63555">
        <ele>23.21</ele>
        <time>2019-06-05T10:06:13Z</time>
      </trkpt>
      <trkpt lat="42.40398" lon="-8.63565">
        <ele>22.25</ele>
        <time>2019-06-05T10:06:20Z</time>
      </trkpt>
      <trkpt lat="42.40405" lon="-8.63572">
        <ele>22.73</ele>
        <time>2019-06-05T10:06:27Z</time>
      </trkpt>
      <trkpt lat="42.40408" lon="-8.63573">
        <ele>22.73</ele>
        <time>2019-06-05T10:06:29Z</time>
      </trkpt>
      <trkpt lat="42.40419" lon="-8.63568">
        <ele>23.21</ele>
        <time>2019-06-05T10:06:39Z</time>
      </trkpt>
      <trkpt lat="42.40422" lon="-8.63568">
        <ele>22.73</ele>
        <time>2019-06-05T10:06:41Z</time>
      </trkpt>
      <trkpt lat="42.40423" lon="-8.63569">
        <ele>22.73</ele>
        <time>2019-06-05T10:06:42Z</time>
      </trkpt>
      <trkpt lat="42.40424" lon="-8.6357">
        <ele>22.73</ele>
        <time>2019-06-05T10:06:43Z</time>
      </trkpt>
      <trkpt lat="42.40432" lon="-8.63564">
        <ele>23.21</ele>
        <time>2019-06-05T10:06:51Z</time>
      </trkpt>
      <trkpt lat="42.40433" lon="-8.63563">
        <ele>23.69</ele>
        <time>2019-06-05T10:06:52Z</time>
      </trkpt>
      <trkpt lat="42.40434" lon="-8.63562">
        <ele>23.21</ele>
        <time>2019-06-05T10:06:53Z</time>
      </trkpt>
      <trkpt lat="42.40441" lon="-8.63549">
        <ele>23.21</ele>
        <time>2019-06-05T10:07:04Z</time>
      </trkpt>
      <trkpt lat="42.4044" lon="-8.63548">
        <ele>22.73</ele>
        <time>2019-06-05T10:07:05Z</time>
      </trkpt>
      <trkpt lat="42.40442" lon="-8.63531">
        <ele>23.21</ele>
        <time>2019-06-05T10:07:18Z</time>
      </trkpt>
      <trkpt lat="42.40449" lon="-8.63522">
        <ele>23.69</ele>
        <time>2019-06-05T10:07:26Z</time>
      </trkpt>
      <trkpt lat="42.40458" lon="-8.63525">
        <ele>22.73</ele>
        <time>2019-06-05T10:07:37Z</time>
      </trkpt>
      <trkpt lat="42.40457" lon="-8.63528">
        <ele>22.73</ele>
        <time>2019-06-05T10:07:40Z</time>
      </trkpt>
      <trkpt lat="42.40459" lon="-8.63545">
        <ele>22.73</ele>
        <time>2019-06-05T10:07:52Z</time>
      </trkpt>
      <trkpt lat="42.40469" lon="-8.63556">
        <ele>22.73</ele>
        <time>2019-06-05T10:08:04Z</time>
      </trkpt>
      <trkpt lat="42.40475" lon="-8.63567">
        <ele>21.77</ele>
        <time>2019-06-05T10:08:16Z</time>
      </trkpt>
      <trkpt lat="42.40483" lon="-8.63578">
        <ele>22.25</ele>
        <time>2019-06-05T10:08:27Z</time>
      </trkpt>
      <trkpt lat="42.40497" lon="-8.63584">
        <ele>22.25</ele>
        <time>2019-06-05T10:08:40Z</time>
      </trkpt>
      <trkpt lat="42.405" lon="-8.636">
        <ele>21.77</ele>
        <time>2019-06-05T10:08:52Z</time>
      </trkpt>
      <trkpt lat="42.40496" lon="-8.63605">
        <ele>22.25</ele>
        <time>2019-06-05T10:09:03Z</time>
      </trkpt>
      <trkpt lat="42.40496" lon="-8.63609">
        <ele>22.73</ele>
        <time>2019-06-05T10:09:18Z</time>
      </trkpt>
      <trkpt lat="42.40493" lon="-8.63614">
        <ele>22.25</ele>
        <time>2019-06-05T10:09:47Z</time>
      </trkpt>
      <trkpt lat="42.40484" lon="-8.63608">
        <ele>21.77</ele>
        <time>2019-06-05T10:10:02Z</time>
      </trkpt>
      <trkpt lat="42.40479" lon="-8.63617">
        <ele>21.77</ele>
        <time>2019-06-05T10:10:14Z</time>
      </trkpt>
      <trkpt lat="42.40485" lon="-8.6363">
        <ele>21.29</ele>
        <time>2019-06-05T10:10:26Z</time>
      </trkpt>
      <trkpt lat="42.40496" lon="-8.63652">
        <ele>20.81</ele>
        <time>2019-06-05T10:10:42Z</time>
      </trkpt>
      <trkpt lat="42.40509" lon="-8.63658">
        <ele>21.77</ele>
        <time>2019-06-05T10:10:56Z</time>
      </trkpt>
      <trkpt lat="42.40522" lon="-8.63656">
        <ele>20.81</ele>
        <time>2019-06-05T10:11:07Z</time>
      </trkpt>
      <trkpt lat="42.40524" lon="-8.63653">
        <ele>21.29</ele>
        <time>2019-06-05T10:11:10Z</time>
      </trkpt>
      <trkpt lat="42.40535" lon="-8.63641">
        <ele>21.29</ele>
        <time>2019-06-05T10:11:23Z</time>
      </trkpt>
      <trkpt lat="42.40543" lon="-8.63651">
        <ele>19.36</ele>
        <time>2019-06-05T10:11:33Z</time>
      </trkpt>
      <trkpt lat="42.40547" lon="-8.63657">
        <ele>19.84</ele>
        <time>2019-06-05T10:11:37Z</time>
      </trkpt>
      <trkpt lat="42.40555" lon="-8.63662">
        <ele>21.29</ele>
        <time>2019-06-05T10:11:46Z</time>
      </trkpt>
      <trkpt lat="42.40569" lon="-8.63658">
        <ele>19.84</ele>
        <time>2019-06-05T10:11:57Z</time>
      </trkpt>
      <trkpt lat="42.40583" lon="-8.6366">
        <ele>20.32</ele>
        <time>2019-06-05T10:12:10Z</time>
      </trkpt>
      <trkpt lat="42.40598" lon="-8.63669">
        <ele>20.32</ele>
        <time>2019-06-05T10:12:23Z</time>
      </trkpt>
      <trkpt lat="42.40599" lon="-8.63669">
        <ele>19.84</ele>
        <time>2019-06-05T10:12:24Z</time>
      </trkpt>
      <trkpt lat="42.40608" lon="-8.63668">
        <ele>20.32</ele>
        <time>2019-06-05T10:12:32Z</time>
      </trkpt>
      <trkpt lat="42.40615" lon="-8.63661">
        <ele>21.77</ele>
        <time>2019-06-05T10:12:38Z</time>
      </trkpt>
      <trkpt lat="42.4062" lon="-8.63654">
        <ele>21.29</ele>
        <time>2019-06-05T10:12:43Z</time>
      </trkpt>
      <trkpt lat="42.40623" lon="-8.63642">
        <ele>20.81</ele>
        <time>2019-06-05T10:12:52Z</time>
      </trkpt>
      <trkpt lat="42.40624" lon="-8.63635">
        <ele>20.32</ele>
        <time>2019-06-05T10:12:58Z</time>
      </trkpt>
      <trkpt lat="42.40624" lon="-8.63619">
        <ele>20.81</ele>
        <time>2019-06-05T10:13:11Z</time>
      </trkpt>
      <trkpt lat="42.40629" lon="-8.63611">
        <ele>21.29</ele>
        <time>2019-06-05T10:13:17Z</time>
      </trkpt>
      <trkpt lat="42.40643" lon="-8.63607">
        <ele>20.81</ele>
        <time>2019-06-05T10:13:27Z</time>
      </trkpt>
      <trkpt lat="42.40656" lon="-8.63618">
        <ele>20.81</ele>
        <time>2019-06-05T10:13:41Z</time>
      </trkpt>
      <trkpt lat="42.40665" lon="-8.63629">
        <ele>20.81</ele>
        <time>2019-06-05T10:13:54Z</time>
      </trkpt>
      <trkpt lat="42.40666" lon="-8.63632">
        <ele>19.84</ele>
        <time>2019-06-05T10:13:56Z</time>
      </trkpt>
      <trkpt lat="42.4068" lon="-8.63643">
        <ele>19.84</ele>
        <time>2019-06-05T10:14:10Z</time>
      </trkpt>
      <trkpt lat="42.40694" lon="-8.63642">
        <ele>19.84</ele>
        <time>2019-06-05T10:14:21Z</time>
      </trkpt>
      <trkpt lat="42.40698" lon="-8.63646">
        <ele>19.84</ele>
        <time>2019-06-05T10:14:26Z</time>
      </trkpt>
      <trkpt lat="42.40705" lon="-8.63665">
        <ele>19.36</ele>
        <time>2019-06-05T10:14:41Z</time>
      </trkpt>
      <trkpt lat="42.40709" lon="-8.63668">
        <ele>19.84</ele>
        <time>2019-06-05T10:14:44Z</time>
      </trkpt>
      <trkpt lat="42.40722" lon="-8.63671">
        <ele>20.32</ele>
        <time>2019-06-05T10:14:55Z</time>
      </trkpt>
      <trkpt lat="42.40735" lon="-8.63673">
        <ele>20.32</ele>
        <time>2019-06-05T10:15:08Z</time>
      </trkpt>
      <trkpt lat="42.4074" lon="-8.63658">
        <ele>19.36</ele>
        <time>2019-06-05T10:15:21Z</time>
      </trkpt>
      <trkpt lat="42.40754" lon="-8.63654">
        <ele>19.84</ele>
        <time>2019-06-05T10:15:35Z</time>
      </trkpt>
      <trkpt lat="42.40773" lon="-8.63652">
        <ele>20.32</ele>
        <time>2019-06-05T10:15:52Z</time>
      </trkpt>
      <trkpt lat="42.40783" lon="-8.63645">
        <ele>19.84</ele>
        <time>2019-06-05T10:16:01Z</time>
      </trkpt>
      <trkpt lat="42.40795" lon="-8.63642">
        <ele>19.84</ele>
        <time>2019-06-05T10:16:12Z</time>
      </trkpt>
      <trkpt lat="42.40802" lon="-8.63635">
        <ele>19.36</ele>
        <time>2019-06-05T10:16:18Z</time>
      </trkpt>
      <trkpt lat="42.40804" lon="-8.63631">
        <ele>19.36</ele>
        <time>2019-06-05T10:16:21Z</time>
      </trkpt>
      <trkpt lat="42.40796" lon="-8.63613">
        <ele>19.84</ele>
        <time>2019-06-05T10:16:33Z</time>
      </trkpt>
      <trkpt lat="42.40794" lon="-8.63611">
        <ele>19.84</ele>
        <time>2019-06-05T10:16:37Z</time>
      </trkpt>
      <trkpt lat="42.40788" lon="-8.63597">
        <ele>19.84</ele>
        <time>2019-06-05T10:16:47Z</time>
      </trkpt>
      <trkpt lat="42.40782" lon="-8.63584">
        <ele>19.36</ele>
        <time>2019-06-05T10:17:00Z</time>
      </trkpt>
      <trkpt lat="42.40779" lon="-8.63568">
        <ele>19.36</ele>
        <time>2019-06-05T10:17:09Z</time>
      </trkpt>
      <trkpt lat="42.40771" lon="-8.63552">
        <ele>19.36</ele>
        <time>2019-06-05T10:17:23Z</time>
      </trkpt>
      <trkpt lat="42.40771" lon="-8.63529">
        <ele>19.36</ele>
        <time>2019-06-05T10:17:37Z</time>
      </trkpt>
      <trkpt lat="42.40782" lon="-8.63522">
        <ele>19.36</ele>
        <time>2019-06-05T10:17:49Z</time>
      </trkpt>
      <trkpt lat="42.40791" lon="-8.63532">
        <ele>19.36</ele>
        <time>2019-06-05T10:18:01Z</time>
      </trkpt>
      <trkpt lat="42.40806" lon="-8.63551">
        <ele>18.88</ele>
        <time>2019-06-05T10:18:16Z</time>
      </trkpt>
      <trkpt lat="42.40811" lon="-8.63575">
        <ele>19.36</ele>
        <time>2019-06-05T10:18:29Z</time>
      </trkpt>
      <trkpt lat="42.40823" lon="-8.63588">
        <ele>19.36</ele>
        <time>2019-06-05T10:18:42Z</time>
      </trkpt>
      <trkpt lat="42.40832" lon="-8.63601">
        <ele>18.4</ele>
        <time>2019-06-05T10:18:54Z</time>
      </trkpt>
      <trkpt lat="42.40842" lon="-8.63604">
        <ele>19.36</ele>
        <time>2019-06-05T10:19:08Z</time>
      </trkpt>
      <trkpt lat="42.40845" lon="-8.63597">
        <ele>18.4</ele>
        <time>2019-06-05T10:19:22Z</time>
      </trkpt>
      <trkpt lat="42.4085" lon="-8.6359">
        <ele>19.36</ele>
        <time>2019-06-05T10:19:30Z</time>
      </trkpt>
      <trkpt lat="42.40854" lon="-8.63582">
        <ele>19.36</ele>
        <time>2019-06-05T10:19:36Z</time>
      </trkpt>
      <trkpt lat="42.40858" lon="-8.63569">
        <ele>19.84</ele>
        <time>2019-06-05T10:19:45Z</time>
      </trkpt>
      <trkpt lat="42.4087" lon="-8.63564">
        <ele>19.84</ele>
        <time>2019-06-05T10:19:57Z</time>
      </trkpt>
      <trkpt lat="42.40884" lon="-8.63566">
        <ele>18.88</ele>
        <time>2019-06-05T10:20:09Z</time>
      </trkpt>
      <trkpt lat="42.40895" lon="-8.63566">
        <ele>19.36</ele>
        <time>2019-06-05T10:20:15Z</time>
      </trkpt>
      <trkpt lat="42.40912" lon="-8.63568">
        <ele>18.88</ele>
        <time>2019-06-05T10:20:28Z</time>
      </trkpt>
      <trkpt lat="42.40912" lon="-8.63571">
        <ele>18.88</ele>
        <time>2019-06-05T10:20:47Z</time>
      </trkpt>
      <trkpt lat="42.40927" lon="-8.63573">
        <ele>18.88</ele>
        <time>2019-06-05T10:21:00Z</time>
      </trkpt>
      <trkpt lat="42.4094" lon="-8.63572">
        <ele>18.88</ele>
        <time>2019-06-05T10:21:11Z</time>
      </trkpt>
      <trkpt lat="42.40942" lon="-8.63571">
        <ele>19.36</ele>
        <time>2019-06-05T10:21:14Z</time>
      </trkpt>
      <trkpt lat="42.40953" lon="-8.63575">
        <ele>19.36</ele>
        <time>2019-06-05T10:21:26Z</time>
      </trkpt>
      <trkpt lat="42.4097" lon="-8.63584">
        <ele>19.36</ele>
        <time>2019-06-05T10:21:39Z</time>
      </trkpt>
      <trkpt lat="42.40978" lon="-8.63586">
        <ele>18.4</ele>
        <time>2019-06-05T10:21:44Z</time>
      </trkpt>
      <trkpt lat="42.40986" lon="-8.63589">
        <ele>18.88</ele>
        <time>2019-06-05T10:21:49Z</time>
      </trkpt>
      <trkpt lat="42.40996" lon="-8.63598">
        <ele>19.36</ele>
        <time>2019-06-05T10:22:00Z</time>
      </trkpt>
      <trkpt lat="42.41011" lon="-8.63609">
        <ele>18.4</ele>
        <time>2019-06-05T10:22:12Z</time>
      </trkpt>
      <trkpt lat="42.41015" lon="-8.63605">
        <ele>19.36</ele>
        <time>2019-06-05T10:22:23Z</time>
      </trkpt>
      <trkpt lat="42.41018" lon="-8.63599">
        <ele>18.88</ele>
        <time>2019-06-05T10:22:28Z</time>
      </trkpt>
      <trkpt lat="42.41027" lon="-8.63581">
        <ele>19.36</ele>
        <time>2019-06-05T10:22:43Z</time>
      </trkpt>
      <trkpt lat="42.4104" lon="-8.63584">
        <ele>18.4</ele>
        <time>2019-06-05T10:22:55Z</time>
      </trkpt>
      <trkpt lat="42.41044" lon="-8.63589">
        <ele>18.88</ele>
        <time>2019-06-05T10:23:02Z</time>
      </trkpt>
      <trkpt lat="42.41043" lon="-8.63593">
        <ele>18.4</ele>
        <time>2019-06-05T10:23:04Z</time>
      </trkpt>
      <trkpt lat="42.41045" lon="-8.63604">
        <ele>18.88</ele>
        <time>2019-06-05T10:23:16Z</time>
      </trkpt>
      <trkpt lat="42.41046" lon="-8.63606">
        <ele>18.4</ele>
        <time>2019-06-05T10:23:17Z</time>
      </trkpt>
      <trkpt lat="42.41048" lon="-8.6362">
        <ele>17.92</ele>
        <time>2019-06-05T10:23:25Z</time>
      </trkpt>
      <trkpt lat="42.41048" lon="-8.63638">
        <ele>17.92</ele>
        <time>2019-06-05T10:23:38Z</time>
      </trkpt>
      <trkpt lat="42.41055" lon="-8.63651">
        <ele>17.92</ele>
        <time>2019-06-05T10:23:52Z</time>
      </trkpt>
      <trkpt lat="42.41063" lon="-8.63652">
        <ele>17.92</ele>
        <time>2019-06-05T10:24:02Z</time>
      </trkpt>
      <trkpt lat="42.41068" lon="-8.63654">
        <ele>18.4</ele>
        <time>2019-06-05T10:24:13Z</time>
      </trkpt>
      <trkpt lat="42.41077" lon="-8.63657">
        <ele>18.4</ele>
        <time>2019-06-05T10:24:26Z</time>
      </trkpt>
      <trkpt lat="42.41094" lon="-8.63659">
        <ele>18.88</ele>
        <time>2019-06-05T10:24:38Z</time>
      </trkpt>
      <trkpt lat="42.41099" lon="-8.63656">
        <ele>18.4</ele>
        <time>2019-06-05T10:25:02Z</time>
      </trkpt>
      <trkpt lat="42.41106" lon="-8.63654">
        <ele>17.92</ele>
        <time>2019-06-05T10:25:15Z</time>
      </trkpt>
      <trkpt lat="42.41119" lon="-8.63654">
        <ele>18.88</ele>
        <time>2019-06-05T10:25:29Z</time>
      </trkpt>
      <trkpt lat="42.41123" lon="-8.63656">
        <ele>18.4</ele>
        <time>2019-06-05T10:25:33Z</time>
      </trkpt>
      <trkpt lat="42.41139" lon="-8.63668">
        <ele>17.44</ele>
        <time>2019-06-05T10:25:46Z</time>
      </trkpt>
      <trkpt lat="42.41146" lon="-8.63676">
        <ele>17.44</ele>
        <time>2019-06-05T10:25:59Z</time>
      </trkpt>
      <trkpt lat="42.41156" lon="-8.6368">
        <ele>16.96</ele>
        <time>2019-06-05T10:26:12Z</time>
      </trkpt>
      <trkpt lat="42.41169" lon="-8.63678">
        <ele>17.92</ele>
        <time>2019-06-05T10:26:31Z</time>
      </trkpt>
      <trkpt lat="42.41163" lon="-8.63687">
        <ele>17.92</ele>
        <time>2019-06-05T10:26:51Z</time>
      </trkpt>
      <trkpt lat="42.41176" lon="-8.63685">
        <ele>17.92</ele>
        <time>2019-06-05T10:27:10Z</time>
      </trkpt>
      <trkpt lat="42.41179" lon="-8.63683">
        <ele>17.92</ele>
        <time>2019-06-05T10:27:15Z</time>
      </trkpt>
      <trkpt lat="42.41183" lon="-8.6367">
        <ele>17.92</ele>
        <time>2019-06-05T10:27:27Z</time>
      </trkpt>
      <trkpt lat="42.41192" lon="-8.63659">
        <ele>17.44</ele>
        <time>2019-06-05T10:27:38Z</time>
      </trkpt>
      <trkpt lat="42.41197" lon="-8.63638">
        <ele>17.92</ele>
        <time>2019-06-05T10:27:50Z</time>
      </trkpt>
      <trkpt lat="42.41196" lon="-8.63625">
        <ele>18.4</ele>
        <time>2019-06-05T10:28:00Z</time>
      </trkpt>
      <trkpt lat="42.41203" lon="-8.63624">
        <ele>17.92</ele>
        <time>2019-06-05T10:28:11Z</time>
      </trkpt>
      <trkpt lat="42.41219" lon="-8.63632">
        <ele>17.92</ele>
        <time>2019-06-05T10:28:23Z</time>
      </trkpt>
      <trkpt lat="42.4122" lon="-8.63634">
        <ele>17.44</ele>
        <time>2019-06-05T10:28:25Z</time>
      </trkpt>
      <trkpt lat="42.41235" lon="-8.63651">
        <ele>17.92</ele>
        <time>2019-06-05T10:28:39Z</time>
      </trkpt>
      <trkpt lat="42.41249" lon="-8.63654">
        <ele>17.92</ele>
        <time>2019-06-05T10:28:50Z</time>
      </trkpt>
      <trkpt lat="42.41259" lon="-8.63643">
        <ele>17.44</ele>
        <time>2019-06-05T10:29:02Z</time>
      </trkpt>
      <trkpt lat="42.41273" lon="-8.63634">
        <ele>17.44</ele>
        <time>2019-06-05T10:29:14Z</time>
      </trkpt>
      <trkpt lat="42.41281" lon="-8.63626">
        <ele>17.44</ele>
        <time>2019-06-05T10:29:20Z</time>
      </trkpt>
      <trkpt lat="42.4128" lon="-8.63618">
        <ele>17.44</ele>
        <time>2019-06-05T10:29:27Z</time>
      </trkpt>
      <trkpt lat="42.4128" lon="-8.63614">
        <ele>17.92</ele>
        <time>2019-06-05T10:29:30Z</time>
      </trkpt>
      <trkpt lat="42.41278" lon="-8.63594">
        <ele>17.44</ele>
        <time>2019-06-05T10:29:42Z</time>
      </trkpt>
      <trkpt lat="42.41281" lon="-8.63579">
        <ele>16.96</ele>
        <time>2019-06-05T10:29:52Z</time>
      </trkpt>
      <trkpt lat="42.4129" lon="-8.63561">
        <ele>16.96</ele>
        <time>2019-06-05T10:30:06Z</time>
      </trkpt>
      <trkpt lat="42.41298" lon="-8.63539">
        <ele>16.96</ele>
        <time>2019-06-05T10:30:23Z</time>
      </trkpt>
      <trkpt lat="42.41305" lon="-8.6353">
        <ele>16.48</ele>
        <time>2019-06-05T10:30:31Z</time>
      </trkpt>
      <trkpt lat="42.41318" lon="-8.63519">
        <ele>16</ele>
        <time>2019-06-05T10:30:40Z</time>
      </trkpt>
      <trkpt lat="42.41333" lon="-8.63514">
        <ele>16</ele>
        <time>2019-06-05T10:30:49Z</time>
      </trkpt>
      <trkpt lat="42.41349" lon="-8.6351">
        <ele>16.48</ele>
        <time>2019-06-05T10:31:00Z</time>
      </trkpt>
      <trkpt lat="42.41368" lon="-8.63505">
        <ele>16.96</ele>
        <time>2019-06-05T10:31:14Z</time>
      </trkpt>
      <trkpt lat="42.4138" lon="-8.63494">
        <ele>16.48</ele>
        <time>2019-06-05T10:31:24Z</time>
      </trkpt>
      <trkpt lat="42.41389" lon="-8.63483">
        <ele>16.48</ele>
        <time>2019-06-05T10:31:33Z</time>
      </trkpt>
      <trkpt lat="42.41397" lon="-8.63479">
        <ele>16.48</ele>
        <time>2019-06-05T10:31:40Z</time>
      </trkpt>
      <trkpt lat="42.41412" lon="-8.63482">
        <ele>16</ele>
        <time>2019-06-05T10:31:54Z</time>
      </trkpt>
      <trkpt lat="42.41426" lon="-8.63483">
        <ele>16</ele>
        <time>2019-06-05T10:32:06Z</time>
      </trkpt>
      <trkpt lat="42.41435" lon="-8.63499">
        <ele>15.52</ele>
        <time>2019-06-05T10:32:19Z</time>
      </trkpt>
      <trkpt lat="42.4145" lon="-8.63511">
        <ele>16</ele>
        <time>2019-06-05T10:32:33Z</time>
      </trkpt>
      <trkpt lat="42.41459" lon="-8.6352">
        <ele>15.52</ele>
        <time>2019-06-05T10:32:42Z</time>
      </trkpt>
      <trkpt lat="42.41467" lon="-8.63525">
        <ele>16</ele>
        <time>2019-06-05T10:32:50Z</time>
      </trkpt>
      <trkpt lat="42.4148" lon="-8.6353">
        <ele>15.52</ele>
        <time>2019-06-05T10:33:03Z</time>
      </trkpt>
      <trkpt lat="42.41499" lon="-8.63541">
        <ele>15.52</ele>
        <time>2019-06-05T10:33:17Z</time>
      </trkpt>
      <trkpt lat="42.41513" lon="-8.63549">
        <ele>15.52</ele>
        <time>2019-06-05T10:33:31Z</time>
      </trkpt>
      <trkpt lat="42.4153" lon="-8.6356">
        <ele>15.52</ele>
        <time>2019-06-05T10:33:47Z</time>
      </trkpt>
      <trkpt lat="42.41533" lon="-8.63557">
        <ele>15.52</ele>
        <time>2019-06-05T10:33:53Z</time>
      </trkpt>
      <trkpt lat="42.41536" lon="-8.63556">
        <ele>16</ele>
        <time>2019-06-05T10:33:56Z</time>
      </trkpt>
      <trkpt lat="42.41539" lon="-8.63553">
        <ele>16</ele>
        <time>2019-06-05T10:33:59Z</time>
      </trkpt>
      <trkpt lat="42.41549" lon="-8.63549">
        <ele>15.52</ele>
        <time>2019-06-05T10:34:13Z</time>
      </trkpt>
      <trkpt lat="42.41557" lon="-8.63539">
        <ele>16</ele>
        <time>2019-06-05T10:34:30Z</time>
      </trkpt>
      <trkpt lat="42.41559" lon="-8.63534">
        <ele>16</ele>
        <time>2019-06-05T10:34:41Z</time>
      </trkpt>
      <trkpt lat="42.41561" lon="-8.63531">
        <ele>15.04</ele>
        <time>2019-06-05T10:34:43Z</time>
      </trkpt>
      <trkpt lat="42.41563" lon="-8.63528">
        <ele>15.52</ele>
        <time>2019-06-05T10:34:45Z</time>
      </trkpt>
      <trkpt lat="42.41565" lon="-8.63526">
        <ele>15.04</ele>
        <time>2019-06-05T10:34:48Z</time>
      </trkpt>
      <trkpt lat="42.41581" lon="-8.63518">
        <ele>14.56</ele>
        <time>2019-06-05T10:35:03Z</time>
      </trkpt>
      <trkpt lat="42.41595" lon="-8.63511">
        <ele>15.04</ele>
        <time>2019-06-05T10:35:15Z</time>
      </trkpt>
      <trkpt lat="42.41605" lon="-8.63515">
        <ele>15.04</ele>
        <time>2019-06-05T10:35:29Z</time>
      </trkpt>
      <trkpt lat="42.41617" lon="-8.63525">
        <ele>15.04</ele>
        <time>2019-06-05T10:35:43Z</time>
      </trkpt>
      <trkpt lat="42.41633" lon="-8.63518">
        <ele>15.04</ele>
        <time>2019-06-05T10:35:55Z</time>
      </trkpt>
      <trkpt lat="42.41635" lon="-8.63516">
        <ele>15.04</ele>
        <time>2019-06-05T10:35:57Z</time>
      </trkpt>
      <trkpt lat="42.41646" lon="-8.63497">
        <ele>15.52</ele>
        <time>2019-06-05T10:36:12Z</time>
      </trkpt>
      <trkpt lat="42.41651" lon="-8.63492">
        <ele>14.56</ele>
        <time>2019-06-05T10:36:21Z</time>
      </trkpt>
      <trkpt lat="42.41667" lon="-8.63497">
        <ele>14.56</ele>
        <time>2019-06-05T10:36:36Z</time>
      </trkpt>
      <trkpt lat="42.41674" lon="-8.63499">
        <ele>15.04</ele>
        <time>2019-06-05T10:36:41Z</time>
      </trkpt>
      <trkpt lat="42.41678" lon="-8.635">
        <ele>14.56</ele>
        <time>2019-06-05T10:36:44Z</time>
      </trkpt>
      <trkpt lat="42.41692" lon="-8.635">
        <ele>14.08</ele>
        <time>2019-06-05T10:36:57Z</time>
      </trkpt>
      <trkpt lat="42.41694" lon="-8.63499">
        <ele>14.56</ele>
        <time>2019-06-05T10:37:05Z</time>
      </trkpt>
      <trkpt lat="42.41698" lon="-8.63496">
        <ele>14.56</ele>
        <time>2019-06-05T10:37:09Z</time>
      </trkpt>
      <trkpt lat="42.41701" lon="-8.63477">
        <ele>14.56</ele>
        <time>2019-06-05T10:37:21Z</time>
      </trkpt>
      <trkpt lat="42.41708" lon="-8.6347">
        <ele>14.56</ele>
        <time>2019-06-05T10:37:27Z</time>
      </trkpt>
      <trkpt lat="42.41717" lon="-8.63469">
        <ele>14.08</ele>
        <time>2019-06-05T10:37:37Z</time>
      </trkpt>
      <trkpt lat="42.41732" lon="-8.63475">
        <ele>14.08</ele>
        <time>2019-06-05T10:37:51Z</time>
      </trkpt>
      <trkpt lat="42.41746" lon="-8.63492">
        <ele>14.08</ele>
        <time>2019-06-05T10:38:06Z</time>
      </trkpt>
      <trkpt lat="42.41758" lon="-8.63517">
        <ele>13.6</ele>
        <time>2019-06-05T10:38:23Z</time>
      </trkpt>
      <trkpt lat="42.41762" lon="-8.63535">
        <ele>14.08</ele>
        <time>2019-06-05T10:38:37Z</time>
      </trkpt>
      <trkpt lat="42.41764" lon="-8.63559">
        <ele>14.08</ele>
        <time>2019-06-05T10:38:54Z</time>
      </trkpt>
      <trkpt lat="42.41765" lon="-8.63561">
        <ele>14.08</ele>
        <time>2019-06-05T10:38:56Z</time>
      </trkpt>
      <trkpt lat="42.41779" lon="-8.63579">
        <ele>13.6</ele>
        <time>2019-06-05T10:39:09Z</time>
      </trkpt>
      <trkpt lat="42.41783" lon="-8.6359">
        <ele>14.08</ele>
        <time>2019-06-05T10:39:22Z</time>
      </trkpt>
      <trkpt lat="42.41788" lon="-8.63621">
        <ele>13.12</ele>
        <time>2019-06-05T10:39:41Z</time>
      </trkpt>
      <trkpt lat="42.41807" lon="-8.63636">
        <ele>12.63</ele>
        <time>2019-06-05T10:39:55Z</time>
      </trkpt>
      <trkpt lat="42.4182" lon="-8.63637">
        <ele>13.6</ele>
        <time>2019-06-05T10:40:07Z</time>
      </trkpt>
      <trkpt lat="42.41832" lon="-8.63638">
        <ele>13.6</ele>
        <time>2019-06-05T10:40:18Z</time>
      </trkpt>
      <trkpt lat="42.41852" lon="-8.63633">
        <ele>14.08</ele>
        <time>2019-06-05T10:40:34Z</time>
      </trkpt>
      <trkpt lat="42.41864" lon="-8.63626">
        <ele>15.04</ele>
        <time>2019-06-05T10:40:46Z</time>
      </trkpt>
      <trkpt lat="42.41872" lon="-8.63625">
        <ele>15.04</ele>
        <time>2019-06-05T10:40:59Z</time>
      </trkpt>
      <trkpt lat="42.41877" lon="-8.63616">
        <ele>15.04</ele>
        <time>2019-06-05T10:41:08Z</time>
      </trkpt>
      <trkpt lat="42.41881" lon="-8.63615">
        <ele>15.04</ele>
        <time>2019-06-05T10:41:12Z</time>
      </trkpt>
      <trkpt lat="42.41897" lon="-8.63621">
        <ele>15.52</ele>
        <time>2019-06-05T10:41:27Z</time>
      </trkpt>
      <trkpt lat="42.41902" lon="-8.63622">
        <ele>14.56</ele>
        <time>2019-06-05T10:41:43Z</time>
      </trkpt>
      <trkpt lat="42.41913" lon="-8.63628">
        <ele>15.52</ele>
        <time>2019-06-05T10:41:59Z</time>
      </trkpt>
      <trkpt lat="42.41931" lon="-8.63634">
        <ele>15.52</ele>
        <time>2019-06-05T10:42:12Z</time>
      </trkpt>
      <trkpt lat="42.41943" lon="-8.63638">
        <ele>15.52</ele>
        <time>2019-06-05T10:42:22Z</time>
      </trkpt>
      <trkpt lat="42.41953" lon="-8.63644">
        <ele>16</ele>
        <time>2019-06-05T10:42:34Z</time>
      </trkpt>
      <trkpt lat="42.41966" lon="-8.63652">
        <ele>16.48</ele>
        <time>2019-06-05T10:42:49Z</time>
      </trkpt>
      <trkpt lat="42.41972" lon="-8.63652">
        <ele>16.96</ele>
        <time>2019-06-05T10:42:55Z</time>
      </trkpt>
      <trkpt lat="42.41977" lon="-8.63659">
        <ele>16.96</ele>
        <time>2019-06-05T10:42:57Z</time>
      </trkpt>
      <trkpt lat="42.41996" lon="-8.63661">
        <ele>18.4</ele>
        <time>2019-06-05T10:43:10Z</time>
      </trkpt>
      <trkpt lat="42.42012" lon="-8.63656">
        <ele>19.36</ele>
        <time>2019-06-05T10:43:26Z</time>
      </trkpt>
      <trkpt lat="42.42024" lon="-8.63652">
        <ele>18.88</ele>
        <time>2019-06-05T10:43:39Z</time>
      </trkpt>
      <trkpt lat="42.42038" lon="-8.63651">
        <ele>20.32</ele>
        <time>2019-06-05T10:43:54Z</time>
      </trkpt>
      <trkpt lat="42.42059" lon="-8.63646">
        <ele>20.81</ele>
        <time>2019-06-05T10:44:08Z</time>
      </trkpt>
      <trkpt lat="42.4207" lon="-8.63644">
        <ele>21.29</ele>
        <time>2019-06-05T10:44:16Z</time>
      </trkpt>
      <trkpt lat="42.42088" lon="-8.63642">
        <ele>21.77</ele>
        <time>2019-06-05T10:44:28Z</time>
      </trkpt>
      <trkpt lat="42.42101" lon="-8.63641">
        <ele>22.25</ele>
        <time>2019-06-05T10:44:40Z</time>
      </trkpt>
      <trkpt lat="42.42112" lon="-8.6364">
        <ele>22.25</ele>
        <time>2019-06-05T10:44:54Z</time>
      </trkpt>
      <trkpt lat="42.42115" lon="-8.63639">
        <ele>22.25</ele>
        <time>2019-06-05T10:45:12Z</time>
      </trkpt>
      <trkpt lat="42.42124" lon="-8.6364">
        <ele>21.29</ele>
        <time>2019-06-05T10:45:25Z</time>
      </trkpt>
      <trkpt lat="42.42125" lon="-8.63639">
        <ele>22.25</ele>
        <time>2019-06-05T10:45:45Z</time>
      </trkpt>
      <trkpt lat="42.42133" lon="-8.6364">
        <ele>21.77</ele>
        <time>2019-06-05T10:45:57Z</time>
      </trkpt>
      <trkpt lat="42.42141" lon="-8.63639">
        <ele>22.25</ele>
        <time>2019-06-05T10:46:08Z</time>
      </trkpt>
      <trkpt lat="42.42146" lon="-8.63639">
        <ele>21.77</ele>
        <time>2019-06-05T10:46:14Z</time>
      </trkpt>
      <trkpt lat="42.42155" lon="-8.63649">
        <ele>22.25</ele>
        <time>2019-06-05T10:46:20Z</time>
      </trkpt>
      <trkpt lat="42.42157" lon="-8.6366">
        <ele>21.77</ele>
        <time>2019-06-05T10:46:33Z</time>
      </trkpt>
      <trkpt lat="42.42161" lon="-8.63666">
        <ele>20.81</ele>
        <time>2019-06-05T10:46:38Z</time>
      </trkpt>
      <trkpt lat="42.42165" lon="-8.63676">
        <ele>20.81</ele>
        <time>2019-06-05T10:46:44Z</time>
      </trkpt>
      <trkpt lat="42.42168" lon="-8.6368">
        <ele>21.29</ele>
        <time>2019-06-05T10:46:48Z</time>
      </trkpt>
      <trkpt lat="42.42171" lon="-8.63675">
        <ele>21.29</ele>
        <time>2019-06-05T10:47:00Z</time>
      </trkpt>
      <trkpt lat="42.42176" lon="-8.63662">
        <ele>20.81</ele>
        <time>2019-06-05T10:47:13Z</time>
      </trkpt>
      <trkpt lat="42.42191" lon="-8.63656">
        <ele>21.29</ele>
        <time>2019-06-05T10:47:24Z</time>
      </trkpt>
      <trkpt lat="42.422" lon="-8.6365">
        <ele>21.29</ele>
        <time>2019-06-05T10:47:35Z</time>
      </trkpt>
      <trkpt lat="42.42207" lon="-8.63645">
        <ele>21.29</ele>
        <time>2019-06-05T10:47:47Z</time>
      </trkpt>
      <trkpt lat="42.42215" lon="-8.63643">
        <ele>21.29</ele>
        <time>2019-06-05T10:47:56Z</time>
      </trkpt>
      <trkpt lat="42.42229" lon="-8.63648">
        <ele>22.25</ele>
        <time>2019-06-05T10:48:08Z</time>
      </trkpt>
      <trkpt lat="42.42235" lon="-8.63649">
        <ele>21.77</ele>
        <time>2019-06-05T10:48:14Z</time>
      </trkpt>
      <trkpt lat="42.42241" lon="-8.63646">
        <ele>22.25</ele>
        <time>2019-06-05T10:48:26Z</time>
      </trkpt>
      <trkpt lat="42.42243" lon="-8.63643">
        <ele>21.77</ele>
        <time>2019-06-05T10:48:38Z</time>
      </trkpt>
      <trkpt lat="42.42248" lon="-8.63634">
        <ele>22.25</ele>
        <time>2019-06-05T10:48:53Z</time>
      </trkpt>
      <trkpt lat="42.42257" lon="-8.63628">
        <ele>22.25</ele>
        <time>2019-06-05T10:49:05Z</time>
      </trkpt>
      <trkpt lat="42.4227" lon="-8.63627">
        <ele>21.77</ele>
        <time>2019-06-05T10:49:18Z</time>
      </trkpt>
      <trkpt lat="42.42307" lon="-8.63635">
        <ele>22.25</ele>
        <time>2019-06-05T10:49:32Z</time>
      </trkpt>
      <trkpt lat="42.4233" lon="-8.63637">
        <ele>22.25</ele>
        <time>2019-06-05T10:49:43Z</time>
      </trkpt>
      <trkpt lat="42.42342" lon="-8.63631">
        <ele>22.25</ele>
        <time>2019-06-05T10:49:53Z</time>
      </trkpt>
      <trkpt lat="42.42347" lon="-8.6363">
        <ele>21.29</ele>
        <time>2019-06-05T10:50:03Z</time>
      </trkpt>
      <trkpt lat="42.42345" lon="-8.63628">
        <ele>21.77</ele>
        <time>2019-06-05T10:50:12Z</time>
      </trkpt>
      <trkpt lat="42.42346" lon="-8.63623">
        <ele>21.29</ele>
        <time>2019-06-05T10:50:23Z</time>
      </trkpt>
      <trkpt lat="42.42349" lon="-8.6362">
        <ele>21.29</ele>
        <time>2019-06-05T10:50:32Z</time>
      </trkpt>
      <trkpt lat="42.42358" lon="-8.63617">
        <ele>21.29</ele>
        <time>2019-06-05T10:50:44Z</time>
      </trkpt>
      <trkpt lat="42.42371" lon="-8.63616">
        <ele>20.81</ele>
        <time>2019-06-05T10:50:48Z</time>
      </trkpt>
      <trkpt lat="42.424" lon="-8.63617">
        <ele>20.81</ele>
        <time>2019-06-05T10:50:54Z</time>
      </trkpt>
      <trkpt lat="42.42419" lon="-8.63622">
        <ele>20.81</ele>
        <time>2019-06-05T10:51:06Z</time>
      </trkpt>
      <trkpt lat="42.42431" lon="-8.63629">
        <ele>20.81</ele>
        <time>2019-06-05T10:51:17Z</time>
      </trkpt>
      <trkpt lat="42.42432" lon="-8.6363">
        <ele>20.32</ele>
        <time>2019-06-05T10:51:19Z</time>
      </trkpt>
      <trkpt lat="42.42446" lon="-8.63646">
        <ele>19.36</ele>
        <time>2019-06-05T10:51:32Z</time>
      </trkpt>
      <trkpt lat="42.4246" lon="-8.63655">
        <ele>18.88</ele>
        <time>2019-06-05T10:51:43Z</time>
      </trkpt>
      <trkpt lat="42.42466" lon="-8.63656">
        <ele>18.4</ele>
        <time>2019-06-05T10:51:54Z</time>
      </trkpt>
      <trkpt lat="42.42475" lon="-8.63668">
        <ele>18.4</ele>
        <time>2019-06-05T10:52:08Z</time>
      </trkpt>
      <trkpt lat="42.42491" lon="-8.63675">
        <ele>17.92</ele>
        <time>2019-06-05T10:52:21Z</time>
      </trkpt>
      <trkpt lat="42.42513" lon="-8.63683">
        <ele>17.92</ele>
        <time>2019-06-05T10:52:32Z</time>
      </trkpt>
      <trkpt lat="42.42522" lon="-8.63692">
        <ele>17.92</ele>
        <time>2019-06-05T10:52:45Z</time>
      </trkpt>
      <trkpt lat="42.42526" lon="-8.63694">
        <ele>18.4</ele>
        <time>2019-06-05T10:53:03Z</time>
      </trkpt>
      <trkpt lat="42.4252" lon="-8.6369">
        <ele>19.36</ele>
        <time>2019-06-05T10:53:28Z</time>
      </trkpt>
      <trkpt lat="42.42539" lon="-8.63703">
        <ele>18.88</ele>
        <time>2019-06-05T10:53:40Z</time>
      </trkpt>
      <trkpt lat="42.42551" lon="-8.63712">
        <ele>18.4</ele>
        <time>2019-06-05T10:53:51Z</time>
      </trkpt>
      <trkpt lat="42.42558" lon="-8.63716">
        <ele>17.92</ele>
        <time>2019-06-05T10:54:00Z</time>
      </trkpt>
      <trkpt lat="42.42564" lon="-8.63721">
        <ele>18.4</ele>
        <time>2019-06-05T10:54:08Z</time>
      </trkpt>
      <trkpt lat="42.42566" lon="-8.63724">
        <ele>18.4</ele>
        <time>2019-06-05T10:54:12Z</time>
      </trkpt>
      <trkpt lat="42.42596" lon="-8.63716">
        <ele>18.4</ele>
        <time>2019-06-05T10:54:22Z</time>
      </trkpt>
      <trkpt lat="42.42617" lon="-8.63712">
        <ele>18.4</ele>
        <time>2019-06-05T10:54:31Z</time>
      </trkpt>
      <trkpt lat="42.42643" lon="-8.63734">
        <ele>18.4</ele>
        <time>2019-06-05T10:54:45Z</time>
      </trkpt>
      <trkpt lat="42.4265" lon="-8.63755">
        <ele>18.88</ele>
        <time>2019-06-05T10:54:59Z</time>
      </trkpt>
      <trkpt lat="42.42655" lon="-8.6377">
        <ele>18.4</ele>
        <time>2019-06-05T10:55:12Z</time>
      </trkpt>
      <trkpt lat="42.42664" lon="-8.63784">
        <ele>18.4</ele>
        <time>2019-06-05T10:55:25Z</time>
      </trkpt>
      <trkpt lat="42.42666" lon="-8.63789">
        <ele>18.88</ele>
        <time>2019-06-05T10:55:30Z</time>
      </trkpt>
      <trkpt lat="42.42678" lon="-8.63807">
        <ele>18.4</ele>
        <time>2019-06-05T10:55:44Z</time>
      </trkpt>
      <trkpt lat="42.42678" lon="-8.63814">
        <ele>18.88</ele>
        <time>2019-06-05T10:55:54Z</time>
      </trkpt>
      <trkpt lat="42.42683" lon="-8.63824">
        <ele>19.36</ele>
        <time>2019-06-05T10:56:02Z</time>
      </trkpt>
      <trkpt lat="42.42695" lon="-8.63847">
        <ele>19.84</ele>
        <time>2019-06-05T10:56:17Z</time>
      </trkpt>
      <trkpt lat="42.42706" lon="-8.63863">
        <ele>18.88</ele>
        <time>2019-06-05T10:56:32Z</time>
      </trkpt>
      <trkpt lat="42.42726" lon="-8.63893">
        <ele>19.36</ele>
        <time>2019-06-05T10:56:43Z</time>
      </trkpt>
      <trkpt lat="42.42701" lon="-8.63909">
        <ele>21.29</ele>
        <time>2019-06-05T10:56:57Z</time>
      </trkpt>
      <trkpt lat="42.42701" lon="-8.6391">
        <ele>21.77</ele>
        <time>2019-06-05T10:56:58Z</time>
      </trkpt>
      <trkpt lat="42.42711" lon="-8.63923">
        <ele>20.32</ele>
        <time>2019-06-05T10:57:10Z</time>
      </trkpt>
      <trkpt lat="42.42721" lon="-8.63935">
        <ele>18.88</ele>
        <time>2019-06-05T10:57:23Z</time>
      </trkpt>
      <trkpt lat="42.4272" lon="-8.63942">
        <ele>18.4</ele>
        <time>2019-06-05T10:57:32Z</time>
      </trkpt>
      <trkpt lat="42.42708" lon="-8.6396">
        <ele>18.88</ele>
        <time>2019-06-05T10:57:50Z</time>
      </trkpt>
      <trkpt lat="42.42721" lon="-8.63965">
        <ele>18.88</ele>
        <time>2019-06-05T10:58:12Z</time>
      </trkpt>
      <trkpt lat="42.42719" lon="-8.63964">
        <ele>18.4</ele>
        <time>2019-06-05T10:58:42Z</time>
      </trkpt>
      <trkpt lat="42.4272" lon="-8.63965">
        <ele>18.4</ele>
        <time>2019-06-05T10:58:44Z</time>
      </trkpt>
      <trkpt lat="42.42725" lon="-8.63964">
        <ele>19.36</ele>
        <time>2019-06-05T10:58:50Z</time>
      </trkpt>
      <trkpt lat="42.42732" lon="-8.63964">
        <ele>18.88</ele>
        <time>2019-06-05T10:59:00Z</time>
      </trkpt>
      <trkpt lat="42.42739" lon="-8.63974">
        <ele>19.84</ele>
        <time>2019-06-05T10:59:13Z</time>
      </trkpt>
      <trkpt lat="42.42742" lon="-8.6398">
        <ele>19.84</ele>
        <time>2019-06-05T10:59:19Z</time>
      </trkpt>
      <trkpt lat="42.42747" lon="-8.63987">
        <ele>19.36</ele>
        <time>2019-06-05T10:59:32Z</time>
      </trkpt>
      <trkpt lat="42.42744" lon="-8.64002">
        <ele>20.32</ele>
        <time>2019-06-05T10:59:45Z</time>
      </trkpt>
      <trkpt lat="42.42749" lon="-8.6402">
        <ele>19.36</ele>
        <time>2019-06-05T11:00:00Z</time>
      </trkpt>
      <trkpt lat="42.4279" lon="-8.64037">
        <ele>19.84</ele>
        <time>2019-06-05T11:00:14Z</time>
      </trkpt>
      <trkpt lat="42.42805" lon="-8.64044">
        <ele>19.36</ele>
        <time>2019-06-05T11:00:29Z</time>
      </trkpt>
      <trkpt lat="42.42812" lon="-8.64052">
        <ele>18.88</ele>
        <time>2019-06-05T11:00:47Z</time>
      </trkpt>
      <trkpt lat="42.42819" lon="-8.64071">
        <ele>18.88</ele>
        <time>2019-06-05T11:01:04Z</time>
      </trkpt>
      <trkpt lat="42.42836" lon="-8.64085">
        <ele>18.4</ele>
        <time>2019-06-05T11:01:18Z</time>
      </trkpt>
      <trkpt lat="42.42846" lon="-8.64103">
        <ele>18.4</ele>
        <time>2019-06-05T11:01:32Z</time>
      </trkpt>
      <trkpt lat="42.4287" lon="-8.64146">
        <ele>17.92</ele>
        <time>2019-06-05T11:01:50Z</time>
      </trkpt>
      <trkpt lat="42.42882" lon="-8.64176">
        <ele>17.44</ele>
        <time>2019-06-05T11:02:09Z</time>
      </trkpt>
      <trkpt lat="42.42899" lon="-8.6419">
        <ele>17.44</ele>
        <time>2019-06-05T11:02:26Z</time>
      </trkpt>
      <trkpt lat="42.42872" lon="-8.64192">
        <ele>16</ele>
        <time>2019-06-05T11:02:40Z</time>
      </trkpt>
      <trkpt lat="42.42871" lon="-8.64205">
        <ele>16</ele>
        <time>2019-06-05T11:02:52Z</time>
      </trkpt>
      <trkpt lat="42.42875" lon="-8.64214">
        <ele>15.52</ele>
        <time>2019-06-05T11:02:56Z</time>
      </trkpt>
      <trkpt lat="42.42883" lon="-8.6423">
        <ele>15.04</ele>
        <time>2019-06-05T11:03:09Z</time>
      </trkpt>
      <trkpt lat="42.42895" lon="-8.64243">
        <ele>16</ele>
        <time>2019-06-05T11:03:22Z</time>
      </trkpt>
      <trkpt lat="42.42903" lon="-8.6425">
        <ele>16.48</ele>
        <time>2019-06-05T11:03:30Z</time>
      </trkpt>
      <trkpt lat="42.42912" lon="-8.64265">
        <ele>16</ele>
        <time>2019-06-05T11:03:45Z</time>
      </trkpt>
      <trkpt lat="42.42928" lon="-8.64276">
        <ele>16</ele>
        <time>2019-06-05T11:03:56Z</time>
      </trkpt>
      <trkpt lat="42.4294" lon="-8.64279">
        <ele>16</ele>
        <time>2019-06-05T11:04:10Z</time>
      </trkpt>
      <trkpt lat="42.42944" lon="-8.64284">
        <ele>16</ele>
        <time>2019-06-05T11:04:16Z</time>
      </trkpt>
      <trkpt lat="42.42946" lon="-8.64286">
        <ele>16</ele>
        <time>2019-06-05T11:04:18Z</time>
      </trkpt>
      <trkpt lat="42.4295" lon="-8.64305">
        <ele>16</ele>
        <time>2019-06-05T11:04:31Z</time>
      </trkpt>
      <trkpt lat="42.4296" lon="-8.64311">
        <ele>15.04</ele>
        <time>2019-06-05T11:04:43Z</time>
      </trkpt>
      <trkpt lat="42.42967" lon="-8.64315">
        <ele>15.04</ele>
        <time>2019-06-05T11:04:51Z</time>
      </trkpt>
      <trkpt lat="42.42977" lon="-8.64321">
        <ele>14.56</ele>
        <time>2019-06-05T11:05:04Z</time>
      </trkpt>
      <trkpt lat="42.42979" lon="-8.64334">
        <ele>14.56</ele>
        <time>2019-06-05T11:05:17Z</time>
      </trkpt>
      <trkpt lat="42.4299" lon="-8.64342">
        <ele>14.56</ele>
        <time>2019-06-05T11:05:36Z</time>
      </trkpt>
      <trkpt lat="42.43004" lon="-8.64347">
        <ele>14.08</ele>
        <time>2019-06-05T11:05:50Z</time>
      </trkpt>
      <trkpt lat="42.43013" lon="-8.64363">
        <ele>14.08</ele>
        <time>2019-06-05T11:06:04Z</time>
      </trkpt>
      <trkpt lat="42.43031" lon="-8.64378">
        <ele>14.08</ele>
        <time>2019-06-05T11:06:20Z</time>
      </trkpt>
      <trkpt lat="42.43047" lon="-8.64387">
        <ele>13.6</ele>
        <time>2019-06-05T11:06:37Z</time>
      </trkpt>
      <trkpt lat="42.43063" lon="-8.64396">
        <ele>13.6</ele>
        <time>2019-06-05T11:06:52Z</time>
      </trkpt>
      <trkpt lat="42.4308" lon="-8.64396">
        <ele>14.08</ele>
        <time>2019-06-05T11:07:11Z</time>
      </trkpt>
      <trkpt lat="42.43083" lon="-8.64402">
        <ele>13.12</ele>
        <time>2019-06-05T11:07:26Z</time>
      </trkpt>
      <trkpt lat="42.43077" lon="-8.64415">
        <ele>13.12</ele>
        <time>2019-06-05T11:07:43Z</time>
      </trkpt>
      <trkpt lat="42.43077" lon="-8.64421">
        <ele>13.6</ele>
        <time>2019-06-05T11:08:00Z</time>
      </trkpt>
      <trkpt lat="42.43075" lon="-8.64422">
        <ele>13.6</ele>
        <time>2019-06-05T11:08:16Z</time>
      </trkpt>
      <trkpt lat="42.43078" lon="-8.64427">
        <ele>13.6</ele>
        <time>2019-06-05T11:08:31Z</time>
      </trkpt>
      <trkpt lat="42.43083" lon="-8.64425">
        <ele>13.12</ele>
        <time>2019-06-05T11:08:45Z</time>
      </trkpt>
      <trkpt lat="42.43099" lon="-8.64422">
        <ele>11.67</ele>
        <time>2019-06-05T11:09:00Z</time>
      </trkpt>
      <trkpt lat="42.43104" lon="-8.64425">
        <ele>13.12</ele>
        <time>2019-06-05T11:09:15Z</time>
      </trkpt>
      <trkpt lat="42.43107" lon="-8.6442">
        <ele>12.15</ele>
        <time>2019-06-05T11:09:30Z</time>
      </trkpt>
      <trkpt lat="42.43108" lon="-8.64419">
        <ele>12.63</ele>
        <time>2019-06-05T11:09:46Z</time>
      </trkpt>
      <trkpt lat="42.43107" lon="-8.64416">
        <ele>13.12</ele>
        <time>2019-06-05T11:10:06Z</time>
      </trkpt>
      <trkpt lat="42.43107" lon="-8.64416">
        <ele>12.63</ele>
        <time>2019-06-05T11:10:20Z</time>
      </trkpt>
      <trkpt lat="42.43103" lon="-8.64421">
        <ele>12.63</ele>
        <time>2019-06-05T11:10:29Z</time>
      </trkpt>
      <trkpt lat="42.43092" lon="-8.64419">
        <ele>13.6</ele>
        <time>2019-06-05T11:10:42Z</time>
      </trkpt>
      <trkpt lat="42.4309" lon="-8.64421">
        <ele>13.6</ele>
        <time>2019-06-05T11:10:46Z</time>
      </trkpt>
      <trkpt lat="42.43089" lon="-8.6442">
        <ele>14.56</ele>
        <time>2019-06-05T11:10:47Z</time>
      </trkpt>
      <trkpt lat="42.43088" lon="-8.64424">
        <ele>14.08</ele>
        <time>2019-06-05T11:10:58Z</time>
      </trkpt>
      <trkpt lat="42.43086" lon="-8.64427">
        <ele>13.6</ele>
        <time>2019-06-05T11:11:09Z</time>
      </trkpt>
      <trkpt lat="42.43071" lon="-8.64442">
        <ele>13.6</ele>
        <time>2019-06-05T11:11:22Z</time>
      </trkpt>
      <trkpt lat="42.43058" lon="-8.64457">
        <ele>14.08</ele>
        <time>2019-06-05T11:11:36Z</time>
      </trkpt>
      <trkpt lat="42.43054" lon="-8.64459">
        <ele>14.08</ele>
        <time>2019-06-05T11:11:39Z</time>
      </trkpt>
      <trkpt lat="42.43041" lon="-8.64468">
        <ele>13.6</ele>
        <time>2019-06-05T11:11:52Z</time>
      </trkpt>
      <trkpt lat="42.43028" lon="-8.64476">
        <ele>14.08</ele>
        <time>2019-06-05T11:12:07Z</time>
      </trkpt>
      <trkpt lat="42.43016" lon="-8.64489">
        <ele>14.08</ele>
        <time>2019-06-05T11:12:26Z</time>
      </trkpt>
      <trkpt lat="42.43007" lon="-8.64506">
        <ele>14.08</ele>
        <time>2019-06-05T11:12:40Z</time>
      </trkpt>
      <trkpt lat="42.42996" lon="-8.64517">
        <ele>13.6</ele>
        <time>2019-06-05T11:12:52Z</time>
      </trkpt>
      <trkpt lat="42.42992" lon="-8.64553">
        <ele>13.6</ele>
        <time>2019-06-05T11:13:08Z</time>
      </trkpt>
      <trkpt lat="42.42984" lon="-8.64568">
        <ele>12.63</ele>
        <time>2019-06-05T11:13:21Z</time>
      </trkpt>
      <trkpt lat="42.42971" lon="-8.64582">
        <ele>12.63</ele>
        <time>2019-06-05T11:13:35Z</time>
      </trkpt>
      <trkpt lat="42.42965" lon="-8.64592">
        <ele>12.63</ele>
        <time>2019-06-05T11:13:47Z</time>
      </trkpt>
      <trkpt lat="42.42958" lon="-8.64599">
        <ele>12.63</ele>
        <time>2019-06-05T11:14:00Z</time>
      </trkpt>
      <trkpt lat="42.42949" lon="-8.64602">
        <ele>11.67</ele>
        <time>2019-06-05T11:14:12Z</time>
      </trkpt>
      <trkpt lat="42.42946" lon="-8.64605">
        <ele>12.15</ele>
        <time>2019-06-05T11:14:25Z</time>
      </trkpt>
      <trkpt lat="42.42951" lon="-8.64608">
        <ele>11.67</ele>
        <time>2019-06-05T11:14:45Z</time>
      </trkpt>
      <trkpt lat="42.42948" lon="-8.6461">
        <ele>11.67</ele>
        <time>2019-06-05T11:14:58Z</time>
      </trkpt>
      <trkpt lat="42.42948" lon="-8.64615">
        <ele>11.19</ele>
        <time>2019-06-05T11:15:07Z</time>
      </trkpt>
      <trkpt lat="42.42946" lon="-8.64616">
        <ele>11.67</ele>
        <time>2019-06-05T11:15:41Z</time>
      </trkpt>
      <trkpt lat="42.42952" lon="-8.64621">
        <ele>11.19</ele>
        <time>2019-06-05T11:16:07Z</time>
      </trkpt>
      <trkpt lat="42.42948" lon="-8.64608">
        <ele>11.19</ele>
        <time>2019-06-05T11:16:19Z</time>
      </trkpt>
      <trkpt lat="42.42941" lon="-8.64603">
        <ele>11.19</ele>
        <time>2019-06-05T11:16:45Z</time>
      </trkpt>
      <trkpt lat="42.42946" lon="-8.64608">
        <ele>11.67</ele>
        <time>2019-06-05T11:17:03Z</time>
      </trkpt>
      <trkpt lat="42.42947" lon="-8.64609">
        <ele>10.71</ele>
        <time>2019-06-05T11:17:19Z</time>
      </trkpt>
      <trkpt lat="42.42954" lon="-8.64609">
        <ele>10.71</ele>
        <time>2019-06-05T11:17:44Z</time>
      </trkpt>
      <trkpt lat="42.42955" lon="-8.64601">
        <ele>10.23</ele>
        <time>2019-06-05T11:17:55Z</time>
      </trkpt>
      <trkpt lat="42.42956" lon="-8.64599">
        <ele>11.67</ele>
        <time>2019-06-05T11:17:59Z</time>
      </trkpt>
      <trkpt lat="42.42961" lon="-8.64587">
        <ele>11.19</ele>
        <time>2019-06-05T11:18:11Z</time>
      </trkpt>
      <trkpt lat="42.42966" lon="-8.64583">
        <ele>11.67</ele>
        <time>2019-06-05T11:18:25Z</time>
      </trkpt>
      <trkpt lat="42.4297" lon="-8.64584">
        <ele>12.15</ele>
        <time>2019-06-05T11:18:48Z</time>
      </trkpt>
      <trkpt lat="42.42975" lon="-8.64592">
        <ele>11.67</ele>
        <time>2019-06-05T11:19:02Z</time>
      </trkpt>
      <trkpt lat="42.42984" lon="-8.64608">
        <ele>12.15</ele>
        <time>2019-06-05T11:19:14Z</time>
      </trkpt>
      <trkpt lat="42.43002" lon="-8.64627">
        <ele>11.67</ele>
        <time>2019-06-05T11:19:31Z</time>
      </trkpt>
      <trkpt lat="42.43016" lon="-8.64646">
        <ele>12.15</ele>
        <time>2019-06-05T11:19:45Z</time>
      </trkpt>
      <trkpt lat="42.43014" lon="-8.64652">
        <ele>12.15</ele>
        <time>2019-06-05T11:19:57Z</time>
      </trkpt>
      <trkpt lat="42.43014" lon="-8.6465">
        <ele>11.67</ele>
        <time>2019-06-05T11:20:01Z</time>
      </trkpt>
      <trkpt lat="42.43024" lon="-8.64658">
        <ele>12.15</ele>
        <time>2019-06-05T11:20:11Z</time>
      </trkpt>
      <trkpt lat="42.43027" lon="-8.64661">
        <ele>11.19</ele>
        <time>2019-06-05T11:20:13Z</time>
      </trkpt>
      <trkpt lat="42.43043" lon="-8.64676">
        <ele>11.19</ele>
        <time>2019-06-05T11:20:25Z</time>
      </trkpt>
      <trkpt lat="42.43052" lon="-8.64674">
        <ele>11.67</ele>
        <time>2019-06-05T11:20:34Z</time>
      </trkpt>
      <trkpt lat="42.43064" lon="-8.64676">
        <ele>12.63</ele>
        <time>2019-06-05T11:20:45Z</time>
      </trkpt>
      <trkpt lat="42.43079" lon="-8.6468">
        <ele>12.63</ele>
        <time>2019-06-05T11:20:58Z</time>
      </trkpt>
      <trkpt lat="42.43092" lon="-8.64681">
        <ele>12.63</ele>
        <time>2019-06-05T11:21:09Z</time>
      </trkpt>
      <trkpt lat="42.4311" lon="-8.64673">
        <ele>12.15</ele>
        <time>2019-06-05T11:21:21Z</time>
      </trkpt>
      <trkpt lat="42.43115" lon="-8.6467">
        <ele>12.63</ele>
        <time>2019-06-05T11:21:34Z</time>
      </trkpt>
      <trkpt lat="42.43123" lon="-8.64676">
        <ele>12.15</ele>
        <time>2019-06-05T11:21:47Z</time>
      </trkpt>
      <trkpt lat="42.43137" lon="-8.64675">
        <ele>12.15</ele>
        <time>2019-06-05T11:22:00Z</time>
      </trkpt>
      <trkpt lat="42.43147" lon="-8.64676">
        <ele>12.63</ele>
        <time>2019-06-05T11:22:11Z</time>
      </trkpt>
      <trkpt lat="42.43156" lon="-8.64678">
        <ele>13.12</ele>
        <time>2019-06-05T11:22:22Z</time>
      </trkpt>
      <trkpt lat="42.43161" lon="-8.64694">
        <ele>14.08</ele>
        <time>2019-06-05T11:22:37Z</time>
      </trkpt>
      <trkpt lat="42.43164" lon="-8.6469">
        <ele>14.08</ele>
        <time>2019-06-05T11:22:49Z</time>
      </trkpt>
      <trkpt lat="42.4317" lon="-8.64682">
        <ele>13.6</ele>
        <time>2019-06-05T11:22:58Z</time>
      </trkpt>
      <trkpt lat="42.43174" lon="-8.64677">
        <ele>13.12</ele>
        <time>2019-06-05T11:23:11Z</time>
      </trkpt>
      <trkpt lat="42.43183" lon="-8.64678">
        <ele>13.12</ele>
        <time>2019-06-05T11:23:26Z</time>
      </trkpt>
      <trkpt lat="42.43184" lon="-8.64674">
        <ele>13.6</ele>
        <time>2019-06-05T11:23:41Z</time>
      </trkpt>
      <trkpt lat="42.43185" lon="-8.64673">
        <ele>12.63</ele>
        <time>2019-06-05T11:23:53Z</time>
      </trkpt>
      <trkpt lat="42.43206" lon="-8.64667">
        <ele>12.63</ele>
        <time>2019-06-05T11:24:09Z</time>
      </trkpt>
      <trkpt lat="42.43189" lon="-8.64672">
        <ele>13.12</ele>
        <time>2019-06-05T11:24:25Z</time>
      </trkpt>
      <trkpt lat="42.4318" lon="-8.64669">
        <ele>13.6</ele>
        <time>2019-06-05T11:24:39Z</time>
      </trkpt>
      <trkpt lat="42.43176" lon="-8.64663">
        <ele>13.12</ele>
        <time>2019-06-05T11:24:44Z</time>
      </trkpt>
      <trkpt lat="42.43163" lon="-8.64651">
        <ele>13.12</ele>
        <time>2019-06-05T11:24:58Z</time>
      </trkpt>
      <trkpt lat="42.43163" lon="-8.64641">
        <ele>13.12</ele>
        <time>2019-06-05T11:25:13Z</time>
      </trkpt>
      <trkpt lat="42.4316" lon="-8.64634">
        <ele>13.12</ele>
        <time>2019-06-05T11:25:28Z</time>
      </trkpt>
      <trkpt lat="42.43158" lon="-8.64634">
        <ele>12.63</ele>
        <time>2019-06-05T11:25:39Z</time>
      </trkpt>
      <trkpt lat="42.43151" lon="-8.64642">
        <ele>13.12</ele>
        <time>2019-06-05T11:25:54Z</time>
      </trkpt>
      <trkpt lat="42.43144" lon="-8.64651">
        <ele>13.6</ele>
        <time>2019-06-05T11:26:12Z</time>
      </trkpt>
      <trkpt lat="42.43144" lon="-8.6466">
        <ele>13.6</ele>
        <time>2019-06-05T11:26:31Z</time>
      </trkpt>
      <trkpt lat="42.43148" lon="-8.64656">
        <ele>13.12</ele>
        <time>2019-06-05T11:26:46Z</time>
      </trkpt>
      <trkpt lat="42.43148" lon="-8.64657">
        <ele>13.6</ele>
        <time>2019-06-05T11:27:13Z</time>
      </trkpt>
      <trkpt lat="42.43139" lon="-8.6466">
        <ele>12.63</ele>
        <time>2019-06-05T11:27:26Z</time>
      </trkpt>
      <trkpt lat="42.43121" lon="-8.64659">
        <ele>12.63</ele>
        <time>2019-06-05T11:27:40Z</time>
      </trkpt>
      <trkpt lat="42.43121" lon="-8.64659">
        <ele>13.12</ele>
        <time>2019-06-05T11:27:43Z</time>
      </trkpt>
      <trkpt lat="42.43122" lon="-8.64659">
        <ele>12.15</ele>
        <time>2019-06-05T11:27:44Z</time>
      </trkpt>
      <trkpt lat="42.43136" lon="-8.64654">
        <ele>12.63</ele>
        <time>2019-06-05T11:27:57Z</time>
      </trkpt>
      <trkpt lat="42.43146" lon="-8.6466">
        <ele>12.63</ele>
        <time>2019-06-05T11:28:10Z</time>
      </trkpt>
      <trkpt lat="42.43148" lon="-8.64661">
        <ele>13.12</ele>
        <time>2019-06-05T11:28:12Z</time>
      </trkpt>
      <trkpt lat="42.43143" lon="-8.64691">
        <ele>13.12</ele>
        <time>2019-06-05T11:28:23Z</time>
      </trkpt>
      <trkpt lat="42.43149" lon="-8.64714">
        <ele>13.12</ele>
        <time>2019-06-05T11:28:38Z</time>
      </trkpt>
      <trkpt lat="42.43148" lon="-8.64712">
        <ele>13.6</ele>
        <time>2019-06-05T11:28:58Z</time>
      </trkpt>
      <trkpt lat="42.43142" lon="-8.64718">
        <ele>12.15</ele>
        <time>2019-06-05T11:29:08Z</time>
      </trkpt>
      <trkpt lat="42.4314" lon="-8.64725">
        <ele>13.6</ele>
        <time>2019-06-05T11:29:14Z</time>
      </trkpt>
      <trkpt lat="42.43133" lon="-8.64734">
        <ele>13.12</ele>
        <time>2019-06-05T11:29:29Z</time>
      </trkpt>
      <trkpt lat="42.43132" lon="-8.64733">
        <ele>13.12</ele>
        <time>2019-06-05T11:29:43Z</time>
      </trkpt>
      <trkpt lat="42.43133" lon="-8.64748">
        <ele>13.6</ele>
        <time>2019-06-05T11:29:56Z</time>
      </trkpt>
      <trkpt lat="42.43131" lon="-8.64762">
        <ele>15.04</ele>
        <time>2019-06-05T11:30:09Z</time>
      </trkpt>
      <trkpt lat="42.43129" lon="-8.64777">
        <ele>14.56</ele>
        <time>2019-06-05T11:30:20Z</time>
      </trkpt>
      <trkpt lat="42.43128" lon="-8.64784">
        <ele>14.56</ele>
        <time>2019-06-05T11:30:24Z</time>
      </trkpt>
      <trkpt lat="42.43132" lon="-8.64802">
        <ele>15.04</ele>
        <time>2019-06-05T11:30:40Z</time>
      </trkpt>
      <trkpt lat="42.43132" lon="-8.64808">
        <ele>15.04</ele>
        <time>2019-06-05T11:30:57Z</time>
      </trkpt>
      <trkpt lat="42.43135" lon="-8.64809">
        <ele>15.04</ele>
        <time>2019-06-05T11:31:20Z</time>
      </trkpt>
      <trkpt lat="42.43133" lon="-8.64812">
        <ele>16.48</ele>
        <time>2019-06-05T11:31:33Z</time>
      </trkpt>
      <trkpt lat="42.43137" lon="-8.64817">
        <ele>18.88</ele>
        <time>2019-06-05T11:31:57Z</time>
      </trkpt>
      <trkpt lat="42.43137" lon="-8.64817">
        <ele>15.52</ele>
        <time>2019-06-05T11:31:58Z</time>
      </trkpt>
      <trkpt lat="42.43138" lon="-8.64817">
        <ele>20.32</ele>
        <time>2019-06-05T11:31:59Z</time>
      </trkpt>
      <trkpt lat="42.43139" lon="-8.64818">
        <ele>16</ele>
        <time>2019-06-05T11:32:00Z</time>
      </trkpt>
      <trkpt lat="42.43148" lon="-8.64817">
        <ele>18.88</ele>
        <time>2019-06-05T11:32:21Z</time>
      </trkpt>
      <trkpt lat="42.43126" lon="-8.64815">
        <ele>19.84</ele>
        <time>2019-06-05T11:32:41Z</time>
      </trkpt>
      <trkpt lat="42.43126" lon="-8.64814">
        <ele>23.21</ele>
        <time>2019-06-05T11:32:45Z</time>
      </trkpt>
      <trkpt lat="42.43126" lon="-8.64814">
        <ele>23.21</ele>
        <time>2019-06-05T11:32:46Z</time>
      </trkpt>
      <trkpt lat="42.43126" lon="-8.64814">
        <ele>20.32</ele>
        <time>2019-06-05T11:32:48Z</time>
      </trkpt>
      <trkpt lat="42.43131" lon="-8.64815">
        <ele>20.32</ele>
        <time>2019-06-05T11:33:11Z</time>
      </trkpt>
      <trkpt lat="42.43129" lon="-8.64811">
        <ele>20.81</ele>
        <time>2019-06-05T11:33:38Z</time>
      </trkpt>
    </trkseg>
  </trk>
</gpx>